<?xml version="1.0" encoding="UTF-8" standalone="no" ?>
<gpx xmlns="http://www.topografix.com/GPX/1/1" xmlns:xsi="http://www.w3.org/2001/XMLSchema-instance" xsi:schemaLocation="http://www.topografix.com/GPX/1/1 http://www.topografix.com/GPX/1/1/gpx.xsd" version="1.1" creator="VisuGPX - https://www.visugpx.com">
  <metadata>
    <name>VTT - Vassieux But Saint Genix</name>
    <desc><![CDATA[Très beau parcours avec des points de vue fantastique sur le Vercors. A faire et refaire...]]></desc>
  </metadata>
  <trk>
    <name><![CDATA[20-MAI-17 15:06:47]]></name>
    <trkseg>
      <trkpt lat="44.87924" lon="5.37787">
        <ele>1009.52</ele>
        <time>2017-05-20T09:09:26Z</time>
      </trkpt>
      <trkpt lat="44.87924" lon="5.37786">
        <ele>1012.89</ele>
        <time>2017-05-20T09:09:31Z</time>
      </trkpt>
      <trkpt lat="44.87924" lon="5.37785">
        <ele>1015.77</ele>
        <time>2017-05-20T09:09:32Z</time>
      </trkpt>
      <trkpt lat="44.87925" lon="5.37785">
        <ele>1021.54</ele>
        <time>2017-05-20T09:09:34Z</time>
      </trkpt>
      <trkpt lat="44.87925" lon="5.37786">
        <ele>1026.34</ele>
        <time>2017-05-20T09:09:36Z</time>
      </trkpt>
      <trkpt lat="44.87925" lon="5.37786">
        <ele>1031.15</ele>
        <time>2017-05-20T09:09:38Z</time>
      </trkpt>
      <trkpt lat="44.87925" lon="5.37787">
        <ele>1035.96</ele>
        <time>2017-05-20T09:09:40Z</time>
      </trkpt>
      <trkpt lat="44.87926" lon="5.37787">
        <ele>1040.28</ele>
        <time>2017-05-20T09:09:42Z</time>
      </trkpt>
      <trkpt lat="44.87927" lon="5.37787">
        <ele>1044.61</ele>
        <time>2017-05-20T09:09:44Z</time>
      </trkpt>
      <trkpt lat="44.87928" lon="5.37787">
        <ele>1048.45</ele>
        <time>2017-05-20T09:09:46Z</time>
      </trkpt>
      <trkpt lat="44.87928" lon="5.37787">
        <ele>1051.82</ele>
        <time>2017-05-20T09:09:48Z</time>
      </trkpt>
      <trkpt lat="44.87928" lon="5.37788">
        <ele>1054.7</ele>
        <time>2017-05-20T09:09:51Z</time>
      </trkpt>
      <trkpt lat="44.87928" lon="5.37787">
        <ele>1057.59</ele>
        <time>2017-05-20T09:09:53Z</time>
      </trkpt>
      <trkpt lat="44.87929" lon="5.37787">
        <ele>1060.95</ele>
        <time>2017-05-20T09:09:56Z</time>
      </trkpt>
      <trkpt lat="44.87929" lon="5.37787">
        <ele>1060.47</ele>
        <time>2017-05-20T09:09:57Z</time>
      </trkpt>
      <trkpt lat="44.87929" lon="5.37788">
        <ele>1066.72</ele>
        <time>2017-05-20T09:09:59Z</time>
      </trkpt>
      <trkpt lat="44.87929" lon="5.37788">
        <ele>1065.76</ele>
        <time>2017-05-20T09:10:00Z</time>
      </trkpt>
      <trkpt lat="44.87908" lon="5.37753">
        <ele>1006.64</ele>
        <time>2017-05-20T09:18:29Z</time>
      </trkpt>
      <trkpt lat="44.87893" lon="5.37753">
        <ele>1006.64</ele>
        <time>2017-05-20T09:18:38Z</time>
      </trkpt>
      <trkpt lat="44.87894" lon="5.37753">
        <ele>1011.93</ele>
        <time>2017-05-20T09:18:42Z</time>
      </trkpt>
      <trkpt lat="44.87894" lon="5.37751">
        <ele>1017.69</ele>
        <time>2017-05-20T09:18:44Z</time>
      </trkpt>
      <trkpt lat="44.87894" lon="5.37751">
        <ele>1022.5</ele>
        <time>2017-05-20T09:18:46Z</time>
      </trkpt>
      <trkpt lat="44.87894" lon="5.37751">
        <ele>1027.31</ele>
        <time>2017-05-20T09:18:48Z</time>
      </trkpt>
      <trkpt lat="44.87894" lon="5.37752">
        <ele>1031.63</ele>
        <time>2017-05-20T09:18:50Z</time>
      </trkpt>
      <trkpt lat="44.87894" lon="5.37752">
        <ele>1035.48</ele>
        <time>2017-05-20T09:18:52Z</time>
      </trkpt>
      <trkpt lat="44.87894" lon="5.37751">
        <ele>1039.32</ele>
        <time>2017-05-20T09:18:54Z</time>
      </trkpt>
      <trkpt lat="44.87894" lon="5.37751">
        <ele>1042.69</ele>
        <time>2017-05-20T09:18:56Z</time>
      </trkpt>
      <trkpt lat="44.87894" lon="5.3775">
        <ele>1047.49</ele>
        <time>2017-05-20T09:18:59Z</time>
      </trkpt>
      <trkpt lat="44.87893" lon="5.37751">
        <ele>1051.34</ele>
        <time>2017-05-20T09:19:02Z</time>
      </trkpt>
      <trkpt lat="44.87893" lon="5.37751">
        <ele>1054.22</ele>
        <time>2017-05-20T09:19:04Z</time>
      </trkpt>
      <trkpt lat="44.87895" lon="5.37742">
        <ele>1059.03</ele>
        <time>2017-05-20T09:19:08Z</time>
      </trkpt>
      <trkpt lat="44.87896" lon="5.37735">
        <ele>1060.47</ele>
        <time>2017-05-20T09:19:10Z</time>
      </trkpt>
      <trkpt lat="44.87904" lon="5.37722">
        <ele>1062.87</ele>
        <time>2017-05-20T09:19:14Z</time>
      </trkpt>
      <trkpt lat="44.87908" lon="5.3772">
        <ele>1063.36</ele>
        <time>2017-05-20T09:19:15Z</time>
      </trkpt>
      <trkpt lat="44.87912" lon="5.37717">
        <ele>1063.84</ele>
        <time>2017-05-20T09:19:16Z</time>
      </trkpt>
      <trkpt lat="44.87916" lon="5.37714">
        <ele>1064.8</ele>
        <time>2017-05-20T09:19:17Z</time>
      </trkpt>
      <trkpt lat="44.87934" lon="5.37701">
        <ele>1068.16</ele>
        <time>2017-05-20T09:19:22Z</time>
      </trkpt>
      <trkpt lat="44.87941" lon="5.37696">
        <ele>1068.64</ele>
        <time>2017-05-20T09:19:24Z</time>
      </trkpt>
      <trkpt lat="44.87945" lon="5.37694">
        <ele>1070.08</ele>
        <time>2017-05-20T09:19:25Z</time>
      </trkpt>
      <trkpt lat="44.8795" lon="5.37692">
        <ele>1070.57</ele>
        <time>2017-05-20T09:19:26Z</time>
      </trkpt>
      <trkpt lat="44.87954" lon="5.37691">
        <ele>1070.57</ele>
        <time>2017-05-20T09:19:27Z</time>
      </trkpt>
      <trkpt lat="44.87958" lon="5.3769">
        <ele>1071.05</ele>
        <time>2017-05-20T09:19:28Z</time>
      </trkpt>
      <trkpt lat="44.87995" lon="5.37684">
        <ele>1073.93</ele>
        <time>2017-05-20T09:19:37Z</time>
      </trkpt>
      <trkpt lat="44.88029" lon="5.37684">
        <ele>1076.33</ele>
        <time>2017-05-20T09:19:45Z</time>
      </trkpt>
      <trkpt lat="44.88082" lon="5.3768">
        <ele>1077.78</ele>
        <time>2017-05-20T09:19:59Z</time>
      </trkpt>
      <trkpt lat="44.88133" lon="5.37673">
        <ele>1078.74</ele>
        <time>2017-05-20T09:20:12Z</time>
      </trkpt>
      <trkpt lat="44.88151" lon="5.37668">
        <ele>1079.22</ele>
        <time>2017-05-20T09:20:16Z</time>
      </trkpt>
      <trkpt lat="44.88155" lon="5.37666">
        <ele>1079.22</ele>
        <time>2017-05-20T09:20:17Z</time>
      </trkpt>
      <trkpt lat="44.8821" lon="5.37647">
        <ele>1078.26</ele>
        <time>2017-05-20T09:20:30Z</time>
      </trkpt>
      <trkpt lat="44.88283" lon="5.37623">
        <ele>1077.29</ele>
        <time>2017-05-20T09:20:47Z</time>
      </trkpt>
      <trkpt lat="44.88339" lon="5.37575">
        <ele>1075.37</ele>
        <time>2017-05-20T09:21:01Z</time>
      </trkpt>
      <trkpt lat="44.8841" lon="5.37509">
        <ele>1072.97</ele>
        <time>2017-05-20T09:21:19Z</time>
      </trkpt>
      <trkpt lat="44.88429" lon="5.3749">
        <ele>1072.01</ele>
        <time>2017-05-20T09:21:24Z</time>
      </trkpt>
      <trkpt lat="44.88466" lon="5.37447">
        <ele>1069.6</ele>
        <time>2017-05-20T09:21:34Z</time>
      </trkpt>
      <trkpt lat="44.88484" lon="5.37421">
        <ele>1072.49</ele>
        <time>2017-05-20T09:21:43Z</time>
      </trkpt>
      <trkpt lat="44.88484" lon="5.37421">
        <ele>1072.49</ele>
        <time>2017-05-20T09:21:49Z</time>
      </trkpt>
      <trkpt lat="44.88489" lon="5.37411">
        <ele>1071.05</ele>
        <time>2017-05-20T09:21:53Z</time>
      </trkpt>
      <trkpt lat="44.88506" lon="5.37377">
        <ele>1070.08</ele>
        <time>2017-05-20T09:22:01Z</time>
      </trkpt>
      <trkpt lat="44.88508" lon="5.37372">
        <ele>1070.08</ele>
        <time>2017-05-20T09:22:02Z</time>
      </trkpt>
      <trkpt lat="44.88516" lon="5.37349">
        <ele>1069.6</ele>
        <time>2017-05-20T09:22:06Z</time>
      </trkpt>
      <trkpt lat="44.88543" lon="5.37256">
        <ele>1068.64</ele>
        <time>2017-05-20T09:22:22Z</time>
      </trkpt>
      <trkpt lat="44.88552" lon="5.37227">
        <ele>1068.64</ele>
        <time>2017-05-20T09:22:27Z</time>
      </trkpt>
      <trkpt lat="44.88556" lon="5.37215">
        <ele>1068.16</ele>
        <time>2017-05-20T09:22:29Z</time>
      </trkpt>
      <trkpt lat="44.88574" lon="5.37183">
        <ele>1067.2</ele>
        <time>2017-05-20T09:22:35Z</time>
      </trkpt>
      <trkpt lat="44.88577" lon="5.37179">
        <ele>1067.2</ele>
        <time>2017-05-20T09:22:36Z</time>
      </trkpt>
      <trkpt lat="44.88585" lon="5.37171">
        <ele>1066.72</ele>
        <time>2017-05-20T09:22:38Z</time>
      </trkpt>
      <trkpt lat="44.88601" lon="5.37161">
        <ele>1066.72</ele>
        <time>2017-05-20T09:22:42Z</time>
      </trkpt>
      <trkpt lat="44.88627" lon="5.37152">
        <ele>1065.28</ele>
        <time>2017-05-20T09:22:48Z</time>
      </trkpt>
      <trkpt lat="44.88649" lon="5.37147">
        <ele>1065.76</ele>
        <time>2017-05-20T09:22:53Z</time>
      </trkpt>
      <trkpt lat="44.88662" lon="5.37142">
        <ele>1065.28</ele>
        <time>2017-05-20T09:22:56Z</time>
      </trkpt>
      <trkpt lat="44.88667" lon="5.37141">
        <ele>1064.8</ele>
        <time>2017-05-20T09:22:57Z</time>
      </trkpt>
      <trkpt lat="44.88739" lon="5.37116">
        <ele>1064.32</ele>
        <time>2017-05-20T09:23:14Z</time>
      </trkpt>
      <trkpt lat="44.88823" lon="5.3705">
        <ele>1061.43</ele>
        <time>2017-05-20T09:23:33Z</time>
      </trkpt>
      <trkpt lat="44.88874" lon="5.37011">
        <ele>1059.03</ele>
        <time>2017-05-20T09:23:44Z</time>
      </trkpt>
      <trkpt lat="44.88879" lon="5.3701">
        <ele>1058.55</ele>
        <time>2017-05-20T09:23:45Z</time>
      </trkpt>
      <trkpt lat="44.88884" lon="5.37009">
        <ele>1059.03</ele>
        <time>2017-05-20T09:23:46Z</time>
      </trkpt>
      <trkpt lat="44.88889" lon="5.37008">
        <ele>1059.03</ele>
        <time>2017-05-20T09:23:47Z</time>
      </trkpt>
      <trkpt lat="44.88894" lon="5.37008">
        <ele>1059.03</ele>
        <time>2017-05-20T09:23:48Z</time>
      </trkpt>
      <trkpt lat="44.88909" lon="5.3701">
        <ele>1059.03</ele>
        <time>2017-05-20T09:23:51Z</time>
      </trkpt>
      <trkpt lat="44.88995" lon="5.3702">
        <ele>1057.11</ele>
        <time>2017-05-20T09:24:08Z</time>
      </trkpt>
      <trkpt lat="44.89069" lon="5.37025">
        <ele>1055.18</ele>
        <time>2017-05-20T09:24:23Z</time>
      </trkpt>
      <trkpt lat="44.89079" lon="5.37025">
        <ele>1054.7</ele>
        <time>2017-05-20T09:24:25Z</time>
      </trkpt>
      <trkpt lat="44.89083" lon="5.37025">
        <ele>1056.15</ele>
        <time>2017-05-20T09:24:26Z</time>
      </trkpt>
      <trkpt lat="44.89098" lon="5.37025">
        <ele>1054.7</ele>
        <time>2017-05-20T09:24:29Z</time>
      </trkpt>
      <trkpt lat="44.89118" lon="5.37025">
        <ele>1056.15</ele>
        <time>2017-05-20T09:24:33Z</time>
      </trkpt>
      <trkpt lat="44.89138" lon="5.37025">
        <ele>1054.22</ele>
        <time>2017-05-20T09:24:37Z</time>
      </trkpt>
      <trkpt lat="44.89217" lon="5.37037">
        <ele>1053.74</ele>
        <time>2017-05-20T09:24:53Z</time>
      </trkpt>
      <trkpt lat="44.89292" lon="5.37051">
        <ele>1053.26</ele>
        <time>2017-05-20T09:25:08Z</time>
      </trkpt>
      <trkpt lat="44.89369" lon="5.37067">
        <ele>1051.34</ele>
        <time>2017-05-20T09:25:23Z</time>
      </trkpt>
      <trkpt lat="44.89374" lon="5.37068">
        <ele>1051.34</ele>
        <time>2017-05-20T09:25:24Z</time>
      </trkpt>
      <trkpt lat="44.8944" lon="5.3708">
        <ele>1051.34</ele>
        <time>2017-05-20T09:25:38Z</time>
      </trkpt>
      <trkpt lat="44.89493" lon="5.37076">
        <ele>1051.82</ele>
        <time>2017-05-20T09:25:50Z</time>
      </trkpt>
      <trkpt lat="44.89528" lon="5.37079">
        <ele>1052.3</ele>
        <time>2017-05-20T09:26:01Z</time>
      </trkpt>
      <trkpt lat="44.89529" lon="5.37081">
        <ele>1052.78</ele>
        <time>2017-05-20T09:26:02Z</time>
      </trkpt>
      <trkpt lat="44.8953" lon="5.37083">
        <ele>1052.78</ele>
        <time>2017-05-20T09:26:03Z</time>
      </trkpt>
      <trkpt lat="44.8953" lon="5.37085">
        <ele>1052.78</ele>
        <time>2017-05-20T09:26:04Z</time>
      </trkpt>
      <trkpt lat="44.89529" lon="5.37087">
        <ele>1052.78</ele>
        <time>2017-05-20T09:26:05Z</time>
      </trkpt>
      <trkpt lat="44.89529" lon="5.37088">
        <ele>1052.78</ele>
        <time>2017-05-20T09:26:06Z</time>
      </trkpt>
      <trkpt lat="44.89528" lon="5.37089">
        <ele>1052.78</ele>
        <time>2017-05-20T09:26:07Z</time>
      </trkpt>
      <trkpt lat="44.89527" lon="5.37091">
        <ele>1052.78</ele>
        <time>2017-05-20T09:26:08Z</time>
      </trkpt>
      <trkpt lat="44.89526" lon="5.37092">
        <ele>1052.78</ele>
        <time>2017-05-20T09:26:09Z</time>
      </trkpt>
      <trkpt lat="44.89527" lon="5.37094">
        <ele>1052.78</ele>
        <time>2017-05-20T09:26:10Z</time>
      </trkpt>
      <trkpt lat="44.89529" lon="5.37094">
        <ele>1052.78</ele>
        <time>2017-05-20T09:26:11Z</time>
      </trkpt>
      <trkpt lat="44.8953" lon="5.37093">
        <ele>1052.78</ele>
        <time>2017-05-20T09:26:12Z</time>
      </trkpt>
      <trkpt lat="44.89531" lon="5.3709">
        <ele>1052.78</ele>
        <time>2017-05-20T09:26:13Z</time>
      </trkpt>
      <trkpt lat="44.89533" lon="5.37088">
        <ele>1052.78</ele>
        <time>2017-05-20T09:26:14Z</time>
      </trkpt>
      <trkpt lat="44.89534" lon="5.37086">
        <ele>1052.78</ele>
        <time>2017-05-20T09:26:15Z</time>
      </trkpt>
      <trkpt lat="44.89535" lon="5.37085">
        <ele>1052.78</ele>
        <time>2017-05-20T09:26:16Z</time>
      </trkpt>
      <trkpt lat="44.89537" lon="5.37084">
        <ele>1052.78</ele>
        <time>2017-05-20T09:26:17Z</time>
      </trkpt>
      <trkpt lat="44.89539" lon="5.37084">
        <ele>1052.78</ele>
        <time>2017-05-20T09:26:18Z</time>
      </trkpt>
      <trkpt lat="44.89548" lon="5.37078">
        <ele>1053.26</ele>
        <time>2017-05-20T09:26:29Z</time>
      </trkpt>
      <trkpt lat="44.89547" lon="5.37076">
        <ele>1053.26</ele>
        <time>2017-05-20T09:26:30Z</time>
      </trkpt>
      <trkpt lat="44.89545" lon="5.37075">
        <ele>1053.26</ele>
        <time>2017-05-20T09:26:31Z</time>
      </trkpt>
      <trkpt lat="44.89544" lon="5.37074">
        <ele>1053.26</ele>
        <time>2017-05-20T09:26:32Z</time>
      </trkpt>
      <trkpt lat="44.89543" lon="5.37073">
        <ele>1053.26</ele>
        <time>2017-05-20T09:26:33Z</time>
      </trkpt>
      <trkpt lat="44.89541" lon="5.37072">
        <ele>1052.78</ele>
        <time>2017-05-20T09:26:34Z</time>
      </trkpt>
      <trkpt lat="44.8954" lon="5.37071">
        <ele>1052.78</ele>
        <time>2017-05-20T09:26:35Z</time>
      </trkpt>
      <trkpt lat="44.89538" lon="5.3707">
        <ele>1052.78</ele>
        <time>2017-05-20T09:26:36Z</time>
      </trkpt>
      <trkpt lat="44.89536" lon="5.37068">
        <ele>1052.78</ele>
        <time>2017-05-20T09:26:37Z</time>
      </trkpt>
      <trkpt lat="44.89536" lon="5.37065">
        <ele>1052.78</ele>
        <time>2017-05-20T09:26:38Z</time>
      </trkpt>
      <trkpt lat="44.89535" lon="5.37063">
        <ele>1052.78</ele>
        <time>2017-05-20T09:26:39Z</time>
      </trkpt>
      <trkpt lat="44.89537" lon="5.37057">
        <ele>1052.78</ele>
        <time>2017-05-20T09:26:50Z</time>
      </trkpt>
      <trkpt lat="44.89536" lon="5.3706">
        <ele>1052.78</ele>
        <time>2017-05-20T09:26:59Z</time>
      </trkpt>
      <trkpt lat="44.89535" lon="5.37061">
        <ele>1052.78</ele>
        <time>2017-05-20T09:27:00Z</time>
      </trkpt>
      <trkpt lat="44.89536" lon="5.37064">
        <ele>1052.78</ele>
        <time>2017-05-20T09:27:01Z</time>
      </trkpt>
      <trkpt lat="44.89535" lon="5.37066">
        <ele>1052.78</ele>
        <time>2017-05-20T09:27:02Z</time>
      </trkpt>
      <trkpt lat="44.89532" lon="5.37067">
        <ele>1052.78</ele>
        <time>2017-05-20T09:27:03Z</time>
      </trkpt>
      <trkpt lat="44.89529" lon="5.37067">
        <ele>1052.78</ele>
        <time>2017-05-20T09:27:04Z</time>
      </trkpt>
      <trkpt lat="44.89526" lon="5.37066">
        <ele>1052.3</ele>
        <time>2017-05-20T09:27:05Z</time>
      </trkpt>
      <trkpt lat="44.89524" lon="5.37066">
        <ele>1052.3</ele>
        <time>2017-05-20T09:27:06Z</time>
      </trkpt>
      <trkpt lat="44.89521" lon="5.37065">
        <ele>1052.78</ele>
        <time>2017-05-20T09:27:16Z</time>
      </trkpt>
      <trkpt lat="44.89523" lon="5.37063">
        <ele>1052.78</ele>
        <time>2017-05-20T09:27:30Z</time>
      </trkpt>
      <trkpt lat="44.89523" lon="5.37063">
        <ele>1052.78</ele>
        <time>2017-05-20T09:27:52Z</time>
      </trkpt>
      <trkpt lat="44.89523" lon="5.37063">
        <ele>1052.78</ele>
        <time>2017-05-20T09:28:15Z</time>
      </trkpt>
      <trkpt lat="44.89523" lon="5.37063">
        <ele>1052.78</ele>
        <time>2017-05-20T09:28:40Z</time>
      </trkpt>
      <trkpt lat="44.89523" lon="5.37063">
        <ele>1054.7</ele>
        <time>2017-05-20T09:28:59Z</time>
      </trkpt>
      <trkpt lat="44.89523" lon="5.37063">
        <ele>1050.86</ele>
        <time>2017-05-20T09:29:02Z</time>
      </trkpt>
      <trkpt lat="44.89542" lon="5.3699">
        <ele>1051.82</ele>
        <time>2017-05-20T10:19:36Z</time>
      </trkpt>
      <trkpt lat="44.89539" lon="5.36994">
        <ele>1050.86</ele>
        <time>2017-05-20T10:19:38Z</time>
      </trkpt>
      <trkpt lat="44.89538" lon="5.36999">
        <ele>1050.86</ele>
        <time>2017-05-20T10:19:39Z</time>
      </trkpt>
      <trkpt lat="44.89538" lon="5.37004">
        <ele>1050.38</ele>
        <time>2017-05-20T10:19:40Z</time>
      </trkpt>
      <trkpt lat="44.89541" lon="5.37005">
        <ele>1050.38</ele>
        <time>2017-05-20T10:19:41Z</time>
      </trkpt>
      <trkpt lat="44.89541" lon="5.37011">
        <ele>1049.9</ele>
        <time>2017-05-20T10:19:42Z</time>
      </trkpt>
      <trkpt lat="44.89541" lon="5.37021">
        <ele>1049.9</ele>
        <time>2017-05-20T10:19:44Z</time>
      </trkpt>
      <trkpt lat="44.89541" lon="5.37026">
        <ele>1049.42</ele>
        <time>2017-05-20T10:19:45Z</time>
      </trkpt>
      <trkpt lat="44.89542" lon="5.37032">
        <ele>1049.9</ele>
        <time>2017-05-20T10:19:46Z</time>
      </trkpt>
      <trkpt lat="44.89543" lon="5.37038">
        <ele>1049.42</ele>
        <time>2017-05-20T10:19:47Z</time>
      </trkpt>
      <trkpt lat="44.89543" lon="5.37044">
        <ele>1049.42</ele>
        <time>2017-05-20T10:19:48Z</time>
      </trkpt>
      <trkpt lat="44.89541" lon="5.37049">
        <ele>1049.9</ele>
        <time>2017-05-20T10:19:49Z</time>
      </trkpt>
      <trkpt lat="44.8954" lon="5.37054">
        <ele>1050.38</ele>
        <time>2017-05-20T10:19:50Z</time>
      </trkpt>
      <trkpt lat="44.89538" lon="5.37057">
        <ele>1050.86</ele>
        <time>2017-05-20T10:19:51Z</time>
      </trkpt>
      <trkpt lat="44.89535" lon="5.37061">
        <ele>1050.86</ele>
        <time>2017-05-20T10:19:52Z</time>
      </trkpt>
      <trkpt lat="44.89531" lon="5.37063">
        <ele>1050.86</ele>
        <time>2017-05-20T10:19:53Z</time>
      </trkpt>
      <trkpt lat="44.89528" lon="5.37065">
        <ele>1050.86</ele>
        <time>2017-05-20T10:19:54Z</time>
      </trkpt>
      <trkpt lat="44.89461" lon="5.37075">
        <ele>1051.34</ele>
        <time>2017-05-20T10:20:07Z</time>
      </trkpt>
      <trkpt lat="44.89446" lon="5.37076">
        <ele>1051.82</ele>
        <time>2017-05-20T10:20:10Z</time>
      </trkpt>
      <trkpt lat="44.89441" lon="5.37076">
        <ele>1052.3</ele>
        <time>2017-05-20T10:20:11Z</time>
      </trkpt>
      <trkpt lat="44.89436" lon="5.37075">
        <ele>1052.3</ele>
        <time>2017-05-20T10:20:12Z</time>
      </trkpt>
      <trkpt lat="44.89431" lon="5.37074">
        <ele>1052.78</ele>
        <time>2017-05-20T10:20:13Z</time>
      </trkpt>
      <trkpt lat="44.89426" lon="5.37074">
        <ele>1052.78</ele>
        <time>2017-05-20T10:20:14Z</time>
      </trkpt>
      <trkpt lat="44.89421" lon="5.37073">
        <ele>1053.74</ele>
        <time>2017-05-20T10:20:15Z</time>
      </trkpt>
      <trkpt lat="44.89416" lon="5.37073">
        <ele>1054.22</ele>
        <time>2017-05-20T10:20:16Z</time>
      </trkpt>
      <trkpt lat="44.89337" lon="5.37057">
        <ele>1055.18</ele>
        <time>2017-05-20T10:20:32Z</time>
      </trkpt>
      <trkpt lat="44.89299" lon="5.37049">
        <ele>1056.63</ele>
        <time>2017-05-20T10:20:40Z</time>
      </trkpt>
      <trkpt lat="44.89223" lon="5.37033">
        <ele>1058.07</ele>
        <time>2017-05-20T10:20:56Z</time>
      </trkpt>
      <trkpt lat="44.89214" lon="5.37031">
        <ele>1058.07</ele>
        <time>2017-05-20T10:20:58Z</time>
      </trkpt>
      <trkpt lat="44.89137" lon="5.37021">
        <ele>1059.99</ele>
        <time>2017-05-20T10:21:14Z</time>
      </trkpt>
      <trkpt lat="44.89108" lon="5.37022">
        <ele>1060.47</ele>
        <time>2017-05-20T10:21:20Z</time>
      </trkpt>
      <trkpt lat="44.89098" lon="5.37023">
        <ele>1060.47</ele>
        <time>2017-05-20T10:21:22Z</time>
      </trkpt>
      <trkpt lat="44.89019" lon="5.3702">
        <ele>1061.91</ele>
        <time>2017-05-20T10:21:39Z</time>
      </trkpt>
      <trkpt lat="44.88936" lon="5.37009">
        <ele>1063.36</ele>
        <time>2017-05-20T10:21:58Z</time>
      </trkpt>
      <trkpt lat="44.88867" lon="5.37006">
        <ele>1064.8</ele>
        <time>2017-05-20T10:22:16Z</time>
      </trkpt>
      <trkpt lat="44.8886" lon="5.37009">
        <ele>1064.8</ele>
        <time>2017-05-20T10:22:25Z</time>
      </trkpt>
      <trkpt lat="44.8886" lon="5.37008">
        <ele>1065.28</ele>
        <time>2017-05-20T10:22:48Z</time>
      </trkpt>
      <trkpt lat="44.8886" lon="5.37008">
        <ele>1065.28</ele>
        <time>2017-05-20T10:23:15Z</time>
      </trkpt>
      <trkpt lat="44.8886" lon="5.37008">
        <ele>1065.28</ele>
        <time>2017-05-20T10:23:41Z</time>
      </trkpt>
      <trkpt lat="44.88859" lon="5.37009">
        <ele>1065.28</ele>
        <time>2017-05-20T10:24:04Z</time>
      </trkpt>
      <trkpt lat="44.88859" lon="5.3701">
        <ele>1065.28</ele>
        <time>2017-05-20T10:24:20Z</time>
      </trkpt>
      <trkpt lat="44.88859" lon="5.3701">
        <ele>1065.28</ele>
        <time>2017-05-20T10:24:44Z</time>
      </trkpt>
      <trkpt lat="44.88859" lon="5.3701">
        <ele>1069.12</ele>
        <time>2017-05-20T10:25:08Z</time>
      </trkpt>
      <trkpt lat="44.88859" lon="5.3701">
        <ele>1065.76</ele>
        <time>2017-05-20T10:25:09Z</time>
      </trkpt>
      <trkpt lat="44.88859" lon="5.3701">
        <ele>1065.28</ele>
        <time>2017-05-20T10:25:29Z</time>
      </trkpt>
      <trkpt lat="44.88858" lon="5.37011">
        <ele>1065.76</ele>
        <time>2017-05-20T10:25:44Z</time>
      </trkpt>
      <trkpt lat="44.88858" lon="5.37013">
        <ele>1065.76</ele>
        <time>2017-05-20T10:25:45Z</time>
      </trkpt>
      <trkpt lat="44.88856" lon="5.37015">
        <ele>1065.28</ele>
        <time>2017-05-20T10:25:46Z</time>
      </trkpt>
      <trkpt lat="44.88854" lon="5.37017">
        <ele>1065.28</ele>
        <time>2017-05-20T10:25:47Z</time>
      </trkpt>
      <trkpt lat="44.88851" lon="5.37019">
        <ele>1065.28</ele>
        <time>2017-05-20T10:25:48Z</time>
      </trkpt>
      <trkpt lat="44.8881" lon="5.37059">
        <ele>1066.24</ele>
        <time>2017-05-20T10:26:03Z</time>
      </trkpt>
      <trkpt lat="44.8877" lon="5.37093">
        <ele>1067.68</ele>
        <time>2017-05-20T10:26:16Z</time>
      </trkpt>
      <trkpt lat="44.88725" lon="5.37119">
        <ele>1069.12</ele>
        <time>2017-05-20T10:26:29Z</time>
      </trkpt>
      <trkpt lat="44.88653" lon="5.37142">
        <ele>1070.57</ele>
        <time>2017-05-20T10:26:47Z</time>
      </trkpt>
      <trkpt lat="44.88591" lon="5.37164">
        <ele>1071.05</ele>
        <time>2017-05-20T10:27:01Z</time>
      </trkpt>
      <trkpt lat="44.88587" lon="5.37167">
        <ele>1071.05</ele>
        <time>2017-05-20T10:27:02Z</time>
      </trkpt>
      <trkpt lat="44.88583" lon="5.3717">
        <ele>1071.05</ele>
        <time>2017-05-20T10:27:03Z</time>
      </trkpt>
      <trkpt lat="44.88572" lon="5.37183">
        <ele>1071.05</ele>
        <time>2017-05-20T10:27:06Z</time>
      </trkpt>
      <trkpt lat="44.88556" lon="5.37213">
        <ele>1071.53</ele>
        <time>2017-05-20T10:27:12Z</time>
      </trkpt>
      <trkpt lat="44.88526" lon="5.37309">
        <ele>1072.49</ele>
        <time>2017-05-20T10:27:28Z</time>
      </trkpt>
      <trkpt lat="44.88492" lon="5.37402">
        <ele>1073.45</ele>
        <time>2017-05-20T10:27:44Z</time>
      </trkpt>
      <trkpt lat="44.88481" lon="5.37421">
        <ele>1073.93</ele>
        <time>2017-05-20T10:27:48Z</time>
      </trkpt>
      <trkpt lat="44.88425" lon="5.3749">
        <ele>1075.37</ele>
        <time>2017-05-20T10:28:05Z</time>
      </trkpt>
      <trkpt lat="44.88422" lon="5.37494">
        <ele>1075.85</ele>
        <time>2017-05-20T10:28:06Z</time>
      </trkpt>
      <trkpt lat="44.88386" lon="5.37527">
        <ele>1077.29</ele>
        <time>2017-05-20T10:28:16Z</time>
      </trkpt>
      <trkpt lat="44.88383" lon="5.37531">
        <ele>1077.78</ele>
        <time>2017-05-20T10:28:17Z</time>
      </trkpt>
      <trkpt lat="44.88312" lon="5.37597">
        <ele>1079.22</ele>
        <time>2017-05-20T10:28:37Z</time>
      </trkpt>
      <trkpt lat="44.88293" lon="5.37612">
        <ele>1079.7</ele>
        <time>2017-05-20T10:28:42Z</time>
      </trkpt>
      <trkpt lat="44.88289" lon="5.37615">
        <ele>1079.7</ele>
        <time>2017-05-20T10:28:43Z</time>
      </trkpt>
      <trkpt lat="44.88281" lon="5.37619">
        <ele>1080.18</ele>
        <time>2017-05-20T10:28:45Z</time>
      </trkpt>
      <trkpt lat="44.88216" lon="5.37642">
        <ele>1081.62</ele>
        <time>2017-05-20T10:29:01Z</time>
      </trkpt>
      <trkpt lat="44.88182" lon="5.37653">
        <ele>1082.1</ele>
        <time>2017-05-20T10:29:09Z</time>
      </trkpt>
      <trkpt lat="44.88165" lon="5.37659">
        <ele>1082.58</ele>
        <time>2017-05-20T10:29:13Z</time>
      </trkpt>
      <trkpt lat="44.88161" lon="5.3766">
        <ele>1082.58</ele>
        <time>2017-05-20T10:29:14Z</time>
      </trkpt>
      <trkpt lat="44.88088" lon="5.37677">
        <ele>1084.99</ele>
        <time>2017-05-20T10:29:31Z</time>
      </trkpt>
      <trkpt lat="44.88007" lon="5.37681">
        <ele>1087.39</ele>
        <time>2017-05-20T10:29:49Z</time>
      </trkpt>
      <trkpt lat="44.87935" lon="5.37697">
        <ele>1089.79</ele>
        <time>2017-05-20T10:30:06Z</time>
      </trkpt>
      <trkpt lat="44.87878" lon="5.37738">
        <ele>1092.2</ele>
        <time>2017-05-20T10:30:22Z</time>
      </trkpt>
      <trkpt lat="44.87816" lon="5.37763">
        <ele>1094.6</ele>
        <time>2017-05-20T10:30:38Z</time>
      </trkpt>
      <trkpt lat="44.87774" lon="5.37779">
        <ele>1095.56</ele>
        <time>2017-05-20T10:30:49Z</time>
      </trkpt>
      <trkpt lat="44.87728" lon="5.37795">
        <ele>1097.48</ele>
        <time>2017-05-20T10:31:01Z</time>
      </trkpt>
      <trkpt lat="44.87712" lon="5.37801">
        <ele>1097.48</ele>
        <time>2017-05-20T10:31:05Z</time>
      </trkpt>
      <trkpt lat="44.87658" lon="5.37821">
        <ele>1098.92</ele>
        <time>2017-05-20T10:31:20Z</time>
      </trkpt>
      <trkpt lat="44.87599" lon="5.37844">
        <ele>1101.33</ele>
        <time>2017-05-20T10:31:36Z</time>
      </trkpt>
      <trkpt lat="44.87553" lon="5.3786">
        <ele>1103.25</ele>
        <time>2017-05-20T10:31:49Z</time>
      </trkpt>
      <trkpt lat="44.87511" lon="5.37876">
        <ele>1104.21</ele>
        <time>2017-05-20T10:32:01Z</time>
      </trkpt>
      <trkpt lat="44.87445" lon="5.37901">
        <ele>1104.69</ele>
        <time>2017-05-20T10:32:18Z</time>
      </trkpt>
      <trkpt lat="44.87376" lon="5.37926">
        <ele>1106.13</ele>
        <time>2017-05-20T10:32:35Z</time>
      </trkpt>
      <trkpt lat="44.87357" lon="5.37936">
        <ele>1106.13</ele>
        <time>2017-05-20T10:32:40Z</time>
      </trkpt>
      <trkpt lat="44.87324" lon="5.37945">
        <ele>1106.61</ele>
        <time>2017-05-20T10:32:48Z</time>
      </trkpt>
      <trkpt lat="44.8732" lon="5.37944">
        <ele>1107.1</ele>
        <time>2017-05-20T10:32:49Z</time>
      </trkpt>
      <trkpt lat="44.87315" lon="5.37943">
        <ele>1107.1</ele>
        <time>2017-05-20T10:32:50Z</time>
      </trkpt>
      <trkpt lat="44.87307" lon="5.37941">
        <ele>1107.58</ele>
        <time>2017-05-20T10:32:52Z</time>
      </trkpt>
      <trkpt lat="44.87303" lon="5.37939">
        <ele>1107.58</ele>
        <time>2017-05-20T10:32:53Z</time>
      </trkpt>
      <trkpt lat="44.87299" lon="5.37938">
        <ele>1107.58</ele>
        <time>2017-05-20T10:32:54Z</time>
      </trkpt>
      <trkpt lat="44.87295" lon="5.37937">
        <ele>1107.58</ele>
        <time>2017-05-20T10:32:55Z</time>
      </trkpt>
      <trkpt lat="44.8729" lon="5.37937">
        <ele>1108.06</ele>
        <time>2017-05-20T10:32:56Z</time>
      </trkpt>
      <trkpt lat="44.87282" lon="5.37935">
        <ele>1108.06</ele>
        <time>2017-05-20T10:32:58Z</time>
      </trkpt>
      <trkpt lat="44.87257" lon="5.37925">
        <ele>1109.02</ele>
        <time>2017-05-20T10:33:04Z</time>
      </trkpt>
      <trkpt lat="44.87253" lon="5.37922">
        <ele>1108.54</ele>
        <time>2017-05-20T10:33:05Z</time>
      </trkpt>
      <trkpt lat="44.8725" lon="5.37918">
        <ele>1108.54</ele>
        <time>2017-05-20T10:33:06Z</time>
      </trkpt>
      <trkpt lat="44.87247" lon="5.37914">
        <ele>1108.54</ele>
        <time>2017-05-20T10:33:07Z</time>
      </trkpt>
      <trkpt lat="44.87245" lon="5.37909">
        <ele>1109.02</ele>
        <time>2017-05-20T10:33:08Z</time>
      </trkpt>
      <trkpt lat="44.87243" lon="5.37904">
        <ele>1109.02</ele>
        <time>2017-05-20T10:33:09Z</time>
      </trkpt>
      <trkpt lat="44.87241" lon="5.37899">
        <ele>1109.02</ele>
        <time>2017-05-20T10:33:10Z</time>
      </trkpt>
      <trkpt lat="44.87239" lon="5.37894">
        <ele>1109.02</ele>
        <time>2017-05-20T10:33:11Z</time>
      </trkpt>
      <trkpt lat="44.87233" lon="5.37885">
        <ele>1109.5</ele>
        <time>2017-05-20T10:33:13Z</time>
      </trkpt>
      <trkpt lat="44.8723" lon="5.37881">
        <ele>1109.98</ele>
        <time>2017-05-20T10:33:14Z</time>
      </trkpt>
      <trkpt lat="44.87192" lon="5.3783">
        <ele>1112.86</ele>
        <time>2017-05-20T10:33:28Z</time>
      </trkpt>
      <trkpt lat="44.87135" lon="5.37774">
        <ele>1113.82</ele>
        <time>2017-05-20T10:33:44Z</time>
      </trkpt>
      <trkpt lat="44.87112" lon="5.37743">
        <ele>1114.79</ele>
        <time>2017-05-20T10:33:52Z</time>
      </trkpt>
      <trkpt lat="44.87095" lon="5.37727">
        <ele>1116.23</ele>
        <time>2017-05-20T10:33:57Z</time>
      </trkpt>
      <trkpt lat="44.87092" lon="5.37725">
        <ele>1116.23</ele>
        <time>2017-05-20T10:33:58Z</time>
      </trkpt>
      <trkpt lat="44.87088" lon="5.37723">
        <ele>1116.71</ele>
        <time>2017-05-20T10:33:59Z</time>
      </trkpt>
      <trkpt lat="44.87045" lon="5.37694">
        <ele>1119.59</ele>
        <time>2017-05-20T10:34:12Z</time>
      </trkpt>
      <trkpt lat="44.8702" lon="5.37641">
        <ele>1119.59</ele>
        <time>2017-05-20T10:34:24Z</time>
      </trkpt>
      <trkpt lat="44.87019" lon="5.37635">
        <ele>1119.59</ele>
        <time>2017-05-20T10:34:25Z</time>
      </trkpt>
      <trkpt lat="44.87018" lon="5.37608">
        <ele>1118.15</ele>
        <time>2017-05-20T10:34:29Z</time>
      </trkpt>
      <trkpt lat="44.87019" lon="5.37601">
        <ele>1118.15</ele>
        <time>2017-05-20T10:34:30Z</time>
      </trkpt>
      <trkpt lat="44.87021" lon="5.37593">
        <ele>1117.67</ele>
        <time>2017-05-20T10:34:31Z</time>
      </trkpt>
      <trkpt lat="44.87024" lon="5.37586">
        <ele>1116.71</ele>
        <time>2017-05-20T10:34:32Z</time>
      </trkpt>
      <trkpt lat="44.87028" lon="5.3758">
        <ele>1116.23</ele>
        <time>2017-05-20T10:34:33Z</time>
      </trkpt>
      <trkpt lat="44.87033" lon="5.37575">
        <ele>1116.23</ele>
        <time>2017-05-20T10:34:34Z</time>
      </trkpt>
      <trkpt lat="44.87038" lon="5.37571">
        <ele>1115.75</ele>
        <time>2017-05-20T10:34:35Z</time>
      </trkpt>
      <trkpt lat="44.87044" lon="5.37569">
        <ele>1115.75</ele>
        <time>2017-05-20T10:34:36Z</time>
      </trkpt>
      <trkpt lat="44.8705" lon="5.37568">
        <ele>1115.27</ele>
        <time>2017-05-20T10:34:37Z</time>
      </trkpt>
      <trkpt lat="44.87056" lon="5.37566">
        <ele>1114.79</ele>
        <time>2017-05-20T10:34:38Z</time>
      </trkpt>
      <trkpt lat="44.87061" lon="5.37564">
        <ele>1115.27</ele>
        <time>2017-05-20T10:34:39Z</time>
      </trkpt>
      <trkpt lat="44.87066" lon="5.37562">
        <ele>1115.27</ele>
        <time>2017-05-20T10:34:40Z</time>
      </trkpt>
      <trkpt lat="44.87075" lon="5.37557">
        <ele>1116.23</ele>
        <time>2017-05-20T10:34:42Z</time>
      </trkpt>
      <trkpt lat="44.87079" lon="5.37554">
        <ele>1116.23</ele>
        <time>2017-05-20T10:34:43Z</time>
      </trkpt>
      <trkpt lat="44.87082" lon="5.37549">
        <ele>1116.71</ele>
        <time>2017-05-20T10:34:44Z</time>
      </trkpt>
      <trkpt lat="44.87085" lon="5.37545">
        <ele>1116.71</ele>
        <time>2017-05-20T10:34:45Z</time>
      </trkpt>
      <trkpt lat="44.87088" lon="5.3754">
        <ele>1117.19</ele>
        <time>2017-05-20T10:34:46Z</time>
      </trkpt>
      <trkpt lat="44.8709" lon="5.37534">
        <ele>1117.67</ele>
        <time>2017-05-20T10:34:47Z</time>
      </trkpt>
      <trkpt lat="44.87092" lon="5.37528">
        <ele>1117.19</ele>
        <time>2017-05-20T10:34:48Z</time>
      </trkpt>
      <trkpt lat="44.87094" lon="5.37522">
        <ele>1117.67</ele>
        <time>2017-05-20T10:34:49Z</time>
      </trkpt>
      <trkpt lat="44.87096" lon="5.37516">
        <ele>1117.67</ele>
        <time>2017-05-20T10:34:50Z</time>
      </trkpt>
      <trkpt lat="44.87098" lon="5.3751">
        <ele>1117.67</ele>
        <time>2017-05-20T10:34:51Z</time>
      </trkpt>
      <trkpt lat="44.87133" lon="5.37407">
        <ele>1115.75</ele>
        <time>2017-05-20T10:35:07Z</time>
      </trkpt>
      <trkpt lat="44.87155" lon="5.37294">
        <ele>1114.79</ele>
        <time>2017-05-20T10:35:23Z</time>
      </trkpt>
      <trkpt lat="44.87166" lon="5.37233">
        <ele>1111.42</ele>
        <time>2017-05-20T10:35:30Z</time>
      </trkpt>
      <trkpt lat="44.87174" lon="5.37194">
        <ele>1110.94</ele>
        <time>2017-05-20T10:35:34Z</time>
      </trkpt>
      <trkpt lat="44.87197" lon="5.37125">
        <ele>1111.42</ele>
        <time>2017-05-20T10:35:43Z</time>
      </trkpt>
      <trkpt lat="44.87201" lon="5.37113">
        <ele>1112.38</ele>
        <time>2017-05-20T10:35:45Z</time>
      </trkpt>
      <trkpt lat="44.87204" lon="5.37103">
        <ele>1113.34</ele>
        <time>2017-05-20T10:35:47Z</time>
      </trkpt>
      <trkpt lat="44.87214" lon="5.37069">
        <ele>1113.82</ele>
        <time>2017-05-20T10:35:53Z</time>
      </trkpt>
      <trkpt lat="44.87234" lon="5.36993">
        <ele>1114.79</ele>
        <time>2017-05-20T10:36:06Z</time>
      </trkpt>
      <trkpt lat="44.87238" lon="5.36982">
        <ele>1114.79</ele>
        <time>2017-05-20T10:36:08Z</time>
      </trkpt>
      <trkpt lat="44.87239" lon="5.36975">
        <ele>1114.79</ele>
        <time>2017-05-20T10:36:09Z</time>
      </trkpt>
      <trkpt lat="44.8724" lon="5.36968">
        <ele>1114.31</ele>
        <time>2017-05-20T10:36:10Z</time>
      </trkpt>
      <trkpt lat="44.8724" lon="5.36961">
        <ele>1114.31</ele>
        <time>2017-05-20T10:36:11Z</time>
      </trkpt>
      <trkpt lat="44.8724" lon="5.36954">
        <ele>1114.31</ele>
        <time>2017-05-20T10:36:12Z</time>
      </trkpt>
      <trkpt lat="44.87239" lon="5.36948">
        <ele>1114.31</ele>
        <time>2017-05-20T10:36:13Z</time>
      </trkpt>
      <trkpt lat="44.87238" lon="5.3694">
        <ele>1114.31</ele>
        <time>2017-05-20T10:36:14Z</time>
      </trkpt>
      <trkpt lat="44.8723" lon="5.36883">
        <ele>1114.79</ele>
        <time>2017-05-20T10:36:22Z</time>
      </trkpt>
      <trkpt lat="44.87229" lon="5.36877">
        <ele>1114.79</ele>
        <time>2017-05-20T10:36:23Z</time>
      </trkpt>
      <trkpt lat="44.87224" lon="5.3684">
        <ele>1116.23</ele>
        <time>2017-05-20T10:36:29Z</time>
      </trkpt>
      <trkpt lat="44.87223" lon="5.36835">
        <ele>1116.23</ele>
        <time>2017-05-20T10:36:30Z</time>
      </trkpt>
      <trkpt lat="44.87223" lon="5.36829">
        <ele>1116.23</ele>
        <time>2017-05-20T10:36:31Z</time>
      </trkpt>
      <trkpt lat="44.87222" lon="5.36824">
        <ele>1116.71</ele>
        <time>2017-05-20T10:36:32Z</time>
      </trkpt>
      <trkpt lat="44.8722" lon="5.36819">
        <ele>1116.71</ele>
        <time>2017-05-20T10:36:33Z</time>
      </trkpt>
      <trkpt lat="44.8722" lon="5.36813">
        <ele>1116.71</ele>
        <time>2017-05-20T10:36:34Z</time>
      </trkpt>
      <trkpt lat="44.87219" lon="5.36808">
        <ele>1117.19</ele>
        <time>2017-05-20T10:36:35Z</time>
      </trkpt>
      <trkpt lat="44.87218" lon="5.36803">
        <ele>1117.19</ele>
        <time>2017-05-20T10:36:36Z</time>
      </trkpt>
      <trkpt lat="44.87202" lon="5.36759">
        <ele>1119.59</ele>
        <time>2017-05-20T10:36:45Z</time>
      </trkpt>
      <trkpt lat="44.87199" lon="5.36755">
        <ele>1119.59</ele>
        <time>2017-05-20T10:36:46Z</time>
      </trkpt>
      <trkpt lat="44.87193" lon="5.36747">
        <ele>1119.59</ele>
        <time>2017-05-20T10:36:48Z</time>
      </trkpt>
      <trkpt lat="44.87134" lon="5.36691">
        <ele>1121.52</ele>
        <time>2017-05-20T10:37:05Z</time>
      </trkpt>
      <trkpt lat="44.8712" lon="5.36631">
        <ele>1123.44</ele>
        <time>2017-05-20T10:37:17Z</time>
      </trkpt>
      <trkpt lat="44.87116" lon="5.3656">
        <ele>1124.4</ele>
        <time>2017-05-20T10:37:30Z</time>
      </trkpt>
      <trkpt lat="44.87117" lon="5.36554">
        <ele>1124.4</ele>
        <time>2017-05-20T10:37:31Z</time>
      </trkpt>
      <trkpt lat="44.87118" lon="5.36549">
        <ele>1124.4</ele>
        <time>2017-05-20T10:37:32Z</time>
      </trkpt>
      <trkpt lat="44.87128" lon="5.36469">
        <ele>1127.76</ele>
        <time>2017-05-20T10:37:47Z</time>
      </trkpt>
      <trkpt lat="44.87136" lon="5.36396">
        <ele>1127.76</ele>
        <time>2017-05-20T10:38:00Z</time>
      </trkpt>
      <trkpt lat="44.87137" lon="5.36307">
        <ele>1129.21</ele>
        <time>2017-05-20T10:38:16Z</time>
      </trkpt>
      <trkpt lat="44.87109" lon="5.36256">
        <ele>1130.65</ele>
        <time>2017-05-20T10:38:28Z</time>
      </trkpt>
      <trkpt lat="44.87075" lon="5.362">
        <ele>1132.57</ele>
        <time>2017-05-20T10:38:42Z</time>
      </trkpt>
      <trkpt lat="44.87036" lon="5.36145">
        <ele>1135.45</ele>
        <time>2017-05-20T10:38:57Z</time>
      </trkpt>
      <trkpt lat="44.86993" lon="5.36089">
        <ele>1137.38</ele>
        <time>2017-05-20T10:39:13Z</time>
      </trkpt>
      <trkpt lat="44.86948" lon="5.36027">
        <ele>1138.34</ele>
        <time>2017-05-20T10:39:30Z</time>
      </trkpt>
      <trkpt lat="44.86903" lon="5.35954">
        <ele>1139.3</ele>
        <time>2017-05-20T10:39:48Z</time>
      </trkpt>
      <trkpt lat="44.86874" lon="5.35875">
        <ele>1140.74</ele>
        <time>2017-05-20T10:40:04Z</time>
      </trkpt>
      <trkpt lat="44.86833" lon="5.35788">
        <ele>1142.18</ele>
        <time>2017-05-20T10:40:22Z</time>
      </trkpt>
      <trkpt lat="44.8682" lon="5.35773">
        <ele>1143.14</ele>
        <time>2017-05-20T10:40:26Z</time>
      </trkpt>
      <trkpt lat="44.86776" lon="5.35761">
        <ele>1145.55</ele>
        <time>2017-05-20T10:40:39Z</time>
      </trkpt>
      <trkpt lat="44.86763" lon="5.35759">
        <ele>1146.99</ele>
        <time>2017-05-20T10:40:44Z</time>
      </trkpt>
      <trkpt lat="44.8676" lon="5.35759">
        <ele>1146.99</ele>
        <time>2017-05-20T10:40:45Z</time>
      </trkpt>
      <trkpt lat="44.86757" lon="5.35759">
        <ele>1147.47</ele>
        <time>2017-05-20T10:40:46Z</time>
      </trkpt>
      <trkpt lat="44.86755" lon="5.35759">
        <ele>1147.95</ele>
        <time>2017-05-20T10:40:47Z</time>
      </trkpt>
      <trkpt lat="44.86752" lon="5.3576">
        <ele>1147.95</ele>
        <time>2017-05-20T10:40:48Z</time>
      </trkpt>
      <trkpt lat="44.86749" lon="5.3576">
        <ele>1147.95</ele>
        <time>2017-05-20T10:40:49Z</time>
      </trkpt>
      <trkpt lat="44.86747" lon="5.35759">
        <ele>1147.95</ele>
        <time>2017-05-20T10:40:50Z</time>
      </trkpt>
      <trkpt lat="44.86744" lon="5.35759">
        <ele>1148.43</ele>
        <time>2017-05-20T10:40:51Z</time>
      </trkpt>
      <trkpt lat="44.86742" lon="5.35758">
        <ele>1148.43</ele>
        <time>2017-05-20T10:40:52Z</time>
      </trkpt>
      <trkpt lat="44.86739" lon="5.35758">
        <ele>1148.91</ele>
        <time>2017-05-20T10:40:53Z</time>
      </trkpt>
      <trkpt lat="44.86737" lon="5.35757">
        <ele>1148.91</ele>
        <time>2017-05-20T10:40:54Z</time>
      </trkpt>
      <trkpt lat="44.86734" lon="5.35757">
        <ele>1149.39</ele>
        <time>2017-05-20T10:40:55Z</time>
      </trkpt>
      <trkpt lat="44.86732" lon="5.35757">
        <ele>1149.39</ele>
        <time>2017-05-20T10:40:56Z</time>
      </trkpt>
      <trkpt lat="44.86729" lon="5.35757">
        <ele>1149.39</ele>
        <time>2017-05-20T10:40:57Z</time>
      </trkpt>
      <trkpt lat="44.86727" lon="5.35757">
        <ele>1149.87</ele>
        <time>2017-05-20T10:40:58Z</time>
      </trkpt>
      <trkpt lat="44.86688" lon="5.35752">
        <ele>1152.76</ele>
        <time>2017-05-20T10:41:14Z</time>
      </trkpt>
      <trkpt lat="44.86657" lon="5.35755">
        <ele>1155.16</ele>
        <time>2017-05-20T10:41:27Z</time>
      </trkpt>
      <trkpt lat="44.86627" lon="5.35754">
        <ele>1157.56</ele>
        <time>2017-05-20T10:41:40Z</time>
      </trkpt>
      <trkpt lat="44.86625" lon="5.35752">
        <ele>1158.05</ele>
        <time>2017-05-20T10:41:41Z</time>
      </trkpt>
      <trkpt lat="44.86623" lon="5.35751">
        <ele>1158.05</ele>
        <time>2017-05-20T10:41:42Z</time>
      </trkpt>
      <trkpt lat="44.86588" lon="5.35739">
        <ele>1160.93</ele>
        <time>2017-05-20T10:41:58Z</time>
      </trkpt>
      <trkpt lat="44.86569" lon="5.35744">
        <ele>1162.85</ele>
        <time>2017-05-20T10:42:12Z</time>
      </trkpt>
      <trkpt lat="44.86569" lon="5.35744">
        <ele>1162.85</ele>
        <time>2017-05-20T10:42:27Z</time>
      </trkpt>
      <trkpt lat="44.86569" lon="5.35744">
        <ele>1163.33</ele>
        <time>2017-05-20T10:42:47Z</time>
      </trkpt>
      <trkpt lat="44.86569" lon="5.35744">
        <ele>1163.33</ele>
        <time>2017-05-20T10:43:06Z</time>
      </trkpt>
      <trkpt lat="44.86569" lon="5.35744">
        <ele>1162.85</ele>
        <time>2017-05-20T10:43:29Z</time>
      </trkpt>
      <trkpt lat="44.86568" lon="5.35744">
        <ele>1162.85</ele>
        <time>2017-05-20T10:44:02Z</time>
      </trkpt>
      <trkpt lat="44.86568" lon="5.35744">
        <ele>1162.85</ele>
        <time>2017-05-20T10:44:27Z</time>
      </trkpt>
      <trkpt lat="44.86566" lon="5.35743">
        <ele>1162.37</ele>
        <time>2017-05-20T10:44:35Z</time>
      </trkpt>
      <trkpt lat="44.86564" lon="5.35743">
        <ele>1162.85</ele>
        <time>2017-05-20T10:44:36Z</time>
      </trkpt>
      <trkpt lat="44.86562" lon="5.35743">
        <ele>1162.85</ele>
        <time>2017-05-20T10:44:37Z</time>
      </trkpt>
      <trkpt lat="44.8656" lon="5.35743">
        <ele>1162.85</ele>
        <time>2017-05-20T10:44:38Z</time>
      </trkpt>
      <trkpt lat="44.86558" lon="5.35744">
        <ele>1162.85</ele>
        <time>2017-05-20T10:44:39Z</time>
      </trkpt>
      <trkpt lat="44.86556" lon="5.35744">
        <ele>1163.33</ele>
        <time>2017-05-20T10:44:40Z</time>
      </trkpt>
      <trkpt lat="44.86529" lon="5.35737">
        <ele>1165.74</ele>
        <time>2017-05-20T10:44:54Z</time>
      </trkpt>
      <trkpt lat="44.86521" lon="5.35734">
        <ele>1166.22</ele>
        <time>2017-05-20T10:44:59Z</time>
      </trkpt>
      <trkpt lat="44.8652" lon="5.35733">
        <ele>1166.7</ele>
        <time>2017-05-20T10:45:00Z</time>
      </trkpt>
      <trkpt lat="44.86518" lon="5.35733">
        <ele>1167.18</ele>
        <time>2017-05-20T10:45:01Z</time>
      </trkpt>
      <trkpt lat="44.86517" lon="5.35732">
        <ele>1167.18</ele>
        <time>2017-05-20T10:45:02Z</time>
      </trkpt>
      <trkpt lat="44.86515" lon="5.35732">
        <ele>1167.66</ele>
        <time>2017-05-20T10:45:03Z</time>
      </trkpt>
      <trkpt lat="44.86514" lon="5.35731">
        <ele>1167.66</ele>
        <time>2017-05-20T10:45:04Z</time>
      </trkpt>
      <trkpt lat="44.86512" lon="5.35731">
        <ele>1168.14</ele>
        <time>2017-05-20T10:45:05Z</time>
      </trkpt>
      <trkpt lat="44.86511" lon="5.35731">
        <ele>1167.66</ele>
        <time>2017-05-20T10:45:06Z</time>
      </trkpt>
      <trkpt lat="44.86509" lon="5.3573">
        <ele>1168.14</ele>
        <time>2017-05-20T10:45:07Z</time>
      </trkpt>
      <trkpt lat="44.86508" lon="5.3573">
        <ele>1168.62</ele>
        <time>2017-05-20T10:45:08Z</time>
      </trkpt>
      <trkpt lat="44.86506" lon="5.3573">
        <ele>1168.62</ele>
        <time>2017-05-20T10:45:09Z</time>
      </trkpt>
      <trkpt lat="44.86505" lon="5.35729">
        <ele>1169.1</ele>
        <time>2017-05-20T10:45:10Z</time>
      </trkpt>
      <trkpt lat="44.86503" lon="5.35729">
        <ele>1169.1</ele>
        <time>2017-05-20T10:45:11Z</time>
      </trkpt>
      <trkpt lat="44.86502" lon="5.35729">
        <ele>1169.1</ele>
        <time>2017-05-20T10:45:12Z</time>
      </trkpt>
      <trkpt lat="44.86501" lon="5.35729">
        <ele>1169.1</ele>
        <time>2017-05-20T10:45:13Z</time>
      </trkpt>
      <trkpt lat="44.86497" lon="5.35729">
        <ele>1170.06</ele>
        <time>2017-05-20T10:45:16Z</time>
      </trkpt>
      <trkpt lat="44.86496" lon="5.3573">
        <ele>1170.06</ele>
        <time>2017-05-20T10:45:17Z</time>
      </trkpt>
      <trkpt lat="44.86495" lon="5.35729">
        <ele>1170.54</ele>
        <time>2017-05-20T10:45:18Z</time>
      </trkpt>
      <trkpt lat="44.86493" lon="5.35729">
        <ele>1170.54</ele>
        <time>2017-05-20T10:45:19Z</time>
      </trkpt>
      <trkpt lat="44.86492" lon="5.3573">
        <ele>1171.02</ele>
        <time>2017-05-20T10:45:20Z</time>
      </trkpt>
      <trkpt lat="44.86491" lon="5.35729">
        <ele>1171.02</ele>
        <time>2017-05-20T10:45:21Z</time>
      </trkpt>
      <trkpt lat="44.8649" lon="5.35729">
        <ele>1171.5</ele>
        <time>2017-05-20T10:45:22Z</time>
      </trkpt>
      <trkpt lat="44.86485" lon="5.35728">
        <ele>1171.98</ele>
        <time>2017-05-20T10:45:25Z</time>
      </trkpt>
      <trkpt lat="44.86483" lon="5.35728">
        <ele>1171.98</ele>
        <time>2017-05-20T10:45:26Z</time>
      </trkpt>
      <trkpt lat="44.86481" lon="5.35728">
        <ele>1171.98</ele>
        <time>2017-05-20T10:45:27Z</time>
      </trkpt>
      <trkpt lat="44.8648" lon="5.35728">
        <ele>1171.98</ele>
        <time>2017-05-20T10:45:28Z</time>
      </trkpt>
      <trkpt lat="44.86478" lon="5.35727">
        <ele>1172.47</ele>
        <time>2017-05-20T10:45:29Z</time>
      </trkpt>
      <trkpt lat="44.86463" lon="5.35723">
        <ele>1174.39</ele>
        <time>2017-05-20T10:45:37Z</time>
      </trkpt>
      <trkpt lat="44.86461" lon="5.35722">
        <ele>1174.39</ele>
        <time>2017-05-20T10:45:38Z</time>
      </trkpt>
      <trkpt lat="44.8646" lon="5.35722">
        <ele>1174.39</ele>
        <time>2017-05-20T10:45:39Z</time>
      </trkpt>
      <trkpt lat="44.86434" lon="5.35719">
        <ele>1177.75</ele>
        <time>2017-05-20T10:45:55Z</time>
      </trkpt>
      <trkpt lat="44.86413" lon="5.35711">
        <ele>1180.64</ele>
        <time>2017-05-20T10:46:08Z</time>
      </trkpt>
      <trkpt lat="44.86405" lon="5.35708">
        <ele>1181.6</ele>
        <time>2017-05-20T10:46:14Z</time>
      </trkpt>
      <trkpt lat="44.86404" lon="5.35708">
        <ele>1182.08</ele>
        <time>2017-05-20T10:46:15Z</time>
      </trkpt>
      <trkpt lat="44.86402" lon="5.35707">
        <ele>1182.08</ele>
        <time>2017-05-20T10:46:16Z</time>
      </trkpt>
      <trkpt lat="44.864" lon="5.35707">
        <ele>1182.08</ele>
        <time>2017-05-20T10:46:17Z</time>
      </trkpt>
      <trkpt lat="44.86398" lon="5.35706">
        <ele>1182.56</ele>
        <time>2017-05-20T10:46:18Z</time>
      </trkpt>
      <trkpt lat="44.86397" lon="5.35706">
        <ele>1182.56</ele>
        <time>2017-05-20T10:46:19Z</time>
      </trkpt>
      <trkpt lat="44.86391" lon="5.35704">
        <ele>1183.52</ele>
        <time>2017-05-20T10:46:23Z</time>
      </trkpt>
      <trkpt lat="44.8639" lon="5.35704">
        <ele>1184</ele>
        <time>2017-05-20T10:46:24Z</time>
      </trkpt>
      <trkpt lat="44.86374" lon="5.35699">
        <ele>1186.4</ele>
        <time>2017-05-20T10:46:34Z</time>
      </trkpt>
      <trkpt lat="44.86373" lon="5.35698">
        <ele>1186.4</ele>
        <time>2017-05-20T10:46:35Z</time>
      </trkpt>
      <trkpt lat="44.86353" lon="5.35689">
        <ele>1189.77</ele>
        <time>2017-05-20T10:46:49Z</time>
      </trkpt>
      <trkpt lat="44.8634" lon="5.35678">
        <ele>1191.69</ele>
        <time>2017-05-20T10:46:59Z</time>
      </trkpt>
      <trkpt lat="44.86338" lon="5.35678">
        <ele>1191.69</ele>
        <time>2017-05-20T10:47:00Z</time>
      </trkpt>
      <trkpt lat="44.86337" lon="5.35676">
        <ele>1192.17</ele>
        <time>2017-05-20T10:47:01Z</time>
      </trkpt>
      <trkpt lat="44.86336" lon="5.35674">
        <ele>1192.17</ele>
        <time>2017-05-20T10:47:02Z</time>
      </trkpt>
      <trkpt lat="44.86335" lon="5.35673">
        <ele>1192.17</ele>
        <time>2017-05-20T10:47:03Z</time>
      </trkpt>
      <trkpt lat="44.86334" lon="5.35672">
        <ele>1192.17</ele>
        <time>2017-05-20T10:47:04Z</time>
      </trkpt>
      <trkpt lat="44.86331" lon="5.35671">
        <ele>1193.13</ele>
        <time>2017-05-20T10:47:06Z</time>
      </trkpt>
      <trkpt lat="44.86315" lon="5.35656">
        <ele>1195.54</ele>
        <time>2017-05-20T10:47:21Z</time>
      </trkpt>
      <trkpt lat="44.86297" lon="5.35639">
        <ele>1198.42</ele>
        <time>2017-05-20T10:47:37Z</time>
      </trkpt>
      <trkpt lat="44.86281" lon="5.3562">
        <ele>1201.3</ele>
        <time>2017-05-20T10:47:53Z</time>
      </trkpt>
      <trkpt lat="44.86265" lon="5.35601">
        <ele>1204.19</ele>
        <time>2017-05-20T10:48:08Z</time>
      </trkpt>
      <trkpt lat="44.86259" lon="5.35593">
        <ele>1205.63</ele>
        <time>2017-05-20T10:48:16Z</time>
      </trkpt>
      <trkpt lat="44.86258" lon="5.35592">
        <ele>1206.11</ele>
        <time>2017-05-20T10:48:17Z</time>
      </trkpt>
      <trkpt lat="44.86255" lon="5.35589">
        <ele>1206.11</ele>
        <time>2017-05-20T10:48:20Z</time>
      </trkpt>
      <trkpt lat="44.86248" lon="5.35579">
        <ele>1208.03</ele>
        <time>2017-05-20T10:48:29Z</time>
      </trkpt>
      <trkpt lat="44.86234" lon="5.35565">
        <ele>1210.44</ele>
        <time>2017-05-20T10:48:41Z</time>
      </trkpt>
      <trkpt lat="44.86226" lon="5.35558">
        <ele>1211.4</ele>
        <time>2017-05-20T10:48:47Z</time>
      </trkpt>
      <trkpt lat="44.86224" lon="5.35555">
        <ele>1211.88</ele>
        <time>2017-05-20T10:48:50Z</time>
      </trkpt>
      <trkpt lat="44.86222" lon="5.35554">
        <ele>1212.36</ele>
        <time>2017-05-20T10:48:51Z</time>
      </trkpt>
      <trkpt lat="44.86204" lon="5.35539">
        <ele>1215.24</ele>
        <time>2017-05-20T10:49:05Z</time>
      </trkpt>
      <trkpt lat="44.86191" lon="5.35532">
        <ele>1217.65</ele>
        <time>2017-05-20T10:49:18Z</time>
      </trkpt>
      <trkpt lat="44.86189" lon="5.35531">
        <ele>1217.65</ele>
        <time>2017-05-20T10:49:19Z</time>
      </trkpt>
      <trkpt lat="44.86187" lon="5.3553">
        <ele>1218.13</ele>
        <time>2017-05-20T10:49:20Z</time>
      </trkpt>
      <trkpt lat="44.86185" lon="5.35529">
        <ele>1218.13</ele>
        <time>2017-05-20T10:49:21Z</time>
      </trkpt>
      <trkpt lat="44.86172" lon="5.35519">
        <ele>1220.05</ele>
        <time>2017-05-20T10:49:31Z</time>
      </trkpt>
      <trkpt lat="44.86169" lon="5.35517">
        <ele>1221.49</ele>
        <time>2017-05-20T10:49:35Z</time>
      </trkpt>
      <trkpt lat="44.86168" lon="5.35516">
        <ele>1221.01</ele>
        <time>2017-05-20T10:49:36Z</time>
      </trkpt>
      <trkpt lat="44.86166" lon="5.35515">
        <ele>1221.49</ele>
        <time>2017-05-20T10:49:37Z</time>
      </trkpt>
      <trkpt lat="44.86165" lon="5.35515">
        <ele>1221.49</ele>
        <time>2017-05-20T10:49:38Z</time>
      </trkpt>
      <trkpt lat="44.86153" lon="5.3551">
        <ele>1222.93</ele>
        <time>2017-05-20T10:49:47Z</time>
      </trkpt>
      <trkpt lat="44.86151" lon="5.35508">
        <ele>1223.42</ele>
        <time>2017-05-20T10:49:49Z</time>
      </trkpt>
      <trkpt lat="44.8614" lon="5.35504">
        <ele>1224.86</ele>
        <time>2017-05-20T10:49:58Z</time>
      </trkpt>
      <trkpt lat="44.86131" lon="5.35502">
        <ele>1225.82</ele>
        <time>2017-05-20T10:50:09Z</time>
      </trkpt>
      <trkpt lat="44.86131" lon="5.35502">
        <ele>1226.3</ele>
        <time>2017-05-20T10:50:29Z</time>
      </trkpt>
      <trkpt lat="44.86131" lon="5.35502">
        <ele>1225.82</ele>
        <time>2017-05-20T10:50:47Z</time>
      </trkpt>
      <trkpt lat="44.86131" lon="5.35502">
        <ele>1225.82</ele>
        <time>2017-05-20T10:51:04Z</time>
      </trkpt>
      <trkpt lat="44.86131" lon="5.35502">
        <ele>1226.3</ele>
        <time>2017-05-20T10:51:30Z</time>
      </trkpt>
      <trkpt lat="44.86131" lon="5.35502">
        <ele>1225.82</ele>
        <time>2017-05-20T10:51:49Z</time>
      </trkpt>
      <trkpt lat="44.86131" lon="5.35502">
        <ele>1225.82</ele>
        <time>2017-05-20T10:52:00Z</time>
      </trkpt>
      <trkpt lat="44.8613" lon="5.35501">
        <ele>1225.82</ele>
        <time>2017-05-20T10:52:01Z</time>
      </trkpt>
      <trkpt lat="44.86128" lon="5.35501">
        <ele>1226.3</ele>
        <time>2017-05-20T10:52:02Z</time>
      </trkpt>
      <trkpt lat="44.86124" lon="5.35501">
        <ele>1226.78</ele>
        <time>2017-05-20T10:52:05Z</time>
      </trkpt>
      <trkpt lat="44.86123" lon="5.355">
        <ele>1226.78</ele>
        <time>2017-05-20T10:52:06Z</time>
      </trkpt>
      <trkpt lat="44.86121" lon="5.35499">
        <ele>1227.26</ele>
        <time>2017-05-20T10:52:07Z</time>
      </trkpt>
      <trkpt lat="44.86119" lon="5.35499">
        <ele>1227.26</ele>
        <time>2017-05-20T10:52:08Z</time>
      </trkpt>
      <trkpt lat="44.86117" lon="5.35499">
        <ele>1227.74</ele>
        <time>2017-05-20T10:52:09Z</time>
      </trkpt>
      <trkpt lat="44.86115" lon="5.35499">
        <ele>1227.74</ele>
        <time>2017-05-20T10:52:10Z</time>
      </trkpt>
      <trkpt lat="44.86114" lon="5.35498">
        <ele>1228.22</ele>
        <time>2017-05-20T10:52:11Z</time>
      </trkpt>
      <trkpt lat="44.86113" lon="5.35498">
        <ele>1228.22</ele>
        <time>2017-05-20T10:52:12Z</time>
      </trkpt>
      <trkpt lat="44.8611" lon="5.35495">
        <ele>1228.7</ele>
        <time>2017-05-20T10:52:14Z</time>
      </trkpt>
      <trkpt lat="44.86109" lon="5.35495">
        <ele>1228.7</ele>
        <time>2017-05-20T10:52:15Z</time>
      </trkpt>
      <trkpt lat="44.86107" lon="5.35495">
        <ele>1229.18</ele>
        <time>2017-05-20T10:52:16Z</time>
      </trkpt>
      <trkpt lat="44.86105" lon="5.35495">
        <ele>1229.18</ele>
        <time>2017-05-20T10:52:17Z</time>
      </trkpt>
      <trkpt lat="44.86104" lon="5.35494">
        <ele>1229.66</ele>
        <time>2017-05-20T10:52:18Z</time>
      </trkpt>
      <trkpt lat="44.86083" lon="5.35489">
        <ele>1231.59</ele>
        <time>2017-05-20T10:52:31Z</time>
      </trkpt>
      <trkpt lat="44.86076" lon="5.35486">
        <ele>1233.03</ele>
        <time>2017-05-20T10:52:36Z</time>
      </trkpt>
      <trkpt lat="44.86074" lon="5.35485">
        <ele>1233.03</ele>
        <time>2017-05-20T10:52:37Z</time>
      </trkpt>
      <trkpt lat="44.86073" lon="5.35485">
        <ele>1233.51</ele>
        <time>2017-05-20T10:52:38Z</time>
      </trkpt>
      <trkpt lat="44.86071" lon="5.35484">
        <ele>1233.51</ele>
        <time>2017-05-20T10:52:39Z</time>
      </trkpt>
      <trkpt lat="44.86061" lon="5.3548">
        <ele>1234.95</ele>
        <time>2017-05-20T10:52:45Z</time>
      </trkpt>
      <trkpt lat="44.86059" lon="5.35479">
        <ele>1234.95</ele>
        <time>2017-05-20T10:52:46Z</time>
      </trkpt>
      <trkpt lat="44.86057" lon="5.35479">
        <ele>1235.43</ele>
        <time>2017-05-20T10:52:47Z</time>
      </trkpt>
      <trkpt lat="44.86056" lon="5.35479">
        <ele>1235.91</ele>
        <time>2017-05-20T10:52:48Z</time>
      </trkpt>
      <trkpt lat="44.86054" lon="5.35478">
        <ele>1235.91</ele>
        <time>2017-05-20T10:52:49Z</time>
      </trkpt>
      <trkpt lat="44.86052" lon="5.35478">
        <ele>1235.91</ele>
        <time>2017-05-20T10:52:50Z</time>
      </trkpt>
      <trkpt lat="44.8605" lon="5.35478">
        <ele>1236.39</ele>
        <time>2017-05-20T10:52:51Z</time>
      </trkpt>
      <trkpt lat="44.86048" lon="5.35478">
        <ele>1236.39</ele>
        <time>2017-05-20T10:52:52Z</time>
      </trkpt>
      <trkpt lat="44.86047" lon="5.35478">
        <ele>1236.87</ele>
        <time>2017-05-20T10:52:53Z</time>
      </trkpt>
      <trkpt lat="44.86045" lon="5.35478">
        <ele>1236.87</ele>
        <time>2017-05-20T10:52:54Z</time>
      </trkpt>
      <trkpt lat="44.86043" lon="5.35477">
        <ele>1237.35</ele>
        <time>2017-05-20T10:52:55Z</time>
      </trkpt>
      <trkpt lat="44.86042" lon="5.35477">
        <ele>1237.35</ele>
        <time>2017-05-20T10:52:56Z</time>
      </trkpt>
      <trkpt lat="44.8604" lon="5.35477">
        <ele>1237.35</ele>
        <time>2017-05-20T10:52:57Z</time>
      </trkpt>
      <trkpt lat="44.86039" lon="5.35476">
        <ele>1237.83</ele>
        <time>2017-05-20T10:52:58Z</time>
      </trkpt>
      <trkpt lat="44.86038" lon="5.35476">
        <ele>1238.32</ele>
        <time>2017-05-20T10:52:59Z</time>
      </trkpt>
      <trkpt lat="44.86036" lon="5.35476">
        <ele>1238.32</ele>
        <time>2017-05-20T10:53:00Z</time>
      </trkpt>
      <trkpt lat="44.86035" lon="5.35476">
        <ele>1238.8</ele>
        <time>2017-05-20T10:53:01Z</time>
      </trkpt>
      <trkpt lat="44.86034" lon="5.35476">
        <ele>1238.8</ele>
        <time>2017-05-20T10:53:02Z</time>
      </trkpt>
      <trkpt lat="44.86032" lon="5.35476">
        <ele>1239.28</ele>
        <time>2017-05-20T10:53:03Z</time>
      </trkpt>
      <trkpt lat="44.86031" lon="5.35476">
        <ele>1239.76</ele>
        <time>2017-05-20T10:53:04Z</time>
      </trkpt>
      <trkpt lat="44.86012" lon="5.35482">
        <ele>1242.16</ele>
        <time>2017-05-20T10:53:16Z</time>
      </trkpt>
      <trkpt lat="44.8601" lon="5.35482">
        <ele>1242.64</ele>
        <time>2017-05-20T10:53:17Z</time>
      </trkpt>
      <trkpt lat="44.86009" lon="5.35483">
        <ele>1242.64</ele>
        <time>2017-05-20T10:53:18Z</time>
      </trkpt>
      <trkpt lat="44.86008" lon="5.35483">
        <ele>1242.64</ele>
        <time>2017-05-20T10:53:19Z</time>
      </trkpt>
      <trkpt lat="44.86006" lon="5.35483">
        <ele>1243.12</ele>
        <time>2017-05-20T10:53:20Z</time>
      </trkpt>
      <trkpt lat="44.86005" lon="5.35483">
        <ele>1243.12</ele>
        <time>2017-05-20T10:53:21Z</time>
      </trkpt>
      <trkpt lat="44.86003" lon="5.35483">
        <ele>1243.6</ele>
        <time>2017-05-20T10:53:22Z</time>
      </trkpt>
      <trkpt lat="44.85999" lon="5.35484">
        <ele>1243.6</ele>
        <time>2017-05-20T10:53:25Z</time>
      </trkpt>
      <trkpt lat="44.85985" lon="5.35488">
        <ele>1245.04</ele>
        <time>2017-05-20T10:53:35Z</time>
      </trkpt>
      <trkpt lat="44.85984" lon="5.35489">
        <ele>1245.04</ele>
        <time>2017-05-20T10:53:36Z</time>
      </trkpt>
      <trkpt lat="44.85982" lon="5.35489">
        <ele>1245.04</ele>
        <time>2017-05-20T10:53:37Z</time>
      </trkpt>
      <trkpt lat="44.85981" lon="5.35489">
        <ele>1245.53</ele>
        <time>2017-05-20T10:53:38Z</time>
      </trkpt>
      <trkpt lat="44.8598" lon="5.3549">
        <ele>1245.53</ele>
        <time>2017-05-20T10:53:39Z</time>
      </trkpt>
      <trkpt lat="44.85979" lon="5.3549">
        <ele>1245.53</ele>
        <time>2017-05-20T10:53:40Z</time>
      </trkpt>
      <trkpt lat="44.85961" lon="5.35487">
        <ele>1247.45</ele>
        <time>2017-05-20T10:53:53Z</time>
      </trkpt>
      <trkpt lat="44.85944" lon="5.35492">
        <ele>1248.89</ele>
        <time>2017-05-20T10:54:05Z</time>
      </trkpt>
      <trkpt lat="44.85943" lon="5.35493">
        <ele>1248.89</ele>
        <time>2017-05-20T10:54:06Z</time>
      </trkpt>
      <trkpt lat="44.85941" lon="5.35493">
        <ele>1248.89</ele>
        <time>2017-05-20T10:54:07Z</time>
      </trkpt>
      <trkpt lat="44.8594" lon="5.35493">
        <ele>1248.89</ele>
        <time>2017-05-20T10:54:08Z</time>
      </trkpt>
      <trkpt lat="44.85939" lon="5.35494">
        <ele>1248.89</ele>
        <time>2017-05-20T10:54:09Z</time>
      </trkpt>
      <trkpt lat="44.85937" lon="5.35494">
        <ele>1248.89</ele>
        <time>2017-05-20T10:54:10Z</time>
      </trkpt>
      <trkpt lat="44.85935" lon="5.35493">
        <ele>1248.89</ele>
        <time>2017-05-20T10:54:11Z</time>
      </trkpt>
      <trkpt lat="44.85933" lon="5.35494">
        <ele>1249.37</ele>
        <time>2017-05-20T10:54:12Z</time>
      </trkpt>
      <trkpt lat="44.85931" lon="5.35495">
        <ele>1249.37</ele>
        <time>2017-05-20T10:54:13Z</time>
      </trkpt>
      <trkpt lat="44.85925" lon="5.35494">
        <ele>1249.85</ele>
        <time>2017-05-20T10:54:19Z</time>
      </trkpt>
      <trkpt lat="44.85924" lon="5.35494">
        <ele>1250.33</ele>
        <time>2017-05-20T10:54:20Z</time>
      </trkpt>
      <trkpt lat="44.85922" lon="5.35493">
        <ele>1250.33</ele>
        <time>2017-05-20T10:54:21Z</time>
      </trkpt>
      <trkpt lat="44.8592" lon="5.35493">
        <ele>1250.33</ele>
        <time>2017-05-20T10:54:22Z</time>
      </trkpt>
      <trkpt lat="44.85917" lon="5.3549">
        <ele>1250.81</ele>
        <time>2017-05-20T10:54:25Z</time>
      </trkpt>
      <trkpt lat="44.85916" lon="5.35488">
        <ele>1250.81</ele>
        <time>2017-05-20T10:54:26Z</time>
      </trkpt>
      <trkpt lat="44.85909" lon="5.35479">
        <ele>1251.77</ele>
        <time>2017-05-20T10:54:33Z</time>
      </trkpt>
      <trkpt lat="44.85907" lon="5.35476">
        <ele>1251.77</ele>
        <time>2017-05-20T10:54:35Z</time>
      </trkpt>
      <trkpt lat="44.85906" lon="5.35475">
        <ele>1251.77</ele>
        <time>2017-05-20T10:54:36Z</time>
      </trkpt>
      <trkpt lat="44.85904" lon="5.35471">
        <ele>1252.25</ele>
        <time>2017-05-20T10:54:38Z</time>
      </trkpt>
      <trkpt lat="44.859" lon="5.35462">
        <ele>1252.74</ele>
        <time>2017-05-20T10:54:41Z</time>
      </trkpt>
      <trkpt lat="44.85893" lon="5.35447">
        <ele>1253.7</ele>
        <time>2017-05-20T10:54:47Z</time>
      </trkpt>
      <trkpt lat="44.85892" lon="5.35444">
        <ele>1253.7</ele>
        <time>2017-05-20T10:54:48Z</time>
      </trkpt>
      <trkpt lat="44.85891" lon="5.35442">
        <ele>1253.7</ele>
        <time>2017-05-20T10:54:49Z</time>
      </trkpt>
      <trkpt lat="44.85891" lon="5.3544">
        <ele>1253.7</ele>
        <time>2017-05-20T10:54:50Z</time>
      </trkpt>
      <trkpt lat="44.8589" lon="5.35437">
        <ele>1253.7</ele>
        <time>2017-05-20T10:54:51Z</time>
      </trkpt>
      <trkpt lat="44.8589" lon="5.35435">
        <ele>1254.18</ele>
        <time>2017-05-20T10:54:52Z</time>
      </trkpt>
      <trkpt lat="44.8589" lon="5.35433">
        <ele>1254.18</ele>
        <time>2017-05-20T10:54:53Z</time>
      </trkpt>
      <trkpt lat="44.85889" lon="5.3543">
        <ele>1254.66</ele>
        <time>2017-05-20T10:54:54Z</time>
      </trkpt>
      <trkpt lat="44.85889" lon="5.35428">
        <ele>1254.66</ele>
        <time>2017-05-20T10:54:55Z</time>
      </trkpt>
      <trkpt lat="44.85888" lon="5.35426">
        <ele>1255.14</ele>
        <time>2017-05-20T10:54:56Z</time>
      </trkpt>
      <trkpt lat="44.85888" lon="5.35423">
        <ele>1255.14</ele>
        <time>2017-05-20T10:54:57Z</time>
      </trkpt>
      <trkpt lat="44.85888" lon="5.35421">
        <ele>1255.14</ele>
        <time>2017-05-20T10:54:58Z</time>
      </trkpt>
      <trkpt lat="44.85889" lon="5.35419">
        <ele>1255.62</ele>
        <time>2017-05-20T10:54:59Z</time>
      </trkpt>
      <trkpt lat="44.85889" lon="5.35417">
        <ele>1255.62</ele>
        <time>2017-05-20T10:55:00Z</time>
      </trkpt>
      <trkpt lat="44.85889" lon="5.35414">
        <ele>1255.62</ele>
        <time>2017-05-20T10:55:01Z</time>
      </trkpt>
      <trkpt lat="44.8589" lon="5.35412">
        <ele>1255.62</ele>
        <time>2017-05-20T10:55:02Z</time>
      </trkpt>
      <trkpt lat="44.8589" lon="5.3541">
        <ele>1256.1</ele>
        <time>2017-05-20T10:55:03Z</time>
      </trkpt>
      <trkpt lat="44.8589" lon="5.35408">
        <ele>1256.1</ele>
        <time>2017-05-20T10:55:04Z</time>
      </trkpt>
      <trkpt lat="44.85891" lon="5.35406">
        <ele>1256.1</ele>
        <time>2017-05-20T10:55:05Z</time>
      </trkpt>
      <trkpt lat="44.85891" lon="5.35404">
        <ele>1256.1</ele>
        <time>2017-05-20T10:55:06Z</time>
      </trkpt>
      <trkpt lat="44.85891" lon="5.35402">
        <ele>1256.58</ele>
        <time>2017-05-20T10:55:07Z</time>
      </trkpt>
      <trkpt lat="44.85892" lon="5.354">
        <ele>1256.58</ele>
        <time>2017-05-20T10:55:08Z</time>
      </trkpt>
      <trkpt lat="44.85891" lon="5.35364">
        <ele>1257.06</ele>
        <time>2017-05-20T10:55:21Z</time>
      </trkpt>
      <trkpt lat="44.85887" lon="5.35336">
        <ele>1257.54</ele>
        <time>2017-05-20T10:55:31Z</time>
      </trkpt>
      <trkpt lat="44.85886" lon="5.35334">
        <ele>1258.02</ele>
        <time>2017-05-20T10:55:32Z</time>
      </trkpt>
      <trkpt lat="44.85882" lon="5.35314">
        <ele>1258.98</ele>
        <time>2017-05-20T10:55:41Z</time>
      </trkpt>
      <trkpt lat="44.85881" lon="5.35311">
        <ele>1258.98</ele>
        <time>2017-05-20T10:55:42Z</time>
      </trkpt>
      <trkpt lat="44.85881" lon="5.35308">
        <ele>1259.46</ele>
        <time>2017-05-20T10:55:45Z</time>
      </trkpt>
      <trkpt lat="44.8588" lon="5.35302">
        <ele>1259.94</ele>
        <time>2017-05-20T10:55:49Z</time>
      </trkpt>
      <trkpt lat="44.85879" lon="5.353">
        <ele>1259.94</ele>
        <time>2017-05-20T10:55:50Z</time>
      </trkpt>
      <trkpt lat="44.85877" lon="5.35296">
        <ele>1260.43</ele>
        <time>2017-05-20T10:55:52Z</time>
      </trkpt>
      <trkpt lat="44.85876" lon="5.35294">
        <ele>1260.43</ele>
        <time>2017-05-20T10:55:53Z</time>
      </trkpt>
      <trkpt lat="44.85868" lon="5.35261">
        <ele>1261.87</ele>
        <time>2017-05-20T10:56:05Z</time>
      </trkpt>
      <trkpt lat="44.85868" lon="5.35247">
        <ele>1261.87</ele>
        <time>2017-05-20T10:56:10Z</time>
      </trkpt>
      <trkpt lat="44.85868" lon="5.35244">
        <ele>1261.87</ele>
        <time>2017-05-20T10:56:11Z</time>
      </trkpt>
      <trkpt lat="44.85868" lon="5.35241">
        <ele>1262.35</ele>
        <time>2017-05-20T10:56:12Z</time>
      </trkpt>
      <trkpt lat="44.85867" lon="5.35239">
        <ele>1262.35</ele>
        <time>2017-05-20T10:56:13Z</time>
      </trkpt>
      <trkpt lat="44.85867" lon="5.35236">
        <ele>1262.35</ele>
        <time>2017-05-20T10:56:14Z</time>
      </trkpt>
      <trkpt lat="44.85867" lon="5.35233">
        <ele>1262.35</ele>
        <time>2017-05-20T10:56:15Z</time>
      </trkpt>
      <trkpt lat="44.85868" lon="5.35229">
        <ele>1262.35</ele>
        <time>2017-05-20T10:56:16Z</time>
      </trkpt>
      <trkpt lat="44.85868" lon="5.35226">
        <ele>1262.35</ele>
        <time>2017-05-20T10:56:17Z</time>
      </trkpt>
      <trkpt lat="44.85869" lon="5.35222">
        <ele>1262.35</ele>
        <time>2017-05-20T10:56:18Z</time>
      </trkpt>
      <trkpt lat="44.85869" lon="5.35217">
        <ele>1262.35</ele>
        <time>2017-05-20T10:56:19Z</time>
      </trkpt>
      <trkpt lat="44.85869" lon="5.35213">
        <ele>1261.87</ele>
        <time>2017-05-20T10:56:20Z</time>
      </trkpt>
      <trkpt lat="44.85869" lon="5.35208">
        <ele>1261.87</ele>
        <time>2017-05-20T10:56:21Z</time>
      </trkpt>
      <trkpt lat="44.8587" lon="5.35203">
        <ele>1261.87</ele>
        <time>2017-05-20T10:56:22Z</time>
      </trkpt>
      <trkpt lat="44.85871" lon="5.35198">
        <ele>1261.87</ele>
        <time>2017-05-20T10:56:23Z</time>
      </trkpt>
      <trkpt lat="44.85871" lon="5.35193">
        <ele>1261.87</ele>
        <time>2017-05-20T10:56:24Z</time>
      </trkpt>
      <trkpt lat="44.85873" lon="5.35184">
        <ele>1262.35</ele>
        <time>2017-05-20T10:56:26Z</time>
      </trkpt>
      <trkpt lat="44.85874" lon="5.3518">
        <ele>1262.83</ele>
        <time>2017-05-20T10:56:27Z</time>
      </trkpt>
      <trkpt lat="44.85874" lon="5.35176">
        <ele>1262.83</ele>
        <time>2017-05-20T10:56:28Z</time>
      </trkpt>
      <trkpt lat="44.85874" lon="5.35172">
        <ele>1263.31</ele>
        <time>2017-05-20T10:56:29Z</time>
      </trkpt>
      <trkpt lat="44.85873" lon="5.35169">
        <ele>1263.31</ele>
        <time>2017-05-20T10:56:30Z</time>
      </trkpt>
      <trkpt lat="44.85872" lon="5.35166">
        <ele>1263.79</ele>
        <time>2017-05-20T10:56:31Z</time>
      </trkpt>
      <trkpt lat="44.85872" lon="5.35163">
        <ele>1263.79</ele>
        <time>2017-05-20T10:56:32Z</time>
      </trkpt>
      <trkpt lat="44.85872" lon="5.3516">
        <ele>1264.27</ele>
        <time>2017-05-20T10:56:33Z</time>
      </trkpt>
      <trkpt lat="44.85873" lon="5.35156">
        <ele>1264.27</ele>
        <time>2017-05-20T10:56:34Z</time>
      </trkpt>
      <trkpt lat="44.85874" lon="5.35153">
        <ele>1264.27</ele>
        <time>2017-05-20T10:56:35Z</time>
      </trkpt>
      <trkpt lat="44.85875" lon="5.35151">
        <ele>1264.27</ele>
        <time>2017-05-20T10:56:36Z</time>
      </trkpt>
      <trkpt lat="44.85877" lon="5.35149">
        <ele>1264.75</ele>
        <time>2017-05-20T10:56:37Z</time>
      </trkpt>
      <trkpt lat="44.85878" lon="5.35147">
        <ele>1264.75</ele>
        <time>2017-05-20T10:56:38Z</time>
      </trkpt>
      <trkpt lat="44.85879" lon="5.35143">
        <ele>1265.23</ele>
        <time>2017-05-20T10:56:39Z</time>
      </trkpt>
      <trkpt lat="44.8588" lon="5.3514">
        <ele>1265.23</ele>
        <time>2017-05-20T10:56:40Z</time>
      </trkpt>
      <trkpt lat="44.85881" lon="5.35136">
        <ele>1265.23</ele>
        <time>2017-05-20T10:56:41Z</time>
      </trkpt>
      <trkpt lat="44.85883" lon="5.35134">
        <ele>1265.23</ele>
        <time>2017-05-20T10:56:42Z</time>
      </trkpt>
      <trkpt lat="44.85883" lon="5.35131">
        <ele>1265.71</ele>
        <time>2017-05-20T10:56:43Z</time>
      </trkpt>
      <trkpt lat="44.85884" lon="5.35128">
        <ele>1266.19</ele>
        <time>2017-05-20T10:56:44Z</time>
      </trkpt>
      <trkpt lat="44.85884" lon="5.35125">
        <ele>1265.71</ele>
        <time>2017-05-20T10:56:45Z</time>
      </trkpt>
      <trkpt lat="44.8589" lon="5.3511">
        <ele>1267.64</ele>
        <time>2017-05-20T10:56:52Z</time>
      </trkpt>
      <trkpt lat="44.85891" lon="5.35108">
        <ele>1267.64</ele>
        <time>2017-05-20T10:56:53Z</time>
      </trkpt>
      <trkpt lat="44.85892" lon="5.35106">
        <ele>1268.12</ele>
        <time>2017-05-20T10:56:54Z</time>
      </trkpt>
      <trkpt lat="44.85893" lon="5.35103">
        <ele>1268.12</ele>
        <time>2017-05-20T10:56:55Z</time>
      </trkpt>
      <trkpt lat="44.85895" lon="5.35101">
        <ele>1268.6</ele>
        <time>2017-05-20T10:56:56Z</time>
      </trkpt>
      <trkpt lat="44.85896" lon="5.35099">
        <ele>1268.6</ele>
        <time>2017-05-20T10:56:57Z</time>
      </trkpt>
      <trkpt lat="44.85908" lon="5.35077">
        <ele>1269.56</ele>
        <time>2017-05-20T10:57:07Z</time>
      </trkpt>
      <trkpt lat="44.8591" lon="5.35075">
        <ele>1270.04</ele>
        <time>2017-05-20T10:57:08Z</time>
      </trkpt>
      <trkpt lat="44.85911" lon="5.35074">
        <ele>1270.04</ele>
        <time>2017-05-20T10:57:09Z</time>
      </trkpt>
      <trkpt lat="44.85913" lon="5.35072">
        <ele>1270.52</ele>
        <time>2017-05-20T10:57:10Z</time>
      </trkpt>
      <trkpt lat="44.85914" lon="5.3507">
        <ele>1271</ele>
        <time>2017-05-20T10:57:11Z</time>
      </trkpt>
      <trkpt lat="44.85915" lon="5.35067">
        <ele>1271</ele>
        <time>2017-05-20T10:57:12Z</time>
      </trkpt>
      <trkpt lat="44.85917" lon="5.35065">
        <ele>1271</ele>
        <time>2017-05-20T10:57:13Z</time>
      </trkpt>
      <trkpt lat="44.85919" lon="5.35063">
        <ele>1271</ele>
        <time>2017-05-20T10:57:14Z</time>
      </trkpt>
      <trkpt lat="44.8592" lon="5.35061">
        <ele>1271.48</ele>
        <time>2017-05-20T10:57:15Z</time>
      </trkpt>
      <trkpt lat="44.85921" lon="5.35058">
        <ele>1271.48</ele>
        <time>2017-05-20T10:57:16Z</time>
      </trkpt>
      <trkpt lat="44.85922" lon="5.35056">
        <ele>1271.48</ele>
        <time>2017-05-20T10:57:17Z</time>
      </trkpt>
      <trkpt lat="44.85922" lon="5.35054">
        <ele>1271.96</ele>
        <time>2017-05-20T10:57:18Z</time>
      </trkpt>
      <trkpt lat="44.85923" lon="5.35052">
        <ele>1271.96</ele>
        <time>2017-05-20T10:57:19Z</time>
      </trkpt>
      <trkpt lat="44.85924" lon="5.3505">
        <ele>1271.96</ele>
        <time>2017-05-20T10:57:20Z</time>
      </trkpt>
      <trkpt lat="44.85926" lon="5.35048">
        <ele>1272.44</ele>
        <time>2017-05-20T10:57:21Z</time>
      </trkpt>
      <trkpt lat="44.85926" lon="5.35046">
        <ele>1272.44</ele>
        <time>2017-05-20T10:57:22Z</time>
      </trkpt>
      <trkpt lat="44.85927" lon="5.35043">
        <ele>1272.44</ele>
        <time>2017-05-20T10:57:23Z</time>
      </trkpt>
      <trkpt lat="44.85927" lon="5.35041">
        <ele>1272.92</ele>
        <time>2017-05-20T10:57:24Z</time>
      </trkpt>
      <trkpt lat="44.85928" lon="5.35039">
        <ele>1272.92</ele>
        <time>2017-05-20T10:57:25Z</time>
      </trkpt>
      <trkpt lat="44.8593" lon="5.35037">
        <ele>1272.92</ele>
        <time>2017-05-20T10:57:26Z</time>
      </trkpt>
      <trkpt lat="44.85941" lon="5.35014">
        <ele>1273.88</ele>
        <time>2017-05-20T10:57:37Z</time>
      </trkpt>
      <trkpt lat="44.85941" lon="5.35012">
        <ele>1273.88</ele>
        <time>2017-05-20T10:57:38Z</time>
      </trkpt>
      <trkpt lat="44.85941" lon="5.3501">
        <ele>1274.36</ele>
        <time>2017-05-20T10:57:39Z</time>
      </trkpt>
      <trkpt lat="44.85942" lon="5.35007">
        <ele>1274.36</ele>
        <time>2017-05-20T10:57:41Z</time>
      </trkpt>
      <trkpt lat="44.85943" lon="5.35005">
        <ele>1274.85</ele>
        <time>2017-05-20T10:57:42Z</time>
      </trkpt>
      <trkpt lat="44.85944" lon="5.35003">
        <ele>1274.85</ele>
        <time>2017-05-20T10:57:43Z</time>
      </trkpt>
      <trkpt lat="44.85945" lon="5.35001">
        <ele>1275.33</ele>
        <time>2017-05-20T10:57:44Z</time>
      </trkpt>
      <trkpt lat="44.85946" lon="5.35">
        <ele>1275.33</ele>
        <time>2017-05-20T10:57:45Z</time>
      </trkpt>
      <trkpt lat="44.85947" lon="5.34998">
        <ele>1275.33</ele>
        <time>2017-05-20T10:57:46Z</time>
      </trkpt>
      <trkpt lat="44.85948" lon="5.34997">
        <ele>1275.81</ele>
        <time>2017-05-20T10:57:47Z</time>
      </trkpt>
      <trkpt lat="44.85949" lon="5.34995">
        <ele>1276.29</ele>
        <time>2017-05-20T10:57:48Z</time>
      </trkpt>
      <trkpt lat="44.8595" lon="5.34993">
        <ele>1276.29</ele>
        <time>2017-05-20T10:57:49Z</time>
      </trkpt>
      <trkpt lat="44.85951" lon="5.34991">
        <ele>1276.77</ele>
        <time>2017-05-20T10:57:50Z</time>
      </trkpt>
      <trkpt lat="44.85952" lon="5.34989">
        <ele>1276.77</ele>
        <time>2017-05-20T10:57:51Z</time>
      </trkpt>
      <trkpt lat="44.85953" lon="5.34987">
        <ele>1276.77</ele>
        <time>2017-05-20T10:57:52Z</time>
      </trkpt>
      <trkpt lat="44.85955" lon="5.34986">
        <ele>1277.25</ele>
        <time>2017-05-20T10:57:53Z</time>
      </trkpt>
      <trkpt lat="44.85956" lon="5.34984">
        <ele>1277.25</ele>
        <time>2017-05-20T10:57:54Z</time>
      </trkpt>
      <trkpt lat="44.85957" lon="5.34983">
        <ele>1277.25</ele>
        <time>2017-05-20T10:57:55Z</time>
      </trkpt>
      <trkpt lat="44.85958" lon="5.34981">
        <ele>1277.73</ele>
        <time>2017-05-20T10:57:56Z</time>
      </trkpt>
      <trkpt lat="44.85959" lon="5.3498">
        <ele>1277.73</ele>
        <time>2017-05-20T10:57:57Z</time>
      </trkpt>
      <trkpt lat="44.85961" lon="5.34978">
        <ele>1277.73</ele>
        <time>2017-05-20T10:57:58Z</time>
      </trkpt>
      <trkpt lat="44.85962" lon="5.34976">
        <ele>1278.21</ele>
        <time>2017-05-20T10:57:59Z</time>
      </trkpt>
      <trkpt lat="44.85963" lon="5.34975">
        <ele>1278.21</ele>
        <time>2017-05-20T10:58:00Z</time>
      </trkpt>
      <trkpt lat="44.85963" lon="5.34972">
        <ele>1278.69</ele>
        <time>2017-05-20T10:58:01Z</time>
      </trkpt>
      <trkpt lat="44.85971" lon="5.34955">
        <ele>1280.61</ele>
        <time>2017-05-20T10:58:10Z</time>
      </trkpt>
      <trkpt lat="44.85972" lon="5.34953">
        <ele>1281.09</ele>
        <time>2017-05-20T10:58:11Z</time>
      </trkpt>
      <trkpt lat="44.85972" lon="5.34951">
        <ele>1281.09</ele>
        <time>2017-05-20T10:58:12Z</time>
      </trkpt>
      <trkpt lat="44.85973" lon="5.34949">
        <ele>1281.09</ele>
        <time>2017-05-20T10:58:13Z</time>
      </trkpt>
      <trkpt lat="44.85973" lon="5.34948">
        <ele>1281.57</ele>
        <time>2017-05-20T10:58:14Z</time>
      </trkpt>
      <trkpt lat="44.85974" lon="5.34946">
        <ele>1281.57</ele>
        <time>2017-05-20T10:58:15Z</time>
      </trkpt>
      <trkpt lat="44.85975" lon="5.34945">
        <ele>1282.06</ele>
        <time>2017-05-20T10:58:16Z</time>
      </trkpt>
      <trkpt lat="44.85976" lon="5.34944">
        <ele>1282.06</ele>
        <time>2017-05-20T10:58:17Z</time>
      </trkpt>
      <trkpt lat="44.85976" lon="5.34942">
        <ele>1282.54</ele>
        <time>2017-05-20T10:58:18Z</time>
      </trkpt>
      <trkpt lat="44.85977" lon="5.34941">
        <ele>1282.54</ele>
        <time>2017-05-20T10:58:19Z</time>
      </trkpt>
      <trkpt lat="44.85978" lon="5.34939">
        <ele>1282.54</ele>
        <time>2017-05-20T10:58:20Z</time>
      </trkpt>
      <trkpt lat="44.85978" lon="5.34937">
        <ele>1283.02</ele>
        <time>2017-05-20T10:58:21Z</time>
      </trkpt>
      <trkpt lat="44.85979" lon="5.34935">
        <ele>1283.02</ele>
        <time>2017-05-20T10:58:22Z</time>
      </trkpt>
      <trkpt lat="44.8598" lon="5.34934">
        <ele>1283.5</ele>
        <time>2017-05-20T10:58:23Z</time>
      </trkpt>
      <trkpt lat="44.85981" lon="5.34932">
        <ele>1283.5</ele>
        <time>2017-05-20T10:58:24Z</time>
      </trkpt>
      <trkpt lat="44.85981" lon="5.3493">
        <ele>1283.5</ele>
        <time>2017-05-20T10:58:25Z</time>
      </trkpt>
      <trkpt lat="44.85981" lon="5.34928">
        <ele>1284.46</ele>
        <time>2017-05-20T10:58:26Z</time>
      </trkpt>
      <trkpt lat="44.85983" lon="5.34926">
        <ele>1284.46</ele>
        <time>2017-05-20T10:58:28Z</time>
      </trkpt>
      <trkpt lat="44.85984" lon="5.34925">
        <ele>1284.46</ele>
        <time>2017-05-20T10:58:29Z</time>
      </trkpt>
      <trkpt lat="44.85998" lon="5.34912">
        <ele>1286.38</ele>
        <time>2017-05-20T10:58:41Z</time>
      </trkpt>
      <trkpt lat="44.86002" lon="5.34905">
        <ele>1287.82</ele>
        <time>2017-05-20T10:58:46Z</time>
      </trkpt>
      <trkpt lat="44.86003" lon="5.34903">
        <ele>1287.82</ele>
        <time>2017-05-20T10:58:47Z</time>
      </trkpt>
      <trkpt lat="44.86004" lon="5.34902">
        <ele>1287.82</ele>
        <time>2017-05-20T10:58:48Z</time>
      </trkpt>
      <trkpt lat="44.86014" lon="5.34893">
        <ele>1289.27</ele>
        <time>2017-05-20T10:58:56Z</time>
      </trkpt>
      <trkpt lat="44.86018" lon="5.34887">
        <ele>1290.23</ele>
        <time>2017-05-20T10:59:01Z</time>
      </trkpt>
      <trkpt lat="44.8602" lon="5.34883">
        <ele>1290.71</ele>
        <time>2017-05-20T10:59:04Z</time>
      </trkpt>
      <trkpt lat="44.86032" lon="5.34873">
        <ele>1292.63</ele>
        <time>2017-05-20T10:59:17Z</time>
      </trkpt>
      <trkpt lat="44.86037" lon="5.34871">
        <ele>1292.63</ele>
        <time>2017-05-20T10:59:21Z</time>
      </trkpt>
      <trkpt lat="44.86041" lon="5.34856">
        <ele>1294.07</ele>
        <time>2017-05-20T10:59:31Z</time>
      </trkpt>
      <trkpt lat="44.86027" lon="5.34851">
        <ele>1295.51</ele>
        <time>2017-05-20T10:59:44Z</time>
      </trkpt>
      <trkpt lat="44.86014" lon="5.34846">
        <ele>1297.44</ele>
        <time>2017-05-20T10:59:57Z</time>
      </trkpt>
      <trkpt lat="44.86012" lon="5.34844">
        <ele>1297.44</ele>
        <time>2017-05-20T10:59:59Z</time>
      </trkpt>
      <trkpt lat="44.86005" lon="5.34841">
        <ele>1297.92</ele>
        <time>2017-05-20T11:00:03Z</time>
      </trkpt>
      <trkpt lat="44.85998" lon="5.34836">
        <ele>1298.88</ele>
        <time>2017-05-20T11:00:08Z</time>
      </trkpt>
      <trkpt lat="44.85993" lon="5.34833">
        <ele>1299.36</ele>
        <time>2017-05-20T11:00:11Z</time>
      </trkpt>
      <trkpt lat="44.85974" lon="5.34825">
        <ele>1300.8</ele>
        <time>2017-05-20T11:00:23Z</time>
      </trkpt>
      <trkpt lat="44.85968" lon="5.34822">
        <ele>1301.28</ele>
        <time>2017-05-20T11:00:27Z</time>
      </trkpt>
      <trkpt lat="44.85955" lon="5.34815">
        <ele>1302.72</ele>
        <time>2017-05-20T11:00:36Z</time>
      </trkpt>
      <trkpt lat="44.8594" lon="5.34804">
        <ele>1303.69</ele>
        <time>2017-05-20T11:00:48Z</time>
      </trkpt>
      <trkpt lat="44.85927" lon="5.3479">
        <ele>1305.13</ele>
        <time>2017-05-20T11:00:58Z</time>
      </trkpt>
      <trkpt lat="44.85915" lon="5.3478">
        <ele>1306.09</ele>
        <time>2017-05-20T11:01:09Z</time>
      </trkpt>
      <trkpt lat="44.85901" lon="5.34773">
        <ele>1308.01</ele>
        <time>2017-05-20T11:01:19Z</time>
      </trkpt>
      <trkpt lat="44.85885" lon="5.34763">
        <ele>1309.93</ele>
        <time>2017-05-20T11:01:30Z</time>
      </trkpt>
      <trkpt lat="44.85866" lon="5.3475">
        <ele>1312.34</ele>
        <time>2017-05-20T11:01:42Z</time>
      </trkpt>
      <trkpt lat="44.85852" lon="5.34738">
        <ele>1315.22</ele>
        <time>2017-05-20T11:01:55Z</time>
      </trkpt>
      <trkpt lat="44.85843" lon="5.34732">
        <ele>1316.66</ele>
        <time>2017-05-20T11:02:04Z</time>
      </trkpt>
      <trkpt lat="44.85835" lon="5.34722">
        <ele>1317.62</ele>
        <time>2017-05-20T11:02:10Z</time>
      </trkpt>
      <trkpt lat="44.8583" lon="5.34716">
        <ele>1318.59</ele>
        <time>2017-05-20T11:02:14Z</time>
      </trkpt>
      <trkpt lat="44.85823" lon="5.34711">
        <ele>1319.07</ele>
        <time>2017-05-20T11:02:20Z</time>
      </trkpt>
      <trkpt lat="44.85806" lon="5.347">
        <ele>1320.99</ele>
        <time>2017-05-20T11:02:33Z</time>
      </trkpt>
      <trkpt lat="44.85793" lon="5.34686">
        <ele>1323.39</ele>
        <time>2017-05-20T11:02:45Z</time>
      </trkpt>
      <trkpt lat="44.85789" lon="5.34681">
        <ele>1323.39</ele>
        <time>2017-05-20T11:02:49Z</time>
      </trkpt>
      <trkpt lat="44.85785" lon="5.34679">
        <ele>1323.87</ele>
        <time>2017-05-20T11:02:52Z</time>
      </trkpt>
      <trkpt lat="44.8578" lon="5.34675">
        <ele>1324.35</ele>
        <time>2017-05-20T11:02:55Z</time>
      </trkpt>
      <trkpt lat="44.8576" lon="5.34661">
        <ele>1325.31</ele>
        <time>2017-05-20T11:03:08Z</time>
      </trkpt>
      <trkpt lat="44.85747" lon="5.34651">
        <ele>1326.76</ele>
        <time>2017-05-20T11:03:19Z</time>
      </trkpt>
      <trkpt lat="44.85739" lon="5.34643">
        <ele>1328.2</ele>
        <time>2017-05-20T11:03:27Z</time>
      </trkpt>
      <trkpt lat="44.85735" lon="5.34638">
        <ele>1328.68</ele>
        <time>2017-05-20T11:03:30Z</time>
      </trkpt>
      <trkpt lat="44.85719" lon="5.3462">
        <ele>1329.64</ele>
        <time>2017-05-20T11:03:44Z</time>
      </trkpt>
      <trkpt lat="44.8571" lon="5.3461">
        <ele>1329.64</ele>
        <time>2017-05-20T11:03:52Z</time>
      </trkpt>
      <trkpt lat="44.85703" lon="5.346">
        <ele>1330.6</ele>
        <time>2017-05-20T11:03:58Z</time>
      </trkpt>
      <trkpt lat="44.85691" lon="5.34588">
        <ele>1331.08</ele>
        <time>2017-05-20T11:04:06Z</time>
      </trkpt>
      <trkpt lat="44.85681" lon="5.34581">
        <ele>1332.04</ele>
        <time>2017-05-20T11:04:13Z</time>
      </trkpt>
      <trkpt lat="44.85676" lon="5.34576">
        <ele>1333.01</ele>
        <time>2017-05-20T11:04:17Z</time>
      </trkpt>
      <trkpt lat="44.85661" lon="5.3456">
        <ele>1335.41</ele>
        <time>2017-05-20T11:04:30Z</time>
      </trkpt>
      <trkpt lat="44.85659" lon="5.34558">
        <ele>1335.89</ele>
        <time>2017-05-20T11:04:32Z</time>
      </trkpt>
      <trkpt lat="44.85655" lon="5.34553">
        <ele>1337.33</ele>
        <time>2017-05-20T11:04:38Z</time>
      </trkpt>
      <trkpt lat="44.85644" lon="5.3454">
        <ele>1338.77</ele>
        <time>2017-05-20T11:04:48Z</time>
      </trkpt>
      <trkpt lat="44.85629" lon="5.34525">
        <ele>1341.66</ele>
        <time>2017-05-20T11:05:00Z</time>
      </trkpt>
      <trkpt lat="44.85625" lon="5.34517">
        <ele>1342.14</ele>
        <time>2017-05-20T11:05:04Z</time>
      </trkpt>
      <trkpt lat="44.85615" lon="5.34503">
        <ele>1343.58</ele>
        <time>2017-05-20T11:05:16Z</time>
      </trkpt>
      <trkpt lat="44.85613" lon="5.34501">
        <ele>1344.06</ele>
        <time>2017-05-20T11:05:18Z</time>
      </trkpt>
      <trkpt lat="44.8561" lon="5.34494">
        <ele>1345.02</ele>
        <time>2017-05-20T11:05:23Z</time>
      </trkpt>
      <trkpt lat="44.85594" lon="5.34481">
        <ele>1346.94</ele>
        <time>2017-05-20T11:05:35Z</time>
      </trkpt>
      <trkpt lat="44.85577" lon="5.34468">
        <ele>1347.43</ele>
        <time>2017-05-20T11:05:46Z</time>
      </trkpt>
      <trkpt lat="44.85576" lon="5.34467">
        <ele>1347.43</ele>
        <time>2017-05-20T11:05:47Z</time>
      </trkpt>
      <trkpt lat="44.85569" lon="5.34458">
        <ele>1346.94</ele>
        <time>2017-05-20T11:05:51Z</time>
      </trkpt>
      <trkpt lat="44.85533" lon="5.34427">
        <ele>1346.94</ele>
        <time>2017-05-20T11:06:05Z</time>
      </trkpt>
      <trkpt lat="44.85506" lon="5.34422">
        <ele>1347.91</ele>
        <time>2017-05-20T11:06:15Z</time>
      </trkpt>
      <trkpt lat="44.85487" lon="5.34419">
        <ele>1348.87</ele>
        <time>2017-05-20T11:06:23Z</time>
      </trkpt>
      <trkpt lat="44.85463" lon="5.34414">
        <ele>1350.79</ele>
        <time>2017-05-20T11:06:35Z</time>
      </trkpt>
      <trkpt lat="44.8545" lon="5.34408">
        <ele>1353.19</ele>
        <time>2017-05-20T11:06:44Z</time>
      </trkpt>
      <trkpt lat="44.85445" lon="5.34408">
        <ele>1353.67</ele>
        <time>2017-05-20T11:06:47Z</time>
      </trkpt>
      <trkpt lat="44.85439" lon="5.34404">
        <ele>1354.63</ele>
        <time>2017-05-20T11:06:52Z</time>
      </trkpt>
      <trkpt lat="44.85433" lon="5.344">
        <ele>1356.56</ele>
        <time>2017-05-20T11:06:59Z</time>
      </trkpt>
      <trkpt lat="44.8542" lon="5.34392">
        <ele>1358.48</ele>
        <time>2017-05-20T11:07:08Z</time>
      </trkpt>
      <trkpt lat="44.85418" lon="5.34392">
        <ele>1358.96</ele>
        <time>2017-05-20T11:07:10Z</time>
      </trkpt>
      <trkpt lat="44.85413" lon="5.3439">
        <ele>1359.44</ele>
        <time>2017-05-20T11:07:15Z</time>
      </trkpt>
      <trkpt lat="44.85406" lon="5.34386">
        <ele>1360.88</ele>
        <time>2017-05-20T11:07:23Z</time>
      </trkpt>
      <trkpt lat="44.85404" lon="5.34385">
        <ele>1360.88</ele>
        <time>2017-05-20T11:07:25Z</time>
      </trkpt>
      <trkpt lat="44.85389" lon="5.34374">
        <ele>1363.77</ele>
        <time>2017-05-20T11:07:39Z</time>
      </trkpt>
      <trkpt lat="44.85373" lon="5.34367">
        <ele>1366.17</ele>
        <time>2017-05-20T11:07:52Z</time>
      </trkpt>
      <trkpt lat="44.8536" lon="5.34355">
        <ele>1368.57</ele>
        <time>2017-05-20T11:08:03Z</time>
      </trkpt>
      <trkpt lat="44.85339" lon="5.34341">
        <ele>1370.5</ele>
        <time>2017-05-20T11:08:18Z</time>
      </trkpt>
      <trkpt lat="44.85329" lon="5.34335">
        <ele>1372.42</ele>
        <time>2017-05-20T11:08:28Z</time>
      </trkpt>
      <trkpt lat="44.85325" lon="5.34333">
        <ele>1372.9</ele>
        <time>2017-05-20T11:08:31Z</time>
      </trkpt>
      <trkpt lat="44.85319" lon="5.34328">
        <ele>1373.86</ele>
        <time>2017-05-20T11:08:36Z</time>
      </trkpt>
      <trkpt lat="44.8531" lon="5.34323">
        <ele>1376.26</ele>
        <time>2017-05-20T11:08:47Z</time>
      </trkpt>
      <trkpt lat="44.85307" lon="5.34321">
        <ele>1376.75</ele>
        <time>2017-05-20T11:08:51Z</time>
      </trkpt>
      <trkpt lat="44.85286" lon="5.34321">
        <ele>1379.63</ele>
        <time>2017-05-20T11:09:05Z</time>
      </trkpt>
      <trkpt lat="44.85272" lon="5.34311">
        <ele>1382.03</ele>
        <time>2017-05-20T11:09:17Z</time>
      </trkpt>
      <trkpt lat="44.8527" lon="5.34308">
        <ele>1382.03</ele>
        <time>2017-05-20T11:09:19Z</time>
      </trkpt>
      <trkpt lat="44.85266" lon="5.34301">
        <ele>1382.99</ele>
        <time>2017-05-20T11:09:23Z</time>
      </trkpt>
      <trkpt lat="44.85266" lon="5.34288">
        <ele>1383.96</ele>
        <time>2017-05-20T11:09:31Z</time>
      </trkpt>
      <trkpt lat="44.8527" lon="5.34283">
        <ele>1383.47</ele>
        <time>2017-05-20T11:09:36Z</time>
      </trkpt>
      <trkpt lat="44.85272" lon="5.3428">
        <ele>1383.96</ele>
        <time>2017-05-20T11:09:39Z</time>
      </trkpt>
      <trkpt lat="44.85275" lon="5.34278">
        <ele>1383.96</ele>
        <time>2017-05-20T11:09:42Z</time>
      </trkpt>
      <trkpt lat="44.85277" lon="5.34274">
        <ele>1383.47</ele>
        <time>2017-05-20T11:09:45Z</time>
      </trkpt>
      <trkpt lat="44.85281" lon="5.34273">
        <ele>1383.47</ele>
        <time>2017-05-20T11:09:49Z</time>
      </trkpt>
      <trkpt lat="44.85282" lon="5.3428">
        <ele>1383.47</ele>
        <time>2017-05-20T11:09:54Z</time>
      </trkpt>
      <trkpt lat="44.85278" lon="5.34281">
        <ele>1383.47</ele>
        <time>2017-05-20T11:09:58Z</time>
      </trkpt>
      <trkpt lat="44.85275" lon="5.34281">
        <ele>1384.44</ele>
        <time>2017-05-20T11:10:07Z</time>
      </trkpt>
      <trkpt lat="44.85275" lon="5.34284">
        <ele>1384.92</ele>
        <time>2017-05-20T11:10:11Z</time>
      </trkpt>
      <trkpt lat="44.85279" lon="5.34281">
        <ele>1383.96</ele>
        <time>2017-05-20T11:10:25Z</time>
      </trkpt>
      <trkpt lat="44.85279" lon="5.34281">
        <ele>1376.75</ele>
        <time>2017-05-20T11:10:29Z</time>
      </trkpt>
      <trkpt lat="44.85279" lon="5.34281">
        <ele>1388.76</ele>
        <time>2017-05-20T11:10:30Z</time>
      </trkpt>
      <trkpt lat="44.85279" lon="5.34281">
        <ele>1381.55</ele>
        <time>2017-05-20T11:10:31Z</time>
      </trkpt>
      <trkpt lat="44.85279" lon="5.34281">
        <ele>1385.4</ele>
        <time>2017-05-20T11:10:32Z</time>
      </trkpt>
      <trkpt lat="44.85279" lon="5.34281">
        <ele>1380.59</ele>
        <time>2017-05-20T11:10:33Z</time>
      </trkpt>
      <trkpt lat="44.85279" lon="5.34281">
        <ele>1385.88</ele>
        <time>2017-05-20T11:10:35Z</time>
      </trkpt>
      <trkpt lat="44.85279" lon="5.34281">
        <ele>1384.92</ele>
        <time>2017-05-20T11:10:36Z</time>
      </trkpt>
      <trkpt lat="44.85279" lon="5.34281">
        <ele>1379.15</ele>
        <time>2017-05-20T11:10:37Z</time>
      </trkpt>
      <trkpt lat="44.85279" lon="5.34281">
        <ele>1389.24</ele>
        <time>2017-05-20T11:10:38Z</time>
      </trkpt>
      <trkpt lat="44.85279" lon="5.34281">
        <ele>1382.99</ele>
        <time>2017-05-20T11:10:39Z</time>
      </trkpt>
      <trkpt lat="44.85279" lon="5.34281">
        <ele>1383.47</ele>
        <time>2017-05-20T11:11:03Z</time>
      </trkpt>
      <trkpt lat="44.85276" lon="5.34278">
        <ele>1383.96</ele>
        <time>2017-05-20T11:11:09Z</time>
      </trkpt>
      <trkpt lat="44.85271" lon="5.34279">
        <ele>1383.96</ele>
        <time>2017-05-20T11:11:13Z</time>
      </trkpt>
      <trkpt lat="44.85251" lon="5.3428">
        <ele>1386.36</ele>
        <time>2017-05-20T11:11:28Z</time>
      </trkpt>
      <trkpt lat="44.85242" lon="5.3427">
        <ele>1389.24</ele>
        <time>2017-05-20T11:11:37Z</time>
      </trkpt>
      <trkpt lat="44.8523" lon="5.34253">
        <ele>1391.65</ele>
        <time>2017-05-20T11:11:49Z</time>
      </trkpt>
      <trkpt lat="44.85229" lon="5.34253">
        <ele>1392.13</ele>
        <time>2017-05-20T11:11:50Z</time>
      </trkpt>
      <trkpt lat="44.85223" lon="5.34247">
        <ele>1393.09</ele>
        <time>2017-05-20T11:11:56Z</time>
      </trkpt>
      <trkpt lat="44.85221" lon="5.34244">
        <ele>1393.09</ele>
        <time>2017-05-20T11:11:58Z</time>
      </trkpt>
      <trkpt lat="44.85208" lon="5.34229">
        <ele>1395.97</ele>
        <time>2017-05-20T11:12:10Z</time>
      </trkpt>
      <trkpt lat="44.85205" lon="5.34225">
        <ele>1396.45</ele>
        <time>2017-05-20T11:12:13Z</time>
      </trkpt>
      <trkpt lat="44.85199" lon="5.34218">
        <ele>1398.37</ele>
        <time>2017-05-20T11:12:22Z</time>
      </trkpt>
      <trkpt lat="44.85194" lon="5.34216">
        <ele>1398.86</ele>
        <time>2017-05-20T11:12:26Z</time>
      </trkpt>
      <trkpt lat="44.85187" lon="5.34207">
        <ele>1399.82</ele>
        <time>2017-05-20T11:12:33Z</time>
      </trkpt>
      <trkpt lat="44.85179" lon="5.34193">
        <ele>1401.74</ele>
        <time>2017-05-20T11:12:45Z</time>
      </trkpt>
      <trkpt lat="44.85172" lon="5.34183">
        <ele>1402.7</ele>
        <time>2017-05-20T11:12:54Z</time>
      </trkpt>
      <trkpt lat="44.85164" lon="5.34176">
        <ele>1403.66</ele>
        <time>2017-05-20T11:13:00Z</time>
      </trkpt>
      <trkpt lat="44.85158" lon="5.34166">
        <ele>1405.1</ele>
        <time>2017-05-20T11:13:12Z</time>
      </trkpt>
      <trkpt lat="44.85157" lon="5.34164">
        <ele>1405.58</ele>
        <time>2017-05-20T11:13:14Z</time>
      </trkpt>
      <trkpt lat="44.85143" lon="5.34153">
        <ele>1407.51</ele>
        <time>2017-05-20T11:13:27Z</time>
      </trkpt>
      <trkpt lat="44.85127" lon="5.34141">
        <ele>1409.43</ele>
        <time>2017-05-20T11:13:39Z</time>
      </trkpt>
      <trkpt lat="44.85116" lon="5.34131">
        <ele>1409.91</ele>
        <time>2017-05-20T11:13:48Z</time>
      </trkpt>
      <trkpt lat="44.8511" lon="5.34126">
        <ele>1409.91</ele>
        <time>2017-05-20T11:13:54Z</time>
      </trkpt>
      <trkpt lat="44.85095" lon="5.34117">
        <ele>1410.39</ele>
        <time>2017-05-20T11:14:04Z</time>
      </trkpt>
      <trkpt lat="44.85092" lon="5.34116">
        <ele>1410.39</ele>
        <time>2017-05-20T11:14:16Z</time>
      </trkpt>
      <trkpt lat="44.85092" lon="5.34115">
        <ele>1409.91</ele>
        <time>2017-05-20T11:14:29Z</time>
      </trkpt>
      <trkpt lat="44.85092" lon="5.34115">
        <ele>1409.43</ele>
        <time>2017-05-20T11:14:56Z</time>
      </trkpt>
      <trkpt lat="44.8509" lon="5.34115">
        <ele>1408.95</ele>
        <time>2017-05-20T11:15:14Z</time>
      </trkpt>
      <trkpt lat="44.8507" lon="5.341">
        <ele>1409.91</ele>
        <time>2017-05-20T11:15:25Z</time>
      </trkpt>
      <trkpt lat="44.8506" lon="5.34094">
        <ele>1410.39</ele>
        <time>2017-05-20T11:15:31Z</time>
      </trkpt>
      <trkpt lat="44.85043" lon="5.34077">
        <ele>1411.83</ele>
        <time>2017-05-20T11:15:41Z</time>
      </trkpt>
      <trkpt lat="44.85027" lon="5.34062">
        <ele>1413.28</ele>
        <time>2017-05-20T11:15:53Z</time>
      </trkpt>
      <trkpt lat="44.85023" lon="5.34059">
        <ele>1413.76</ele>
        <time>2017-05-20T11:15:56Z</time>
      </trkpt>
      <trkpt lat="44.85012" lon="5.34051">
        <ele>1414.72</ele>
        <time>2017-05-20T11:16:04Z</time>
      </trkpt>
      <trkpt lat="44.85006" lon="5.34043">
        <ele>1415.2</ele>
        <time>2017-05-20T11:16:08Z</time>
      </trkpt>
      <trkpt lat="44.84996" lon="5.34023">
        <ele>1416.64</ele>
        <time>2017-05-20T11:16:17Z</time>
      </trkpt>
      <trkpt lat="44.84985" lon="5.33997">
        <ele>1418.08</ele>
        <time>2017-05-20T11:16:29Z</time>
      </trkpt>
      <trkpt lat="44.84981" lon="5.33987">
        <ele>1419.04</ele>
        <time>2017-05-20T11:16:34Z</time>
      </trkpt>
      <trkpt lat="44.8498" lon="5.33982">
        <ele>1419.52</ele>
        <time>2017-05-20T11:16:37Z</time>
      </trkpt>
      <trkpt lat="44.84972" lon="5.3396">
        <ele>1420.97</ele>
        <time>2017-05-20T11:16:48Z</time>
      </trkpt>
      <trkpt lat="44.84968" lon="5.33949">
        <ele>1421.93</ele>
        <time>2017-05-20T11:16:55Z</time>
      </trkpt>
      <trkpt lat="44.84965" lon="5.33945">
        <ele>1422.89</ele>
        <time>2017-05-20T11:17:00Z</time>
      </trkpt>
      <trkpt lat="44.84964" lon="5.33941">
        <ele>1423.37</ele>
        <time>2017-05-20T11:17:02Z</time>
      </trkpt>
      <trkpt lat="44.84962" lon="5.33937">
        <ele>1423.37</ele>
        <time>2017-05-20T11:17:04Z</time>
      </trkpt>
      <trkpt lat="44.84952" lon="5.33924">
        <ele>1425.29</ele>
        <time>2017-05-20T11:17:12Z</time>
      </trkpt>
      <trkpt lat="44.8495" lon="5.33921">
        <ele>1425.77</ele>
        <time>2017-05-20T11:17:15Z</time>
      </trkpt>
      <trkpt lat="44.84948" lon="5.33917">
        <ele>1426.25</ele>
        <time>2017-05-20T11:17:17Z</time>
      </trkpt>
      <trkpt lat="44.84941" lon="5.33904">
        <ele>1427.21</ele>
        <time>2017-05-20T11:17:23Z</time>
      </trkpt>
      <trkpt lat="44.84926" lon="5.33887">
        <ele>1428.18</ele>
        <time>2017-05-20T11:17:35Z</time>
      </trkpt>
      <trkpt lat="44.84915" lon="5.33871">
        <ele>1428.66</ele>
        <time>2017-05-20T11:17:46Z</time>
      </trkpt>
      <trkpt lat="44.84904" lon="5.33856">
        <ele>1428.66</ele>
        <time>2017-05-20T11:17:54Z</time>
      </trkpt>
      <trkpt lat="44.84897" lon="5.33846">
        <ele>1429.62</ele>
        <time>2017-05-20T11:18:00Z</time>
      </trkpt>
      <trkpt lat="44.84885" lon="5.33827">
        <ele>1430.1</ele>
        <time>2017-05-20T11:18:11Z</time>
      </trkpt>
      <trkpt lat="44.84871" lon="5.33808">
        <ele>1430.58</ele>
        <time>2017-05-20T11:18:21Z</time>
      </trkpt>
      <trkpt lat="44.84858" lon="5.3379">
        <ele>1432.5</ele>
        <time>2017-05-20T11:18:31Z</time>
      </trkpt>
      <trkpt lat="44.84857" lon="5.33785">
        <ele>1432.98</ele>
        <time>2017-05-20T11:18:33Z</time>
      </trkpt>
      <trkpt lat="44.84847" lon="5.33778">
        <ele>1433.46</ele>
        <time>2017-05-20T11:18:40Z</time>
      </trkpt>
      <trkpt lat="44.8483" lon="5.33761">
        <ele>1435.39</ele>
        <time>2017-05-20T11:18:52Z</time>
      </trkpt>
      <trkpt lat="44.84814" lon="5.33747">
        <ele>1436.35</ele>
        <time>2017-05-20T11:19:04Z</time>
      </trkpt>
      <trkpt lat="44.84807" lon="5.33732">
        <ele>1438.27</ele>
        <time>2017-05-20T11:19:12Z</time>
      </trkpt>
      <trkpt lat="44.84794" lon="5.33715">
        <ele>1439.71</ele>
        <time>2017-05-20T11:19:24Z</time>
      </trkpt>
      <trkpt lat="44.84789" lon="5.33708">
        <ele>1440.19</ele>
        <time>2017-05-20T11:19:28Z</time>
      </trkpt>
      <trkpt lat="44.84777" lon="5.33691">
        <ele>1441.15</ele>
        <time>2017-05-20T11:19:37Z</time>
      </trkpt>
      <trkpt lat="44.84767" lon="5.33672">
        <ele>1442.11</ele>
        <time>2017-05-20T11:19:48Z</time>
      </trkpt>
      <trkpt lat="44.84763" lon="5.33645">
        <ele>1444.52</ele>
        <time>2017-05-20T11:20:00Z</time>
      </trkpt>
      <trkpt lat="44.84763" lon="5.3364">
        <ele>1444.52</ele>
        <time>2017-05-20T11:20:03Z</time>
      </trkpt>
      <trkpt lat="44.84758" lon="5.3362">
        <ele>1445.48</ele>
        <time>2017-05-20T11:20:14Z</time>
      </trkpt>
      <trkpt lat="44.84756" lon="5.33616">
        <ele>1445.96</ele>
        <time>2017-05-20T11:20:16Z</time>
      </trkpt>
      <trkpt lat="44.84756" lon="5.33609">
        <ele>1445.96</ele>
        <time>2017-05-20T11:20:20Z</time>
      </trkpt>
      <trkpt lat="44.84753" lon="5.33601">
        <ele>1446.44</ele>
        <time>2017-05-20T11:20:24Z</time>
      </trkpt>
      <trkpt lat="44.84746" lon="5.33585">
        <ele>1445.48</ele>
        <time>2017-05-20T11:20:30Z</time>
      </trkpt>
      <trkpt lat="44.8474" lon="5.33574">
        <ele>1444.52</ele>
        <time>2017-05-20T11:20:33Z</time>
      </trkpt>
      <trkpt lat="44.84737" lon="5.33571">
        <ele>1443.56</ele>
        <time>2017-05-20T11:20:34Z</time>
      </trkpt>
      <trkpt lat="44.84733" lon="5.33568">
        <ele>1443.08</ele>
        <time>2017-05-20T11:20:35Z</time>
      </trkpt>
      <trkpt lat="44.84729" lon="5.33564">
        <ele>1443.08</ele>
        <time>2017-05-20T11:20:36Z</time>
      </trkpt>
      <trkpt lat="44.84725" lon="5.33561">
        <ele>1442.6</ele>
        <time>2017-05-20T11:20:37Z</time>
      </trkpt>
      <trkpt lat="44.84722" lon="5.33557">
        <ele>1442.6</ele>
        <time>2017-05-20T11:20:38Z</time>
      </trkpt>
      <trkpt lat="44.84719" lon="5.33554">
        <ele>1443.08</ele>
        <time>2017-05-20T11:20:39Z</time>
      </trkpt>
      <trkpt lat="44.84717" lon="5.3355">
        <ele>1443.08</ele>
        <time>2017-05-20T11:20:40Z</time>
      </trkpt>
      <trkpt lat="44.84715" lon="5.33546">
        <ele>1443.56</ele>
        <time>2017-05-20T11:20:41Z</time>
      </trkpt>
      <trkpt lat="44.84713" lon="5.33544">
        <ele>1443.56</ele>
        <time>2017-05-20T11:20:42Z</time>
      </trkpt>
      <trkpt lat="44.84711" lon="5.33541">
        <ele>1444.04</ele>
        <time>2017-05-20T11:20:43Z</time>
      </trkpt>
      <trkpt lat="44.84699" lon="5.33514">
        <ele>1445.48</ele>
        <time>2017-05-20T11:20:52Z</time>
      </trkpt>
      <trkpt lat="44.84699" lon="5.3351">
        <ele>1445.96</ele>
        <time>2017-05-20T11:21:04Z</time>
      </trkpt>
      <trkpt lat="44.84697" lon="5.33509">
        <ele>1445.96</ele>
        <time>2017-05-20T11:21:35Z</time>
      </trkpt>
      <trkpt lat="44.84695" lon="5.33508">
        <ele>1445.96</ele>
        <time>2017-05-20T11:21:41Z</time>
      </trkpt>
      <trkpt lat="44.84693" lon="5.33508">
        <ele>1445.48</ele>
        <time>2017-05-20T11:21:42Z</time>
      </trkpt>
      <trkpt lat="44.84691" lon="5.33507">
        <ele>1445.48</ele>
        <time>2017-05-20T11:21:43Z</time>
      </trkpt>
      <trkpt lat="44.84688" lon="5.33506">
        <ele>1445.48</ele>
        <time>2017-05-20T11:21:53Z</time>
      </trkpt>
      <trkpt lat="44.84688" lon="5.33506">
        <ele>1445.96</ele>
        <time>2017-05-20T11:22:22Z</time>
      </trkpt>
      <trkpt lat="44.84688" lon="5.33506">
        <ele>1445.48</ele>
        <time>2017-05-20T11:22:52Z</time>
      </trkpt>
      <trkpt lat="44.84688" lon="5.33506">
        <ele>1445.48</ele>
        <time>2017-05-20T11:23:23Z</time>
      </trkpt>
      <trkpt lat="44.84688" lon="5.33506">
        <ele>1445.48</ele>
        <time>2017-05-20T11:23:50Z</time>
      </trkpt>
      <trkpt lat="44.84688" lon="5.33506">
        <ele>1445.48</ele>
        <time>2017-05-20T11:24:20Z</time>
      </trkpt>
      <trkpt lat="44.84687" lon="5.33505">
        <ele>1445.48</ele>
        <time>2017-05-20T11:24:54Z</time>
      </trkpt>
      <trkpt lat="44.84687" lon="5.33505">
        <ele>1445.48</ele>
        <time>2017-05-20T11:25:24Z</time>
      </trkpt>
      <trkpt lat="44.84687" lon="5.33505">
        <ele>1445.48</ele>
        <time>2017-05-20T11:25:58Z</time>
      </trkpt>
      <trkpt lat="44.84687" lon="5.33505">
        <ele>1445.96</ele>
        <time>2017-05-20T11:26:32Z</time>
      </trkpt>
      <trkpt lat="44.84687" lon="5.33505">
        <ele>1445.48</ele>
        <time>2017-05-20T11:27:05Z</time>
      </trkpt>
      <trkpt lat="44.84686" lon="5.33505">
        <ele>1445.48</ele>
        <time>2017-05-20T11:27:36Z</time>
      </trkpt>
      <trkpt lat="44.84686" lon="5.33504">
        <ele>1445.48</ele>
        <time>2017-05-20T11:28:05Z</time>
      </trkpt>
      <trkpt lat="44.84686" lon="5.33504">
        <ele>1446.44</ele>
        <time>2017-05-20T11:28:40Z</time>
      </trkpt>
      <trkpt lat="44.84686" lon="5.33504">
        <ele>1444.04</ele>
        <time>2017-05-20T11:29:01Z</time>
      </trkpt>
      <trkpt lat="44.84672" lon="5.33504">
        <ele>1445.48</ele>
        <time>2017-05-20T11:31:31Z</time>
      </trkpt>
      <trkpt lat="44.84666" lon="5.33506">
        <ele>1445.96</ele>
        <time>2017-05-20T11:31:34Z</time>
      </trkpt>
      <trkpt lat="44.84647" lon="5.33503">
        <ele>1449.32</ele>
        <time>2017-05-20T11:31:44Z</time>
      </trkpt>
      <trkpt lat="44.84643" lon="5.33503">
        <ele>1447.4</ele>
        <time>2017-05-20T11:31:46Z</time>
      </trkpt>
      <trkpt lat="44.84631" lon="5.33505">
        <ele>1448.84</ele>
        <time>2017-05-20T11:31:52Z</time>
      </trkpt>
      <trkpt lat="44.84624" lon="5.33504">
        <ele>1449.81</ele>
        <time>2017-05-20T11:31:57Z</time>
      </trkpt>
      <trkpt lat="44.84616" lon="5.33504">
        <ele>1451.25</ele>
        <time>2017-05-20T11:32:02Z</time>
      </trkpt>
      <trkpt lat="44.84602" lon="5.33506">
        <ele>1453.65</ele>
        <time>2017-05-20T11:32:14Z</time>
      </trkpt>
      <trkpt lat="44.846" lon="5.33507">
        <ele>1453.65</ele>
        <time>2017-05-20T11:32:15Z</time>
      </trkpt>
      <trkpt lat="44.84595" lon="5.33509">
        <ele>1454.61</ele>
        <time>2017-05-20T11:32:19Z</time>
      </trkpt>
      <trkpt lat="44.84589" lon="5.33509">
        <ele>1455.09</ele>
        <time>2017-05-20T11:32:23Z</time>
      </trkpt>
      <trkpt lat="44.84574" lon="5.33511">
        <ele>1456.53</ele>
        <time>2017-05-20T11:32:33Z</time>
      </trkpt>
      <trkpt lat="44.84564" lon="5.33515">
        <ele>1457.98</ele>
        <time>2017-05-20T11:32:42Z</time>
      </trkpt>
      <trkpt lat="44.84556" lon="5.33519">
        <ele>1459.42</ele>
        <time>2017-05-20T11:32:49Z</time>
      </trkpt>
      <trkpt lat="44.8454" lon="5.33527">
        <ele>1460.86</ele>
        <time>2017-05-20T11:33:00Z</time>
      </trkpt>
      <trkpt lat="44.84534" lon="5.33538">
        <ele>1460.86</ele>
        <time>2017-05-20T11:33:06Z</time>
      </trkpt>
      <trkpt lat="44.8453" lon="5.33546">
        <ele>1461.34</ele>
        <time>2017-05-20T11:33:10Z</time>
      </trkpt>
      <trkpt lat="44.84516" lon="5.33568">
        <ele>1462.3</ele>
        <time>2017-05-20T11:33:22Z</time>
      </trkpt>
      <trkpt lat="44.8451" lon="5.33572">
        <ele>1463.26</ele>
        <time>2017-05-20T11:33:27Z</time>
      </trkpt>
      <trkpt lat="44.84502" lon="5.33576">
        <ele>1464.71</ele>
        <time>2017-05-20T11:33:36Z</time>
      </trkpt>
      <trkpt lat="44.84499" lon="5.33575">
        <ele>1465.19</ele>
        <time>2017-05-20T11:33:39Z</time>
      </trkpt>
      <trkpt lat="44.84483" lon="5.33575">
        <ele>1467.59</ele>
        <time>2017-05-20T11:33:51Z</time>
      </trkpt>
      <trkpt lat="44.84477" lon="5.33574">
        <ele>1468.07</ele>
        <time>2017-05-20T11:33:55Z</time>
      </trkpt>
      <trkpt lat="44.84472" lon="5.33573">
        <ele>1468.55</ele>
        <time>2017-05-20T11:33:59Z</time>
      </trkpt>
      <trkpt lat="44.84454" lon="5.33569">
        <ele>1470.47</ele>
        <time>2017-05-20T11:34:11Z</time>
      </trkpt>
      <trkpt lat="44.8444" lon="5.33565">
        <ele>1471.92</ele>
        <time>2017-05-20T11:34:22Z</time>
      </trkpt>
      <trkpt lat="44.84425" lon="5.33563">
        <ele>1472.88</ele>
        <time>2017-05-20T11:34:32Z</time>
      </trkpt>
      <trkpt lat="44.8441" lon="5.33555">
        <ele>1475.28</ele>
        <time>2017-05-20T11:34:44Z</time>
      </trkpt>
      <trkpt lat="44.84401" lon="5.33551">
        <ele>1476.24</ele>
        <time>2017-05-20T11:34:51Z</time>
      </trkpt>
      <trkpt lat="44.84399" lon="5.33549">
        <ele>1476.72</ele>
        <time>2017-05-20T11:34:53Z</time>
      </trkpt>
      <trkpt lat="44.84385" lon="5.33545">
        <ele>1479.13</ele>
        <time>2017-05-20T11:35:05Z</time>
      </trkpt>
      <trkpt lat="44.84368" lon="5.33542">
        <ele>1481.53</ele>
        <time>2017-05-20T11:35:18Z</time>
      </trkpt>
      <trkpt lat="44.8436" lon="5.33542">
        <ele>1483.45</ele>
        <time>2017-05-20T11:35:27Z</time>
      </trkpt>
      <trkpt lat="44.84347" lon="5.33541">
        <ele>1486.34</ele>
        <time>2017-05-20T11:35:38Z</time>
      </trkpt>
      <trkpt lat="44.8433" lon="5.33543">
        <ele>1487.78</ele>
        <time>2017-05-20T11:35:52Z</time>
      </trkpt>
      <trkpt lat="44.84314" lon="5.33548">
        <ele>1488.74</ele>
        <time>2017-05-20T11:36:04Z</time>
      </trkpt>
      <trkpt lat="44.84303" lon="5.33549">
        <ele>1491.62</ele>
        <time>2017-05-20T11:36:14Z</time>
      </trkpt>
      <trkpt lat="44.84293" lon="5.33548">
        <ele>1492.58</ele>
        <time>2017-05-20T11:36:21Z</time>
      </trkpt>
      <trkpt lat="44.84281" lon="5.33552">
        <ele>1494.03</ele>
        <time>2017-05-20T11:36:34Z</time>
      </trkpt>
      <trkpt lat="44.8428" lon="5.33553">
        <ele>1494.03</ele>
        <time>2017-05-20T11:36:53Z</time>
      </trkpt>
      <trkpt lat="44.8427" lon="5.33554">
        <ele>1494.99</ele>
        <time>2017-05-20T11:37:08Z</time>
      </trkpt>
      <trkpt lat="44.8426" lon="5.33552">
        <ele>1497.39</ele>
        <time>2017-05-20T11:37:15Z</time>
      </trkpt>
      <trkpt lat="44.84245" lon="5.33546">
        <ele>1499.79</ele>
        <time>2017-05-20T11:37:26Z</time>
      </trkpt>
      <trkpt lat="44.84237" lon="5.33544">
        <ele>1501.72</ele>
        <time>2017-05-20T11:37:34Z</time>
      </trkpt>
      <trkpt lat="44.8423" lon="5.33543">
        <ele>1503.64</ele>
        <time>2017-05-20T11:37:42Z</time>
      </trkpt>
      <trkpt lat="44.84213" lon="5.33546">
        <ele>1504.6</ele>
        <time>2017-05-20T11:37:54Z</time>
      </trkpt>
      <trkpt lat="44.84195" lon="5.33554">
        <ele>1505.08</ele>
        <time>2017-05-20T11:38:06Z</time>
      </trkpt>
      <trkpt lat="44.8419" lon="5.33558">
        <ele>1505.56</ele>
        <time>2017-05-20T11:38:09Z</time>
      </trkpt>
      <trkpt lat="44.84181" lon="5.33566">
        <ele>1506.52</ele>
        <time>2017-05-20T11:38:16Z</time>
      </trkpt>
      <trkpt lat="44.84172" lon="5.33582">
        <ele>1508.45</ele>
        <time>2017-05-20T11:38:25Z</time>
      </trkpt>
      <trkpt lat="44.84168" lon="5.33589">
        <ele>1508.45</ele>
        <time>2017-05-20T11:38:29Z</time>
      </trkpt>
      <trkpt lat="44.84164" lon="5.33596">
        <ele>1508.93</ele>
        <time>2017-05-20T11:38:33Z</time>
      </trkpt>
      <trkpt lat="44.84153" lon="5.33605">
        <ele>1509.41</ele>
        <time>2017-05-20T11:38:41Z</time>
      </trkpt>
      <trkpt lat="44.84137" lon="5.33614">
        <ele>1510.85</ele>
        <time>2017-05-20T11:38:53Z</time>
      </trkpt>
      <trkpt lat="44.84136" lon="5.33614">
        <ele>1510.85</ele>
        <time>2017-05-20T11:38:54Z</time>
      </trkpt>
      <trkpt lat="44.84122" lon="5.33616">
        <ele>1513.25</ele>
        <time>2017-05-20T11:39:07Z</time>
      </trkpt>
      <trkpt lat="44.84118" lon="5.33615">
        <ele>1513.73</ele>
        <time>2017-05-20T11:39:10Z</time>
      </trkpt>
      <trkpt lat="44.841" lon="5.33615">
        <ele>1515.66</ele>
        <time>2017-05-20T11:39:25Z</time>
      </trkpt>
      <trkpt lat="44.84091" lon="5.33617">
        <ele>1517.1</ele>
        <time>2017-05-20T11:39:34Z</time>
      </trkpt>
      <trkpt lat="44.84075" lon="5.33617">
        <ele>1519.5</ele>
        <time>2017-05-20T11:39:47Z</time>
      </trkpt>
      <trkpt lat="44.84057" lon="5.33615">
        <ele>1520.46</ele>
        <time>2017-05-20T11:39:59Z</time>
      </trkpt>
      <trkpt lat="44.84047" lon="5.33615">
        <ele>1521.42</ele>
        <time>2017-05-20T11:40:07Z</time>
      </trkpt>
      <trkpt lat="44.84034" lon="5.33613">
        <ele>1522.39</ele>
        <time>2017-05-20T11:40:17Z</time>
      </trkpt>
      <trkpt lat="44.8403" lon="5.3361">
        <ele>1522.87</ele>
        <time>2017-05-20T11:40:20Z</time>
      </trkpt>
      <trkpt lat="44.84022" lon="5.33608">
        <ele>1523.35</ele>
        <time>2017-05-20T11:40:26Z</time>
      </trkpt>
      <trkpt lat="44.84009" lon="5.33602">
        <ele>1525.27</ele>
        <time>2017-05-20T11:40:38Z</time>
      </trkpt>
      <trkpt lat="44.84007" lon="5.33599">
        <ele>1525.75</ele>
        <time>2017-05-20T11:40:40Z</time>
      </trkpt>
      <trkpt lat="44.84003" lon="5.33597">
        <ele>1526.23</ele>
        <time>2017-05-20T11:40:44Z</time>
      </trkpt>
      <trkpt lat="44.83999" lon="5.33592">
        <ele>1527.67</ele>
        <time>2017-05-20T11:40:50Z</time>
      </trkpt>
      <trkpt lat="44.83993" lon="5.33586">
        <ele>1528.63</ele>
        <time>2017-05-20T11:40:56Z</time>
      </trkpt>
      <trkpt lat="44.83976" lon="5.33575">
        <ele>1530.56</ele>
        <time>2017-05-20T11:41:11Z</time>
      </trkpt>
      <trkpt lat="44.83965" lon="5.33564">
        <ele>1532</ele>
        <time>2017-05-20T11:41:22Z</time>
      </trkpt>
      <trkpt lat="44.83964" lon="5.33561">
        <ele>1532.48</ele>
        <time>2017-05-20T11:41:24Z</time>
      </trkpt>
      <trkpt lat="44.83948" lon="5.33549">
        <ele>1532.96</ele>
        <time>2017-05-20T11:41:38Z</time>
      </trkpt>
      <trkpt lat="44.83918" lon="5.33533">
        <ele>1530.56</ele>
        <time>2017-05-20T11:41:51Z</time>
      </trkpt>
      <trkpt lat="44.83897" lon="5.33513">
        <ele>1531.52</ele>
        <time>2017-05-20T11:42:02Z</time>
      </trkpt>
      <trkpt lat="44.83878" lon="5.33495">
        <ele>1531.52</ele>
        <time>2017-05-20T11:42:14Z</time>
      </trkpt>
      <trkpt lat="44.83876" lon="5.33494">
        <ele>1531.52</ele>
        <time>2017-05-20T11:42:15Z</time>
      </trkpt>
      <trkpt lat="44.83868" lon="5.33484">
        <ele>1532</ele>
        <time>2017-05-20T11:42:22Z</time>
      </trkpt>
      <trkpt lat="44.83859" lon="5.33473">
        <ele>1532.48</ele>
        <time>2017-05-20T11:42:30Z</time>
      </trkpt>
      <trkpt lat="44.83852" lon="5.33464">
        <ele>1532.48</ele>
        <time>2017-05-20T11:42:36Z</time>
      </trkpt>
      <trkpt lat="44.8385" lon="5.33458">
        <ele>1532.96</ele>
        <time>2017-05-20T11:42:50Z</time>
      </trkpt>
      <trkpt lat="44.8385" lon="5.33457">
        <ele>1532.48</ele>
        <time>2017-05-20T11:42:52Z</time>
      </trkpt>
      <trkpt lat="44.83834" lon="5.33436">
        <ele>1531.04</ele>
        <time>2017-05-20T11:43:00Z</time>
      </trkpt>
      <trkpt lat="44.83832" lon="5.33435">
        <ele>1531.04</ele>
        <time>2017-05-20T11:43:01Z</time>
      </trkpt>
      <trkpt lat="44.83824" lon="5.33427">
        <ele>1532</ele>
        <time>2017-05-20T11:43:06Z</time>
      </trkpt>
      <trkpt lat="44.83808" lon="5.33407">
        <ele>1533.92</ele>
        <time>2017-05-20T11:43:18Z</time>
      </trkpt>
      <trkpt lat="44.83805" lon="5.33404">
        <ele>1534.4</ele>
        <time>2017-05-20T11:43:20Z</time>
      </trkpt>
      <trkpt lat="44.83779" lon="5.33382">
        <ele>1537.29</ele>
        <time>2017-05-20T11:43:36Z</time>
      </trkpt>
      <trkpt lat="44.83756" lon="5.33381">
        <ele>1538.73</ele>
        <time>2017-05-20T11:43:50Z</time>
      </trkpt>
      <trkpt lat="44.83733" lon="5.33382">
        <ele>1540.17</ele>
        <time>2017-05-20T11:44:04Z</time>
      </trkpt>
      <trkpt lat="44.83724" lon="5.33382">
        <ele>1540.65</ele>
        <time>2017-05-20T11:44:10Z</time>
      </trkpt>
      <trkpt lat="44.83714" lon="5.33388">
        <ele>1541.61</ele>
        <time>2017-05-20T11:44:18Z</time>
      </trkpt>
      <trkpt lat="44.83696" lon="5.33399">
        <ele>1542.57</ele>
        <time>2017-05-20T11:44:32Z</time>
      </trkpt>
      <trkpt lat="44.83694" lon="5.334">
        <ele>1542.57</ele>
        <time>2017-05-20T11:44:40Z</time>
      </trkpt>
      <trkpt lat="44.83681" lon="5.33411">
        <ele>1543.05</ele>
        <time>2017-05-20T11:44:52Z</time>
      </trkpt>
      <trkpt lat="44.83676" lon="5.33412">
        <ele>1544.01</ele>
        <time>2017-05-20T11:44:56Z</time>
      </trkpt>
      <trkpt lat="44.83661" lon="5.33411">
        <ele>1545.46</ele>
        <time>2017-05-20T11:45:08Z</time>
      </trkpt>
      <trkpt lat="44.83637" lon="5.33404">
        <ele>1548.82</ele>
        <time>2017-05-20T11:45:25Z</time>
      </trkpt>
      <trkpt lat="44.83628" lon="5.334">
        <ele>1550.26</ele>
        <time>2017-05-20T11:45:38Z</time>
      </trkpt>
      <trkpt lat="44.83618" lon="5.33395">
        <ele>1552.19</ele>
        <time>2017-05-20T11:45:52Z</time>
      </trkpt>
      <trkpt lat="44.83607" lon="5.33387">
        <ele>1553.63</ele>
        <time>2017-05-20T11:46:06Z</time>
      </trkpt>
      <trkpt lat="44.83593" lon="5.33382">
        <ele>1555.55</ele>
        <time>2017-05-20T11:46:22Z</time>
      </trkpt>
      <trkpt lat="44.83574" lon="5.33384">
        <ele>1555.55</ele>
        <time>2017-05-20T11:46:38Z</time>
      </trkpt>
      <trkpt lat="44.8357" lon="5.33384">
        <ele>1556.03</ele>
        <time>2017-05-20T11:46:43Z</time>
      </trkpt>
      <trkpt lat="44.83556" lon="5.33383">
        <ele>1557.47</ele>
        <time>2017-05-20T11:46:57Z</time>
      </trkpt>
      <trkpt lat="44.83543" lon="5.33381">
        <ele>1558.92</ele>
        <time>2017-05-20T11:47:12Z</time>
      </trkpt>
      <trkpt lat="44.8353" lon="5.33379">
        <ele>1561.32</ele>
        <time>2017-05-20T11:47:27Z</time>
      </trkpt>
      <trkpt lat="44.83519" lon="5.33377">
        <ele>1563.24</ele>
        <time>2017-05-20T11:47:40Z</time>
      </trkpt>
      <trkpt lat="44.83509" lon="5.33376">
        <ele>1564.68</ele>
        <time>2017-05-20T11:47:54Z</time>
      </trkpt>
      <trkpt lat="44.835" lon="5.33373">
        <ele>1566.12</ele>
        <time>2017-05-20T11:48:07Z</time>
      </trkpt>
      <trkpt lat="44.83487" lon="5.33371">
        <ele>1569.01</ele>
        <time>2017-05-20T11:48:23Z</time>
      </trkpt>
      <trkpt lat="44.83475" lon="5.33369">
        <ele>1571.41</ele>
        <time>2017-05-20T11:48:39Z</time>
      </trkpt>
      <trkpt lat="44.83465" lon="5.33368">
        <ele>1573.33</ele>
        <time>2017-05-20T11:48:52Z</time>
      </trkpt>
      <trkpt lat="44.8346" lon="5.33368">
        <ele>1574.3</ele>
        <time>2017-05-20T11:49:07Z</time>
      </trkpt>
      <trkpt lat="44.83449" lon="5.33373">
        <ele>1575.74</ele>
        <time>2017-05-20T11:49:23Z</time>
      </trkpt>
      <trkpt lat="44.83444" lon="5.33379">
        <ele>1576.22</ele>
        <time>2017-05-20T11:49:30Z</time>
      </trkpt>
      <trkpt lat="44.83433" lon="5.33383">
        <ele>1577.66</ele>
        <time>2017-05-20T11:49:42Z</time>
      </trkpt>
      <trkpt lat="44.83433" lon="5.33381">
        <ele>1578.14</ele>
        <time>2017-05-20T11:49:44Z</time>
      </trkpt>
      <trkpt lat="44.83423" lon="5.33379">
        <ele>1580.54</ele>
        <time>2017-05-20T11:49:58Z</time>
      </trkpt>
      <trkpt lat="44.83419" lon="5.33377">
        <ele>1581.51</ele>
        <time>2017-05-20T11:50:20Z</time>
      </trkpt>
      <trkpt lat="44.83415" lon="5.33374">
        <ele>1582.95</ele>
        <time>2017-05-20T11:50:34Z</time>
      </trkpt>
      <trkpt lat="44.83415" lon="5.33374">
        <ele>1582.47</ele>
        <time>2017-05-20T11:51:06Z</time>
      </trkpt>
      <trkpt lat="44.83416" lon="5.33374">
        <ele>1582.95</ele>
        <time>2017-05-20T11:51:31Z</time>
      </trkpt>
      <trkpt lat="44.83404" lon="5.33368">
        <ele>1584.87</ele>
        <time>2017-05-20T11:51:46Z</time>
      </trkpt>
      <trkpt lat="44.83394" lon="5.33366">
        <ele>1588.24</ele>
        <time>2017-05-20T11:51:59Z</time>
      </trkpt>
      <trkpt lat="44.83388" lon="5.33366">
        <ele>1589.68</ele>
        <time>2017-05-20T11:52:06Z</time>
      </trkpt>
      <trkpt lat="44.83381" lon="5.33369">
        <ele>1590.64</ele>
        <time>2017-05-20T11:52:21Z</time>
      </trkpt>
      <trkpt lat="44.83373" lon="5.33369">
        <ele>1592.08</ele>
        <time>2017-05-20T11:52:34Z</time>
      </trkpt>
      <trkpt lat="44.83361" lon="5.33367">
        <ele>1594.96</ele>
        <time>2017-05-20T11:52:48Z</time>
      </trkpt>
      <trkpt lat="44.83355" lon="5.33366">
        <ele>1595.93</ele>
        <time>2017-05-20T11:52:55Z</time>
      </trkpt>
      <trkpt lat="44.83353" lon="5.33365">
        <ele>1595.93</ele>
        <time>2017-05-20T11:52:57Z</time>
      </trkpt>
      <trkpt lat="44.83347" lon="5.33361">
        <ele>1596.89</ele>
        <time>2017-05-20T11:53:05Z</time>
      </trkpt>
      <trkpt lat="44.83344" lon="5.33361">
        <ele>1597.85</ele>
        <time>2017-05-20T11:53:09Z</time>
      </trkpt>
      <trkpt lat="44.83335" lon="5.33354">
        <ele>1599.29</ele>
        <time>2017-05-20T11:53:22Z</time>
      </trkpt>
      <trkpt lat="44.83331" lon="5.33353">
        <ele>1601.21</ele>
        <time>2017-05-20T11:53:34Z</time>
      </trkpt>
      <trkpt lat="44.83319" lon="5.33347">
        <ele>1603.14</ele>
        <time>2017-05-20T11:53:49Z</time>
      </trkpt>
      <trkpt lat="44.83312" lon="5.3334">
        <ele>1606.02</ele>
        <time>2017-05-20T11:54:01Z</time>
      </trkpt>
      <trkpt lat="44.83312" lon="5.3334">
        <ele>1605.54</ele>
        <time>2017-05-20T11:54:17Z</time>
      </trkpt>
      <trkpt lat="44.83312" lon="5.3334">
        <ele>1605.06</ele>
        <time>2017-05-20T11:54:56Z</time>
      </trkpt>
      <trkpt lat="44.83307" lon="5.33335">
        <ele>1607.46</ele>
        <time>2017-05-20T11:55:11Z</time>
      </trkpt>
      <trkpt lat="44.83298" lon="5.33329">
        <ele>1609.38</ele>
        <time>2017-05-20T11:55:25Z</time>
      </trkpt>
      <trkpt lat="44.83286" lon="5.33319">
        <ele>1612.27</ele>
        <time>2017-05-20T11:55:42Z</time>
      </trkpt>
      <trkpt lat="44.83285" lon="5.33317">
        <ele>1612.27</ele>
        <time>2017-05-20T11:55:44Z</time>
      </trkpt>
      <trkpt lat="44.83282" lon="5.33307">
        <ele>1613.23</ele>
        <time>2017-05-20T11:55:56Z</time>
      </trkpt>
      <trkpt lat="44.83281" lon="5.33307">
        <ele>1613.71</ele>
        <time>2017-05-20T11:55:58Z</time>
      </trkpt>
      <trkpt lat="44.83272" lon="5.33297">
        <ele>1615.63</ele>
        <time>2017-05-20T11:56:11Z</time>
      </trkpt>
      <trkpt lat="44.83265" lon="5.33286">
        <ele>1618.04</ele>
        <time>2017-05-20T11:56:23Z</time>
      </trkpt>
      <trkpt lat="44.83261" lon="5.33279">
        <ele>1618.52</ele>
        <time>2017-05-20T11:56:29Z</time>
      </trkpt>
      <trkpt lat="44.83254" lon="5.33262">
        <ele>1621.4</ele>
        <time>2017-05-20T11:56:45Z</time>
      </trkpt>
      <trkpt lat="44.83253" lon="5.33257">
        <ele>1621.4</ele>
        <time>2017-05-20T11:56:49Z</time>
      </trkpt>
      <trkpt lat="44.83248" lon="5.33249">
        <ele>1622.36</ele>
        <time>2017-05-20T11:56:57Z</time>
      </trkpt>
      <trkpt lat="44.83241" lon="5.33229">
        <ele>1623.32</ele>
        <time>2017-05-20T11:57:14Z</time>
      </trkpt>
      <trkpt lat="44.83231" lon="5.3322">
        <ele>1621.88</ele>
        <time>2017-05-20T11:57:22Z</time>
      </trkpt>
      <trkpt lat="44.83216" lon="5.33204">
        <ele>1619.48</ele>
        <time>2017-05-20T11:57:29Z</time>
      </trkpt>
      <trkpt lat="44.83211" lon="5.33202">
        <ele>1618.52</ele>
        <time>2017-05-20T11:57:30Z</time>
      </trkpt>
      <trkpt lat="44.83195" lon="5.33195">
        <ele>1614.67</ele>
        <time>2017-05-20T11:57:33Z</time>
      </trkpt>
      <trkpt lat="44.83189" lon="5.33194">
        <ele>1613.71</ele>
        <time>2017-05-20T11:57:34Z</time>
      </trkpt>
      <trkpt lat="44.83182" lon="5.33195">
        <ele>1611.79</ele>
        <time>2017-05-20T11:57:35Z</time>
      </trkpt>
      <trkpt lat="44.83174" lon="5.33197">
        <ele>1610.35</ele>
        <time>2017-05-20T11:57:36Z</time>
      </trkpt>
      <trkpt lat="44.8316" lon="5.33201">
        <ele>1609.38</ele>
        <time>2017-05-20T11:57:38Z</time>
      </trkpt>
      <trkpt lat="44.83156" lon="5.33201">
        <ele>1610.35</ele>
        <time>2017-05-20T11:57:39Z</time>
      </trkpt>
      <trkpt lat="44.83153" lon="5.332">
        <ele>1611.31</ele>
        <time>2017-05-20T11:57:40Z</time>
      </trkpt>
      <trkpt lat="44.83146" lon="5.332">
        <ele>1613.71</ele>
        <time>2017-05-20T11:57:48Z</time>
      </trkpt>
      <trkpt lat="44.83145" lon="5.33199">
        <ele>1613.71</ele>
        <time>2017-05-20T11:57:49Z</time>
      </trkpt>
      <trkpt lat="44.83143" lon="5.33199">
        <ele>1614.19</ele>
        <time>2017-05-20T11:57:50Z</time>
      </trkpt>
      <trkpt lat="44.83133" lon="5.33196">
        <ele>1617.07</ele>
        <time>2017-05-20T11:58:01Z</time>
      </trkpt>
      <trkpt lat="44.83132" lon="5.33196">
        <ele>1617.56</ele>
        <time>2017-05-20T11:58:03Z</time>
      </trkpt>
      <trkpt lat="44.83125" lon="5.33192">
        <ele>1619.96</ele>
        <time>2017-05-20T11:58:15Z</time>
      </trkpt>
      <trkpt lat="44.83123" lon="5.33192">
        <ele>1620.44</ele>
        <time>2017-05-20T11:58:29Z</time>
      </trkpt>
      <trkpt lat="44.83118" lon="5.33188">
        <ele>1622.36</ele>
        <time>2017-05-20T11:58:40Z</time>
      </trkpt>
      <trkpt lat="44.83114" lon="5.33188">
        <ele>1623.32</ele>
        <time>2017-05-20T11:58:45Z</time>
      </trkpt>
      <trkpt lat="44.83108" lon="5.33186">
        <ele>1625.25</ele>
        <time>2017-05-20T11:58:56Z</time>
      </trkpt>
      <trkpt lat="44.83098" lon="5.33184">
        <ele>1627.65</ele>
        <time>2017-05-20T11:59:10Z</time>
      </trkpt>
      <trkpt lat="44.83087" lon="5.33179">
        <ele>1630.53</ele>
        <time>2017-05-20T11:59:24Z</time>
      </trkpt>
      <trkpt lat="44.83078" lon="5.33174">
        <ele>1632.94</ele>
        <time>2017-05-20T11:59:38Z</time>
      </trkpt>
      <trkpt lat="44.83069" lon="5.3317">
        <ele>1635.34</ele>
        <time>2017-05-20T11:59:50Z</time>
      </trkpt>
      <trkpt lat="44.83064" lon="5.33168">
        <ele>1636.3</ele>
        <time>2017-05-20T11:59:55Z</time>
      </trkpt>
      <trkpt lat="44.83057" lon="5.33165">
        <ele>1637.26</ele>
        <time>2017-05-20T12:00:04Z</time>
      </trkpt>
      <trkpt lat="44.83043" lon="5.33161">
        <ele>1639.19</ele>
        <time>2017-05-20T12:00:18Z</time>
      </trkpt>
      <trkpt lat="44.8304" lon="5.3316">
        <ele>1639.19</ele>
        <time>2017-05-20T12:00:24Z</time>
      </trkpt>
      <trkpt lat="44.83038" lon="5.3316">
        <ele>1639.67</ele>
        <time>2017-05-20T12:00:25Z</time>
      </trkpt>
      <trkpt lat="44.83037" lon="5.3316">
        <ele>1639.19</ele>
        <time>2017-05-20T12:00:26Z</time>
      </trkpt>
      <trkpt lat="44.83035" lon="5.33159">
        <ele>1639.19</ele>
        <time>2017-05-20T12:00:27Z</time>
      </trkpt>
      <trkpt lat="44.83033" lon="5.33157">
        <ele>1639.67</ele>
        <time>2017-05-20T12:00:28Z</time>
      </trkpt>
      <trkpt lat="44.83031" lon="5.33157">
        <ele>1639.67</ele>
        <time>2017-05-20T12:00:29Z</time>
      </trkpt>
      <trkpt lat="44.8303" lon="5.33156">
        <ele>1640.15</ele>
        <time>2017-05-20T12:00:30Z</time>
      </trkpt>
      <trkpt lat="44.83028" lon="5.33155">
        <ele>1640.15</ele>
        <time>2017-05-20T12:00:31Z</time>
      </trkpt>
      <trkpt lat="44.83025" lon="5.33154">
        <ele>1639.67</ele>
        <time>2017-05-20T12:00:40Z</time>
      </trkpt>
      <trkpt lat="44.83025" lon="5.33154">
        <ele>1640.15</ele>
        <time>2017-05-20T12:00:46Z</time>
      </trkpt>
      <trkpt lat="44.83025" lon="5.33155">
        <ele>1640.15</ele>
        <time>2017-05-20T12:05:56Z</time>
      </trkpt>
      <trkpt lat="44.83025" lon="5.33155">
        <ele>1639.67</ele>
        <time>2017-05-20T12:05:57Z</time>
      </trkpt>
      <trkpt lat="44.83023" lon="5.33156">
        <ele>1639.67</ele>
        <time>2017-05-20T12:06:01Z</time>
      </trkpt>
      <trkpt lat="44.83016" lon="5.33161">
        <ele>1639.19</ele>
        <time>2017-05-20T12:06:10Z</time>
      </trkpt>
      <trkpt lat="44.83016" lon="5.33161">
        <ele>1640.63</ele>
        <time>2017-05-20T12:06:27Z</time>
      </trkpt>
      <trkpt lat="44.82995" lon="5.33183">
        <ele>1637.26</ele>
        <time>2017-05-20T12:06:40Z</time>
      </trkpt>
      <trkpt lat="44.82989" lon="5.332">
        <ele>1633.9</ele>
        <time>2017-05-20T12:06:46Z</time>
      </trkpt>
      <trkpt lat="44.82983" lon="5.33216">
        <ele>1631.01</ele>
        <time>2017-05-20T12:06:50Z</time>
      </trkpt>
      <trkpt lat="44.82982" lon="5.33218">
        <ele>1628.61</ele>
        <time>2017-05-20T12:06:59Z</time>
      </trkpt>
      <trkpt lat="44.82982" lon="5.33219">
        <ele>1629.09</ele>
        <time>2017-05-20T12:07:13Z</time>
      </trkpt>
      <trkpt lat="44.82982" lon="5.33219">
        <ele>1628.61</ele>
        <time>2017-05-20T12:07:14Z</time>
      </trkpt>
      <trkpt lat="44.8298" lon="5.33238">
        <ele>1626.21</ele>
        <time>2017-05-20T12:07:19Z</time>
      </trkpt>
      <trkpt lat="44.82976" lon="5.33255">
        <ele>1621.4</ele>
        <time>2017-05-20T12:07:23Z</time>
      </trkpt>
      <trkpt lat="44.82973" lon="5.33269">
        <ele>1618.52</ele>
        <time>2017-05-20T12:07:26Z</time>
      </trkpt>
      <trkpt lat="44.82973" lon="5.3328">
        <ele>1614.19</ele>
        <time>2017-05-20T12:07:29Z</time>
      </trkpt>
      <trkpt lat="44.82973" lon="5.33294">
        <ele>1610.83</ele>
        <time>2017-05-20T12:07:32Z</time>
      </trkpt>
      <trkpt lat="44.82972" lon="5.33307">
        <ele>1607.46</ele>
        <time>2017-05-20T12:07:35Z</time>
      </trkpt>
      <trkpt lat="44.82968" lon="5.33315">
        <ele>1604.58</ele>
        <time>2017-05-20T12:07:39Z</time>
      </trkpt>
      <trkpt lat="44.82968" lon="5.33315">
        <ele>1604.1</ele>
        <time>2017-05-20T12:07:42Z</time>
      </trkpt>
      <trkpt lat="44.82964" lon="5.33327">
        <ele>1601.21</ele>
        <time>2017-05-20T12:07:48Z</time>
      </trkpt>
      <trkpt lat="44.82961" lon="5.33335">
        <ele>1598.33</ele>
        <time>2017-05-20T12:07:51Z</time>
      </trkpt>
      <trkpt lat="44.82959" lon="5.33347">
        <ele>1594.96</ele>
        <time>2017-05-20T12:07:55Z</time>
      </trkpt>
      <trkpt lat="44.82958" lon="5.33349">
        <ele>1594.96</ele>
        <time>2017-05-20T12:07:56Z</time>
      </trkpt>
      <trkpt lat="44.82958" lon="5.33351">
        <ele>1594.48</ele>
        <time>2017-05-20T12:07:57Z</time>
      </trkpt>
      <trkpt lat="44.82951" lon="5.33365">
        <ele>1590.16</ele>
        <time>2017-05-20T12:08:04Z</time>
      </trkpt>
      <trkpt lat="44.8295" lon="5.33368">
        <ele>1590.16</ele>
        <time>2017-05-20T12:08:05Z</time>
      </trkpt>
      <trkpt lat="44.82944" lon="5.33381">
        <ele>1586.79</ele>
        <time>2017-05-20T12:08:08Z</time>
      </trkpt>
      <trkpt lat="44.82938" lon="5.33401">
        <ele>1582.47</ele>
        <time>2017-05-20T12:08:12Z</time>
      </trkpt>
      <trkpt lat="44.82934" lon="5.33415">
        <ele>1580.06</ele>
        <time>2017-05-20T12:08:15Z</time>
      </trkpt>
      <trkpt lat="44.82937" lon="5.33426">
        <ele>1576.7</ele>
        <time>2017-05-20T12:08:17Z</time>
      </trkpt>
      <trkpt lat="44.82938" lon="5.33432">
        <ele>1575.74</ele>
        <time>2017-05-20T12:08:18Z</time>
      </trkpt>
      <trkpt lat="44.8294" lon="5.33437">
        <ele>1574.78</ele>
        <time>2017-05-20T12:08:19Z</time>
      </trkpt>
      <trkpt lat="44.82943" lon="5.33443">
        <ele>1572.85</ele>
        <time>2017-05-20T12:08:20Z</time>
      </trkpt>
      <trkpt lat="44.82946" lon="5.33449">
        <ele>1571.41</ele>
        <time>2017-05-20T12:08:21Z</time>
      </trkpt>
      <trkpt lat="44.8295" lon="5.33454">
        <ele>1570.45</ele>
        <time>2017-05-20T12:08:22Z</time>
      </trkpt>
      <trkpt lat="44.82968" lon="5.33478">
        <ele>1566.12</ele>
        <time>2017-05-20T12:08:26Z</time>
      </trkpt>
      <trkpt lat="44.82972" lon="5.33485">
        <ele>1566.12</ele>
        <time>2017-05-20T12:08:27Z</time>
      </trkpt>
      <trkpt lat="44.82981" lon="5.33497">
        <ele>1563.24</ele>
        <time>2017-05-20T12:08:29Z</time>
      </trkpt>
      <trkpt lat="44.82986" lon="5.33505">
        <ele>1563.72</ele>
        <time>2017-05-20T12:08:30Z</time>
      </trkpt>
      <trkpt lat="44.83003" lon="5.33536">
        <ele>1562.76</ele>
        <time>2017-05-20T12:08:34Z</time>
      </trkpt>
      <trkpt lat="44.83007" lon="5.33542">
        <ele>1559.4</ele>
        <time>2017-05-20T12:08:35Z</time>
      </trkpt>
      <trkpt lat="44.83014" lon="5.33553">
        <ele>1556.51</ele>
        <time>2017-05-20T12:08:37Z</time>
      </trkpt>
      <trkpt lat="44.83017" lon="5.33559">
        <ele>1556.03</ele>
        <time>2017-05-20T12:08:38Z</time>
      </trkpt>
      <trkpt lat="44.83023" lon="5.3357">
        <ele>1555.07</ele>
        <time>2017-05-20T12:08:40Z</time>
      </trkpt>
      <trkpt lat="44.83043" lon="5.33612">
        <ele>1551.22</ele>
        <time>2017-05-20T12:08:50Z</time>
      </trkpt>
      <trkpt lat="44.83045" lon="5.33623">
        <ele>1550.74</ele>
        <time>2017-05-20T12:09:00Z</time>
      </trkpt>
      <trkpt lat="44.83045" lon="5.33623">
        <ele>1552.19</ele>
        <time>2017-05-20T12:09:09Z</time>
      </trkpt>
      <trkpt lat="44.83046" lon="5.33625">
        <ele>1552.67</ele>
        <time>2017-05-20T12:09:10Z</time>
      </trkpt>
      <trkpt lat="44.83053" lon="5.33641">
        <ele>1549.3</ele>
        <time>2017-05-20T12:09:15Z</time>
      </trkpt>
      <trkpt lat="44.83061" lon="5.33661">
        <ele>1546.42</ele>
        <time>2017-05-20T12:09:20Z</time>
      </trkpt>
      <trkpt lat="44.83064" lon="5.33666">
        <ele>1545.46</ele>
        <time>2017-05-20T12:09:21Z</time>
      </trkpt>
      <trkpt lat="44.83067" lon="5.33671">
        <ele>1543.53</ele>
        <time>2017-05-20T12:09:22Z</time>
      </trkpt>
      <trkpt lat="44.83069" lon="5.33676">
        <ele>1542.09</ele>
        <time>2017-05-20T12:09:23Z</time>
      </trkpt>
      <trkpt lat="44.83071" lon="5.33681">
        <ele>1541.13</ele>
        <time>2017-05-20T12:09:24Z</time>
      </trkpt>
      <trkpt lat="44.83073" lon="5.33687">
        <ele>1540.65</ele>
        <time>2017-05-20T12:09:25Z</time>
      </trkpt>
      <trkpt lat="44.83074" lon="5.33692">
        <ele>1539.69</ele>
        <time>2017-05-20T12:09:26Z</time>
      </trkpt>
      <trkpt lat="44.83076" lon="5.33698">
        <ele>1539.69</ele>
        <time>2017-05-20T12:09:27Z</time>
      </trkpt>
      <trkpt lat="44.8308" lon="5.33705">
        <ele>1535.84</ele>
        <time>2017-05-20T12:09:29Z</time>
      </trkpt>
      <trkpt lat="44.83081" lon="5.33708">
        <ele>1535.84</ele>
        <time>2017-05-20T12:09:30Z</time>
      </trkpt>
      <trkpt lat="44.83088" lon="5.33732">
        <ele>1532.48</ele>
        <time>2017-05-20T12:09:35Z</time>
      </trkpt>
      <trkpt lat="44.83094" lon="5.3375">
        <ele>1528.15</ele>
        <time>2017-05-20T12:09:38Z</time>
      </trkpt>
      <trkpt lat="44.831" lon="5.33773">
        <ele>1524.31</ele>
        <time>2017-05-20T12:09:42Z</time>
      </trkpt>
      <trkpt lat="44.83104" lon="5.33787">
        <ele>1521.42</ele>
        <time>2017-05-20T12:09:44Z</time>
      </trkpt>
      <trkpt lat="44.83107" lon="5.3381">
        <ele>1519.98</ele>
        <time>2017-05-20T12:09:47Z</time>
      </trkpt>
      <trkpt lat="44.83111" lon="5.33824">
        <ele>1518.06</ele>
        <time>2017-05-20T12:09:49Z</time>
      </trkpt>
      <trkpt lat="44.83112" lon="5.3383">
        <ele>1517.1</ele>
        <time>2017-05-20T12:09:50Z</time>
      </trkpt>
      <trkpt lat="44.83112" lon="5.33842">
        <ele>1515.66</ele>
        <time>2017-05-20T12:09:52Z</time>
      </trkpt>
      <trkpt lat="44.83113" lon="5.33846">
        <ele>1514.69</ele>
        <time>2017-05-20T12:09:53Z</time>
      </trkpt>
      <trkpt lat="44.83114" lon="5.33848">
        <ele>1514.69</ele>
        <time>2017-05-20T12:09:54Z</time>
      </trkpt>
      <trkpt lat="44.83115" lon="5.3385">
        <ele>1514.21</ele>
        <time>2017-05-20T12:09:55Z</time>
      </trkpt>
      <trkpt lat="44.83116" lon="5.33852">
        <ele>1513.73</ele>
        <time>2017-05-20T12:09:56Z</time>
      </trkpt>
      <trkpt lat="44.83117" lon="5.33854">
        <ele>1513.73</ele>
        <time>2017-05-20T12:09:57Z</time>
      </trkpt>
      <trkpt lat="44.83118" lon="5.33855">
        <ele>1512.77</ele>
        <time>2017-05-20T12:09:58Z</time>
      </trkpt>
      <trkpt lat="44.83121" lon="5.33861">
        <ele>1511.81</ele>
        <time>2017-05-20T12:10:00Z</time>
      </trkpt>
      <trkpt lat="44.83123" lon="5.33868">
        <ele>1510.85</ele>
        <time>2017-05-20T12:10:02Z</time>
      </trkpt>
      <trkpt lat="44.83124" lon="5.33871">
        <ele>1510.37</ele>
        <time>2017-05-20T12:10:03Z</time>
      </trkpt>
      <trkpt lat="44.83125" lon="5.33875">
        <ele>1508.93</ele>
        <time>2017-05-20T12:10:04Z</time>
      </trkpt>
      <trkpt lat="44.83127" lon="5.33878">
        <ele>1508.45</ele>
        <time>2017-05-20T12:10:05Z</time>
      </trkpt>
      <trkpt lat="44.83128" lon="5.33881">
        <ele>1507.97</ele>
        <time>2017-05-20T12:10:06Z</time>
      </trkpt>
      <trkpt lat="44.83133" lon="5.33895">
        <ele>1504.6</ele>
        <time>2017-05-20T12:10:10Z</time>
      </trkpt>
      <trkpt lat="44.83136" lon="5.33905">
        <ele>1504.12</ele>
        <time>2017-05-20T12:10:12Z</time>
      </trkpt>
      <trkpt lat="44.83144" lon="5.33931">
        <ele>1501.24</ele>
        <time>2017-05-20T12:10:18Z</time>
      </trkpt>
      <trkpt lat="44.83145" lon="5.33934">
        <ele>1500.27</ele>
        <time>2017-05-20T12:10:19Z</time>
      </trkpt>
      <trkpt lat="44.83147" lon="5.33937">
        <ele>1498.35</ele>
        <time>2017-05-20T12:10:20Z</time>
      </trkpt>
      <trkpt lat="44.83149" lon="5.33941">
        <ele>1498.35</ele>
        <time>2017-05-20T12:10:21Z</time>
      </trkpt>
      <trkpt lat="44.8315" lon="5.33946">
        <ele>1498.35</ele>
        <time>2017-05-20T12:10:22Z</time>
      </trkpt>
      <trkpt lat="44.83151" lon="5.3395">
        <ele>1497.87</ele>
        <time>2017-05-20T12:10:23Z</time>
      </trkpt>
      <trkpt lat="44.83152" lon="5.33954">
        <ele>1497.39</ele>
        <time>2017-05-20T12:10:24Z</time>
      </trkpt>
      <trkpt lat="44.83154" lon="5.33959">
        <ele>1496.43</ele>
        <time>2017-05-20T12:10:25Z</time>
      </trkpt>
      <trkpt lat="44.83164" lon="5.33997">
        <ele>1497.39</ele>
        <time>2017-05-20T12:10:34Z</time>
      </trkpt>
      <trkpt lat="44.83165" lon="5.34">
        <ele>1497.39</ele>
        <time>2017-05-20T12:10:35Z</time>
      </trkpt>
      <trkpt lat="44.83167" lon="5.34003">
        <ele>1496.91</ele>
        <time>2017-05-20T12:10:36Z</time>
      </trkpt>
      <trkpt lat="44.83169" lon="5.34007">
        <ele>1496.43</ele>
        <time>2017-05-20T12:10:37Z</time>
      </trkpt>
      <trkpt lat="44.83172" lon="5.34012">
        <ele>1494.99</ele>
        <time>2017-05-20T12:10:38Z</time>
      </trkpt>
      <trkpt lat="44.83175" lon="5.34017">
        <ele>1494.51</ele>
        <time>2017-05-20T12:10:39Z</time>
      </trkpt>
      <trkpt lat="44.83177" lon="5.3402">
        <ele>1494.03</ele>
        <time>2017-05-20T12:10:40Z</time>
      </trkpt>
      <trkpt lat="44.83179" lon="5.34025">
        <ele>1492.58</ele>
        <time>2017-05-20T12:10:41Z</time>
      </trkpt>
      <trkpt lat="44.83181" lon="5.3403">
        <ele>1492.58</ele>
        <time>2017-05-20T12:10:42Z</time>
      </trkpt>
      <trkpt lat="44.83182" lon="5.34034">
        <ele>1492.58</ele>
        <time>2017-05-20T12:10:43Z</time>
      </trkpt>
      <trkpt lat="44.83183" lon="5.34039">
        <ele>1492.58</ele>
        <time>2017-05-20T12:10:44Z</time>
      </trkpt>
      <trkpt lat="44.83184" lon="5.34043">
        <ele>1492.58</ele>
        <time>2017-05-20T12:10:45Z</time>
      </trkpt>
      <trkpt lat="44.83186" lon="5.34048">
        <ele>1492.1</ele>
        <time>2017-05-20T12:10:46Z</time>
      </trkpt>
      <trkpt lat="44.83187" lon="5.34053">
        <ele>1492.58</ele>
        <time>2017-05-20T12:10:47Z</time>
      </trkpt>
      <trkpt lat="44.83188" lon="5.34057">
        <ele>1493.06</ele>
        <time>2017-05-20T12:10:48Z</time>
      </trkpt>
      <trkpt lat="44.8319" lon="5.34062">
        <ele>1493.55</ele>
        <time>2017-05-20T12:10:50Z</time>
      </trkpt>
      <trkpt lat="44.83197" lon="5.34081">
        <ele>1493.55</ele>
        <time>2017-05-20T12:10:56Z</time>
      </trkpt>
      <trkpt lat="44.83197" lon="5.34084">
        <ele>1493.55</ele>
        <time>2017-05-20T12:10:57Z</time>
      </trkpt>
      <trkpt lat="44.83197" lon="5.34087">
        <ele>1492.58</ele>
        <time>2017-05-20T12:10:58Z</time>
      </trkpt>
      <trkpt lat="44.83197" lon="5.34091">
        <ele>1491.62</ele>
        <time>2017-05-20T12:10:59Z</time>
      </trkpt>
      <trkpt lat="44.832" lon="5.34099">
        <ele>1491.62</ele>
        <time>2017-05-20T12:11:01Z</time>
      </trkpt>
      <trkpt lat="44.832" lon="5.34103">
        <ele>1491.62</ele>
        <time>2017-05-20T12:11:02Z</time>
      </trkpt>
      <trkpt lat="44.832" lon="5.34122">
        <ele>1492.58</ele>
        <time>2017-05-20T12:11:07Z</time>
      </trkpt>
      <trkpt lat="44.83201" lon="5.34125">
        <ele>1492.58</ele>
        <time>2017-05-20T12:11:08Z</time>
      </trkpt>
      <trkpt lat="44.83205" lon="5.34155">
        <ele>1489.22</ele>
        <time>2017-05-20T12:11:14Z</time>
      </trkpt>
      <trkpt lat="44.83209" lon="5.34171">
        <ele>1485.85</ele>
        <time>2017-05-20T12:11:17Z</time>
      </trkpt>
      <trkpt lat="44.83215" lon="5.34211">
        <ele>1483.93</ele>
        <time>2017-05-20T12:11:26Z</time>
      </trkpt>
      <trkpt lat="44.83222" lon="5.34231">
        <ele>1481.05</ele>
        <time>2017-05-20T12:11:29Z</time>
      </trkpt>
      <trkpt lat="44.83223" lon="5.34238">
        <ele>1479.61</ele>
        <time>2017-05-20T12:11:30Z</time>
      </trkpt>
      <trkpt lat="44.83225" lon="5.34245">
        <ele>1477.68</ele>
        <time>2017-05-20T12:11:31Z</time>
      </trkpt>
      <trkpt lat="44.83226" lon="5.34251">
        <ele>1476.72</ele>
        <time>2017-05-20T12:11:32Z</time>
      </trkpt>
      <trkpt lat="44.83226" lon="5.34257">
        <ele>1475.28</ele>
        <time>2017-05-20T12:11:33Z</time>
      </trkpt>
      <trkpt lat="44.83227" lon="5.3427">
        <ele>1474.32</ele>
        <time>2017-05-20T12:11:35Z</time>
      </trkpt>
      <trkpt lat="44.83229" lon="5.34302">
        <ele>1470.47</ele>
        <time>2017-05-20T12:11:41Z</time>
      </trkpt>
      <trkpt lat="44.8323" lon="5.34318">
        <ele>1466.63</ele>
        <time>2017-05-20T12:11:44Z</time>
      </trkpt>
      <trkpt lat="44.8323" lon="5.34329">
        <ele>1464.71</ele>
        <time>2017-05-20T12:11:46Z</time>
      </trkpt>
      <trkpt lat="44.8323" lon="5.34335">
        <ele>1464.23</ele>
        <time>2017-05-20T12:11:47Z</time>
      </trkpt>
      <trkpt lat="44.8323" lon="5.34342">
        <ele>1463.74</ele>
        <time>2017-05-20T12:11:48Z</time>
      </trkpt>
      <trkpt lat="44.8323" lon="5.34355">
        <ele>1459.9</ele>
        <time>2017-05-20T12:11:50Z</time>
      </trkpt>
      <trkpt lat="44.83231" lon="5.34362">
        <ele>1457.98</ele>
        <time>2017-05-20T12:11:51Z</time>
      </trkpt>
      <trkpt lat="44.83231" lon="5.34369">
        <ele>1456.53</ele>
        <time>2017-05-20T12:11:52Z</time>
      </trkpt>
      <trkpt lat="44.83232" lon="5.34387">
        <ele>1452.21</ele>
        <time>2017-05-20T12:11:54Z</time>
      </trkpt>
      <trkpt lat="44.83231" lon="5.34395">
        <ele>1448.84</ele>
        <time>2017-05-20T12:11:55Z</time>
      </trkpt>
      <trkpt lat="44.83229" lon="5.34412">
        <ele>1445.48</ele>
        <time>2017-05-20T12:11:57Z</time>
      </trkpt>
      <trkpt lat="44.83227" lon="5.3443">
        <ele>1441.63</ele>
        <time>2017-05-20T12:11:59Z</time>
      </trkpt>
      <trkpt lat="44.83227" lon="5.34439">
        <ele>1440.67</ele>
        <time>2017-05-20T12:12:00Z</time>
      </trkpt>
      <trkpt lat="44.83227" lon="5.34447">
        <ele>1439.71</ele>
        <time>2017-05-20T12:12:01Z</time>
      </trkpt>
      <trkpt lat="44.83227" lon="5.34453">
        <ele>1437.79</ele>
        <time>2017-05-20T12:12:02Z</time>
      </trkpt>
      <trkpt lat="44.83228" lon="5.34459">
        <ele>1436.83</ele>
        <time>2017-05-20T12:12:03Z</time>
      </trkpt>
      <trkpt lat="44.83227" lon="5.34464">
        <ele>1435.87</ele>
        <time>2017-05-20T12:12:04Z</time>
      </trkpt>
      <trkpt lat="44.83226" lon="5.3447">
        <ele>1435.39</ele>
        <time>2017-05-20T12:12:05Z</time>
      </trkpt>
      <trkpt lat="44.83228" lon="5.34477">
        <ele>1432.98</ele>
        <time>2017-05-20T12:12:06Z</time>
      </trkpt>
      <trkpt lat="44.8323" lon="5.34484">
        <ele>1431.06</ele>
        <time>2017-05-20T12:12:07Z</time>
      </trkpt>
      <trkpt lat="44.83232" lon="5.3449">
        <ele>1431.06</ele>
        <time>2017-05-20T12:12:08Z</time>
      </trkpt>
      <trkpt lat="44.83233" lon="5.34495">
        <ele>1431.06</ele>
        <time>2017-05-20T12:12:09Z</time>
      </trkpt>
      <trkpt lat="44.83232" lon="5.34501">
        <ele>1430.58</ele>
        <time>2017-05-20T12:12:10Z</time>
      </trkpt>
      <trkpt lat="44.83231" lon="5.34507">
        <ele>1429.14</ele>
        <time>2017-05-20T12:12:11Z</time>
      </trkpt>
      <trkpt lat="44.83228" lon="5.34512">
        <ele>1428.18</ele>
        <time>2017-05-20T12:12:12Z</time>
      </trkpt>
      <trkpt lat="44.83226" lon="5.34515">
        <ele>1429.14</ele>
        <time>2017-05-20T12:12:13Z</time>
      </trkpt>
      <trkpt lat="44.83224" lon="5.34517">
        <ele>1430.1</ele>
        <time>2017-05-20T12:12:14Z</time>
      </trkpt>
      <trkpt lat="44.83221" lon="5.3452">
        <ele>1430.58</ele>
        <time>2017-05-20T12:12:16Z</time>
      </trkpt>
      <trkpt lat="44.83219" lon="5.34523">
        <ele>1431.06</ele>
        <time>2017-05-20T12:12:17Z</time>
      </trkpt>
      <trkpt lat="44.83219" lon="5.34527">
        <ele>1431.06</ele>
        <time>2017-05-20T12:12:18Z</time>
      </trkpt>
      <trkpt lat="44.83216" lon="5.34565">
        <ele>1434.42</ele>
        <time>2017-05-20T12:12:29Z</time>
      </trkpt>
      <trkpt lat="44.83217" lon="5.34574">
        <ele>1435.87</ele>
        <time>2017-05-20T12:12:33Z</time>
      </trkpt>
      <trkpt lat="44.83217" lon="5.34576">
        <ele>1436.35</ele>
        <time>2017-05-20T12:12:34Z</time>
      </trkpt>
      <trkpt lat="44.83216" lon="5.34577">
        <ele>1436.83</ele>
        <time>2017-05-20T12:12:35Z</time>
      </trkpt>
      <trkpt lat="44.83216" lon="5.34579">
        <ele>1436.83</ele>
        <time>2017-05-20T12:12:36Z</time>
      </trkpt>
      <trkpt lat="44.83216" lon="5.34581">
        <ele>1436.83</ele>
        <time>2017-05-20T12:12:37Z</time>
      </trkpt>
      <trkpt lat="44.83216" lon="5.34583">
        <ele>1437.31</ele>
        <time>2017-05-20T12:12:38Z</time>
      </trkpt>
      <trkpt lat="44.83218" lon="5.34595">
        <ele>1439.23</ele>
        <time>2017-05-20T12:12:44Z</time>
      </trkpt>
      <trkpt lat="44.8322" lon="5.34609">
        <ele>1438.27</ele>
        <time>2017-05-20T12:12:51Z</time>
      </trkpt>
      <trkpt lat="44.8322" lon="5.34611">
        <ele>1439.23</ele>
        <time>2017-05-20T12:12:52Z</time>
      </trkpt>
      <trkpt lat="44.83221" lon="5.34613">
        <ele>1439.23</ele>
        <time>2017-05-20T12:12:53Z</time>
      </trkpt>
      <trkpt lat="44.83226" lon="5.34642">
        <ele>1441.63</ele>
        <time>2017-05-20T12:13:08Z</time>
      </trkpt>
      <trkpt lat="44.83231" lon="5.34672">
        <ele>1444.52</ele>
        <time>2017-05-20T12:13:24Z</time>
      </trkpt>
      <trkpt lat="44.83231" lon="5.34674">
        <ele>1444.52</ele>
        <time>2017-05-20T12:13:25Z</time>
      </trkpt>
      <trkpt lat="44.83231" lon="5.34676">
        <ele>1444.52</ele>
        <time>2017-05-20T12:13:26Z</time>
      </trkpt>
      <trkpt lat="44.83231" lon="5.34678">
        <ele>1444.52</ele>
        <time>2017-05-20T12:13:27Z</time>
      </trkpt>
      <trkpt lat="44.83232" lon="5.34682">
        <ele>1444.52</ele>
        <time>2017-05-20T12:13:29Z</time>
      </trkpt>
      <trkpt lat="44.83232" lon="5.34683">
        <ele>1445</ele>
        <time>2017-05-20T12:13:30Z</time>
      </trkpt>
      <trkpt lat="44.83232" lon="5.34685">
        <ele>1445</ele>
        <time>2017-05-20T12:13:31Z</time>
      </trkpt>
      <trkpt lat="44.83232" lon="5.34687">
        <ele>1444.52</ele>
        <time>2017-05-20T12:13:32Z</time>
      </trkpt>
      <trkpt lat="44.83232" lon="5.34688">
        <ele>1444.52</ele>
        <time>2017-05-20T12:13:33Z</time>
      </trkpt>
      <trkpt lat="44.83232" lon="5.3469">
        <ele>1444.04</ele>
        <time>2017-05-20T12:13:34Z</time>
      </trkpt>
      <trkpt lat="44.83232" lon="5.34693">
        <ele>1445</ele>
        <time>2017-05-20T12:13:36Z</time>
      </trkpt>
      <trkpt lat="44.83233" lon="5.34703">
        <ele>1445.48</ele>
        <time>2017-05-20T12:13:47Z</time>
      </trkpt>
      <trkpt lat="44.83234" lon="5.34706">
        <ele>1445</ele>
        <time>2017-05-20T12:13:48Z</time>
      </trkpt>
      <trkpt lat="44.83233" lon="5.34708">
        <ele>1444.52</ele>
        <time>2017-05-20T12:13:49Z</time>
      </trkpt>
      <trkpt lat="44.83233" lon="5.3471">
        <ele>1444.52</ele>
        <time>2017-05-20T12:13:59Z</time>
      </trkpt>
      <trkpt lat="44.83234" lon="5.34711">
        <ele>1443.56</ele>
        <time>2017-05-20T12:14:11Z</time>
      </trkpt>
      <trkpt lat="44.83234" lon="5.34711">
        <ele>1443.56</ele>
        <time>2017-05-20T12:14:42Z</time>
      </trkpt>
      <trkpt lat="44.83234" lon="5.34714">
        <ele>1444.52</ele>
        <time>2017-05-20T12:15:03Z</time>
      </trkpt>
      <trkpt lat="44.83234" lon="5.34714">
        <ele>1444.52</ele>
        <time>2017-05-20T12:15:32Z</time>
      </trkpt>
      <trkpt lat="44.83234" lon="5.34714">
        <ele>1443.08</ele>
        <time>2017-05-20T12:15:42Z</time>
      </trkpt>
      <trkpt lat="44.8323" lon="5.34711">
        <ele>1444.04</ele>
        <time>2017-05-20T12:17:37Z</time>
      </trkpt>
      <trkpt lat="44.83236" lon="5.34714">
        <ele>1443.56</ele>
        <time>2017-05-20T12:17:43Z</time>
      </trkpt>
      <trkpt lat="44.83233" lon="5.34759">
        <ele>1440.67</ele>
        <time>2017-05-20T12:17:53Z</time>
      </trkpt>
      <trkpt lat="44.83233" lon="5.34766">
        <ele>1440.67</ele>
        <time>2017-05-20T12:17:54Z</time>
      </trkpt>
      <trkpt lat="44.83234" lon="5.34804">
        <ele>1434.91</ele>
        <time>2017-05-20T12:17:58Z</time>
      </trkpt>
      <trkpt lat="44.83232" lon="5.34815">
        <ele>1433.46</ele>
        <time>2017-05-20T12:17:59Z</time>
      </trkpt>
      <trkpt lat="44.83228" lon="5.3484">
        <ele>1429.62</ele>
        <time>2017-05-20T12:18:01Z</time>
      </trkpt>
      <trkpt lat="44.83224" lon="5.34851">
        <ele>1428.18</ele>
        <time>2017-05-20T12:18:02Z</time>
      </trkpt>
      <trkpt lat="44.83214" lon="5.34886">
        <ele>1425.29</ele>
        <time>2017-05-20T12:18:05Z</time>
      </trkpt>
      <trkpt lat="44.8321" lon="5.34898">
        <ele>1425.29</ele>
        <time>2017-05-20T12:18:06Z</time>
      </trkpt>
      <trkpt lat="44.83203" lon="5.34921">
        <ele>1421.93</ele>
        <time>2017-05-20T12:18:08Z</time>
      </trkpt>
      <trkpt lat="44.83199" lon="5.34933">
        <ele>1421.93</ele>
        <time>2017-05-20T12:18:09Z</time>
      </trkpt>
      <trkpt lat="44.83193" lon="5.34956">
        <ele>1423.85</ele>
        <time>2017-05-20T12:18:11Z</time>
      </trkpt>
      <trkpt lat="44.83189" lon="5.34981">
        <ele>1418.56</ele>
        <time>2017-05-20T12:18:13Z</time>
      </trkpt>
      <trkpt lat="44.83184" lon="5.35007">
        <ele>1414.24</ele>
        <time>2017-05-20T12:18:15Z</time>
      </trkpt>
      <trkpt lat="44.83179" lon="5.35032">
        <ele>1410.39</ele>
        <time>2017-05-20T12:18:17Z</time>
      </trkpt>
      <trkpt lat="44.83175" lon="5.35042">
        <ele>1408.47</ele>
        <time>2017-05-20T12:18:18Z</time>
      </trkpt>
      <trkpt lat="44.83169" lon="5.35061">
        <ele>1407.03</ele>
        <time>2017-05-20T12:18:20Z</time>
      </trkpt>
      <trkpt lat="44.83166" lon="5.3507">
        <ele>1406.07</ele>
        <time>2017-05-20T12:18:21Z</time>
      </trkpt>
      <trkpt lat="44.83158" lon="5.3509">
        <ele>1401.74</ele>
        <time>2017-05-20T12:18:23Z</time>
      </trkpt>
      <trkpt lat="44.8315" lon="5.35109">
        <ele>1398.37</ele>
        <time>2017-05-20T12:18:25Z</time>
      </trkpt>
      <trkpt lat="44.83145" lon="5.35118">
        <ele>1396.45</ele>
        <time>2017-05-20T12:18:26Z</time>
      </trkpt>
      <trkpt lat="44.83139" lon="5.35125">
        <ele>1395.01</ele>
        <time>2017-05-20T12:18:27Z</time>
      </trkpt>
      <trkpt lat="44.83123" lon="5.35144">
        <ele>1391.65</ele>
        <time>2017-05-20T12:18:30Z</time>
      </trkpt>
      <trkpt lat="44.83119" lon="5.35147">
        <ele>1391.17</ele>
        <time>2017-05-20T12:18:31Z</time>
      </trkpt>
      <trkpt lat="44.83117" lon="5.35148">
        <ele>1391.17</ele>
        <time>2017-05-20T12:18:32Z</time>
      </trkpt>
      <trkpt lat="44.83118" lon="5.35149">
        <ele>1391.65</ele>
        <time>2017-05-20T12:18:43Z</time>
      </trkpt>
      <trkpt lat="44.83119" lon="5.35149">
        <ele>1391.65</ele>
        <time>2017-05-20T12:18:50Z</time>
      </trkpt>
      <trkpt lat="44.83119" lon="5.35151">
        <ele>1391.17</ele>
        <time>2017-05-20T12:18:51Z</time>
      </trkpt>
      <trkpt lat="44.8312" lon="5.35155">
        <ele>1390.68</ele>
        <time>2017-05-20T12:18:52Z</time>
      </trkpt>
      <trkpt lat="44.8312" lon="5.35159">
        <ele>1389.72</ele>
        <time>2017-05-20T12:18:53Z</time>
      </trkpt>
      <trkpt lat="44.83119" lon="5.35163">
        <ele>1388.76</ele>
        <time>2017-05-20T12:18:54Z</time>
      </trkpt>
      <trkpt lat="44.83117" lon="5.35167">
        <ele>1388.28</ele>
        <time>2017-05-20T12:18:55Z</time>
      </trkpt>
      <trkpt lat="44.83114" lon="5.35171">
        <ele>1387.8</ele>
        <time>2017-05-20T12:18:56Z</time>
      </trkpt>
      <trkpt lat="44.8311" lon="5.35174">
        <ele>1386.84</ele>
        <time>2017-05-20T12:18:57Z</time>
      </trkpt>
      <trkpt lat="44.83105" lon="5.35177">
        <ele>1385.88</ele>
        <time>2017-05-20T12:18:58Z</time>
      </trkpt>
      <trkpt lat="44.83099" lon="5.35179">
        <ele>1384.92</ele>
        <time>2017-05-20T12:18:59Z</time>
      </trkpt>
      <trkpt lat="44.83095" lon="5.35182">
        <ele>1384.44</ele>
        <time>2017-05-20T12:19:00Z</time>
      </trkpt>
      <trkpt lat="44.83091" lon="5.35185">
        <ele>1383.47</ele>
        <time>2017-05-20T12:19:01Z</time>
      </trkpt>
      <trkpt lat="44.83087" lon="5.35189">
        <ele>1382.03</ele>
        <time>2017-05-20T12:19:02Z</time>
      </trkpt>
      <trkpt lat="44.83084" lon="5.35193">
        <ele>1380.11</ele>
        <time>2017-05-20T12:19:03Z</time>
      </trkpt>
      <trkpt lat="44.83082" lon="5.35196">
        <ele>1379.63</ele>
        <time>2017-05-20T12:19:04Z</time>
      </trkpt>
      <trkpt lat="44.8308" lon="5.35197">
        <ele>1379.15</ele>
        <time>2017-05-20T12:19:05Z</time>
      </trkpt>
      <trkpt lat="44.83078" lon="5.35199">
        <ele>1378.19</ele>
        <time>2017-05-20T12:19:06Z</time>
      </trkpt>
      <trkpt lat="44.83076" lon="5.35201">
        <ele>1377.23</ele>
        <time>2017-05-20T12:19:07Z</time>
      </trkpt>
      <trkpt lat="44.83067" lon="5.35213">
        <ele>1370.98</ele>
        <time>2017-05-20T12:19:10Z</time>
      </trkpt>
      <trkpt lat="44.83061" lon="5.35223">
        <ele>1368.09</ele>
        <time>2017-05-20T12:19:12Z</time>
      </trkpt>
      <trkpt lat="44.83053" lon="5.35236">
        <ele>1363.29</ele>
        <time>2017-05-20T12:19:15Z</time>
      </trkpt>
      <trkpt lat="44.83043" lon="5.35258">
        <ele>1359.44</ele>
        <time>2017-05-20T12:19:18Z</time>
      </trkpt>
      <trkpt lat="44.8304" lon="5.35266">
        <ele>1358</ele>
        <time>2017-05-20T12:19:19Z</time>
      </trkpt>
      <trkpt lat="44.8304" lon="5.35272">
        <ele>1358</ele>
        <time>2017-05-20T12:19:20Z</time>
      </trkpt>
      <trkpt lat="44.8304" lon="5.35278">
        <ele>1358.48</ele>
        <time>2017-05-20T12:19:21Z</time>
      </trkpt>
      <trkpt lat="44.83041" lon="5.35282">
        <ele>1359.44</ele>
        <time>2017-05-20T12:19:22Z</time>
      </trkpt>
      <trkpt lat="44.83041" lon="5.35286">
        <ele>1359.44</ele>
        <time>2017-05-20T12:19:23Z</time>
      </trkpt>
      <trkpt lat="44.83041" lon="5.35289">
        <ele>1359.44</ele>
        <time>2017-05-20T12:19:24Z</time>
      </trkpt>
      <trkpt lat="44.83039" lon="5.3533">
        <ele>1357.52</ele>
        <time>2017-05-20T12:19:34Z</time>
      </trkpt>
      <trkpt lat="44.83034" lon="5.35366">
        <ele>1358.96</ele>
        <time>2017-05-20T12:19:46Z</time>
      </trkpt>
      <trkpt lat="44.83033" lon="5.35402">
        <ele>1361.84</ele>
        <time>2017-05-20T12:20:00Z</time>
      </trkpt>
      <trkpt lat="44.83035" lon="5.35412">
        <ele>1359.44</ele>
        <time>2017-05-20T12:20:04Z</time>
      </trkpt>
      <trkpt lat="44.83035" lon="5.35419">
        <ele>1358.96</ele>
        <time>2017-05-20T12:20:13Z</time>
      </trkpt>
      <trkpt lat="44.83035" lon="5.35448">
        <ele>1359.44</ele>
        <time>2017-05-20T12:20:24Z</time>
      </trkpt>
      <trkpt lat="44.83035" lon="5.35452">
        <ele>1359.92</ele>
        <time>2017-05-20T12:20:26Z</time>
      </trkpt>
      <trkpt lat="44.83034" lon="5.35458">
        <ele>1360.4</ele>
        <time>2017-05-20T12:20:29Z</time>
      </trkpt>
      <trkpt lat="44.83033" lon="5.3546">
        <ele>1360.88</ele>
        <time>2017-05-20T12:20:30Z</time>
      </trkpt>
      <trkpt lat="44.83033" lon="5.35462">
        <ele>1360.88</ele>
        <time>2017-05-20T12:20:31Z</time>
      </trkpt>
      <trkpt lat="44.83033" lon="5.35464">
        <ele>1361.36</ele>
        <time>2017-05-20T12:20:32Z</time>
      </trkpt>
      <trkpt lat="44.83033" lon="5.35467">
        <ele>1361.36</ele>
        <time>2017-05-20T12:20:33Z</time>
      </trkpt>
      <trkpt lat="44.83034" lon="5.3547">
        <ele>1361.84</ele>
        <time>2017-05-20T12:20:36Z</time>
      </trkpt>
      <trkpt lat="44.83033" lon="5.35472">
        <ele>1361.84</ele>
        <time>2017-05-20T12:20:37Z</time>
      </trkpt>
      <trkpt lat="44.83033" lon="5.35473">
        <ele>1362.33</ele>
        <time>2017-05-20T12:20:38Z</time>
      </trkpt>
      <trkpt lat="44.83033" lon="5.35485">
        <ele>1363.29</ele>
        <time>2017-05-20T12:20:44Z</time>
      </trkpt>
      <trkpt lat="44.8303" lon="5.355">
        <ele>1365.69</ele>
        <time>2017-05-20T12:20:54Z</time>
      </trkpt>
      <trkpt lat="44.83029" lon="5.35502">
        <ele>1365.69</ele>
        <time>2017-05-20T12:20:55Z</time>
      </trkpt>
      <trkpt lat="44.83025" lon="5.35513">
        <ele>1367.13</ele>
        <time>2017-05-20T12:21:04Z</time>
      </trkpt>
      <trkpt lat="44.83025" lon="5.35515">
        <ele>1367.61</ele>
        <time>2017-05-20T12:21:05Z</time>
      </trkpt>
      <trkpt lat="44.83023" lon="5.35523">
        <ele>1369.05</ele>
        <time>2017-05-20T12:21:10Z</time>
      </trkpt>
      <trkpt lat="44.83022" lon="5.35527">
        <ele>1369.54</ele>
        <time>2017-05-20T12:21:12Z</time>
      </trkpt>
      <trkpt lat="44.83021" lon="5.35529">
        <ele>1370.02</ele>
        <time>2017-05-20T12:21:13Z</time>
      </trkpt>
      <trkpt lat="44.8302" lon="5.35531">
        <ele>1370.02</ele>
        <time>2017-05-20T12:21:14Z</time>
      </trkpt>
      <trkpt lat="44.83019" lon="5.35532">
        <ele>1370.02</ele>
        <time>2017-05-20T12:21:15Z</time>
      </trkpt>
      <trkpt lat="44.83008" lon="5.35555">
        <ele>1371.94</ele>
        <time>2017-05-20T12:21:27Z</time>
      </trkpt>
      <trkpt lat="44.83006" lon="5.35557">
        <ele>1371.46</ele>
        <time>2017-05-20T12:21:39Z</time>
      </trkpt>
      <trkpt lat="44.83006" lon="5.35558">
        <ele>1371.46</ele>
        <time>2017-05-20T12:22:04Z</time>
      </trkpt>
      <trkpt lat="44.83004" lon="5.3556">
        <ele>1371.46</ele>
        <time>2017-05-20T12:22:09Z</time>
      </trkpt>
      <trkpt lat="44.83003" lon="5.35561">
        <ele>1371.94</ele>
        <time>2017-05-20T12:22:10Z</time>
      </trkpt>
      <trkpt lat="44.83001" lon="5.35563">
        <ele>1371.94</ele>
        <time>2017-05-20T12:22:11Z</time>
      </trkpt>
      <trkpt lat="44.83" lon="5.35565">
        <ele>1371.94</ele>
        <time>2017-05-20T12:22:12Z</time>
      </trkpt>
      <trkpt lat="44.82999" lon="5.35568">
        <ele>1371.94</ele>
        <time>2017-05-20T12:22:13Z</time>
      </trkpt>
      <trkpt lat="44.82995" lon="5.35578">
        <ele>1371.94</ele>
        <time>2017-05-20T12:22:17Z</time>
      </trkpt>
      <trkpt lat="44.82993" lon="5.35582">
        <ele>1372.42</ele>
        <time>2017-05-20T12:22:19Z</time>
      </trkpt>
      <trkpt lat="44.82992" lon="5.35584">
        <ele>1371.94</ele>
        <time>2017-05-20T12:22:20Z</time>
      </trkpt>
      <trkpt lat="44.8299" lon="5.35585">
        <ele>1371.94</ele>
        <time>2017-05-20T12:22:21Z</time>
      </trkpt>
      <trkpt lat="44.82989" lon="5.35586">
        <ele>1371.94</ele>
        <time>2017-05-20T12:22:22Z</time>
      </trkpt>
      <trkpt lat="44.82988" lon="5.35588">
        <ele>1371.94</ele>
        <time>2017-05-20T12:22:23Z</time>
      </trkpt>
      <trkpt lat="44.82987" lon="5.3559">
        <ele>1371.94</ele>
        <time>2017-05-20T12:22:24Z</time>
      </trkpt>
      <trkpt lat="44.82986" lon="5.35592">
        <ele>1371.46</ele>
        <time>2017-05-20T12:22:25Z</time>
      </trkpt>
      <trkpt lat="44.82986" lon="5.35594">
        <ele>1371.46</ele>
        <time>2017-05-20T12:22:26Z</time>
      </trkpt>
      <trkpt lat="44.82971" lon="5.3562">
        <ele>1367.61</ele>
        <time>2017-05-20T12:22:33Z</time>
      </trkpt>
      <trkpt lat="44.82969" lon="5.35625">
        <ele>1367.13</ele>
        <time>2017-05-20T12:22:34Z</time>
      </trkpt>
      <trkpt lat="44.82966" lon="5.35641">
        <ele>1363.77</ele>
        <time>2017-05-20T12:22:41Z</time>
      </trkpt>
      <trkpt lat="44.82966" lon="5.35642">
        <ele>1364.73</ele>
        <time>2017-05-20T12:22:57Z</time>
      </trkpt>
      <trkpt lat="44.82966" lon="5.35642">
        <ele>1368.09</ele>
        <time>2017-05-20T12:23:06Z</time>
      </trkpt>
      <trkpt lat="44.82966" lon="5.35642">
        <ele>1364.25</ele>
        <time>2017-05-20T12:23:07Z</time>
      </trkpt>
      <trkpt lat="44.82961" lon="5.35655">
        <ele>1360.4</ele>
        <time>2017-05-20T12:23:29Z</time>
      </trkpt>
      <trkpt lat="44.82959" lon="5.35663">
        <ele>1358.96</ele>
        <time>2017-05-20T12:23:31Z</time>
      </trkpt>
      <trkpt lat="44.82959" lon="5.35666">
        <ele>1358.48</ele>
        <time>2017-05-20T12:23:32Z</time>
      </trkpt>
      <trkpt lat="44.82958" lon="5.3567">
        <ele>1358</ele>
        <time>2017-05-20T12:23:33Z</time>
      </trkpt>
      <trkpt lat="44.82957" lon="5.35672">
        <ele>1357.52</ele>
        <time>2017-05-20T12:23:34Z</time>
      </trkpt>
      <trkpt lat="44.82957" lon="5.35674">
        <ele>1356.56</ele>
        <time>2017-05-20T12:23:35Z</time>
      </trkpt>
      <trkpt lat="44.82949" lon="5.35681">
        <ele>1354.63</ele>
        <time>2017-05-20T12:23:38Z</time>
      </trkpt>
      <trkpt lat="44.82946" lon="5.35682">
        <ele>1352.71</ele>
        <time>2017-05-20T12:23:39Z</time>
      </trkpt>
      <trkpt lat="44.82943" lon="5.35684">
        <ele>1352.23</ele>
        <time>2017-05-20T12:23:40Z</time>
      </trkpt>
      <trkpt lat="44.82941" lon="5.35688">
        <ele>1351.75</ele>
        <time>2017-05-20T12:23:41Z</time>
      </trkpt>
      <trkpt lat="44.8294" lon="5.35691">
        <ele>1350.79</ele>
        <time>2017-05-20T12:23:42Z</time>
      </trkpt>
      <trkpt lat="44.82939" lon="5.35694">
        <ele>1350.31</ele>
        <time>2017-05-20T12:23:43Z</time>
      </trkpt>
      <trkpt lat="44.82936" lon="5.35698">
        <ele>1349.83</ele>
        <time>2017-05-20T12:23:44Z</time>
      </trkpt>
      <trkpt lat="44.82933" lon="5.35702">
        <ele>1348.87</ele>
        <time>2017-05-20T12:23:45Z</time>
      </trkpt>
      <trkpt lat="44.82925" lon="5.35719">
        <ele>1345.02</ele>
        <time>2017-05-20T12:23:49Z</time>
      </trkpt>
      <trkpt lat="44.82922" lon="5.35723">
        <ele>1344.54</ele>
        <time>2017-05-20T12:23:50Z</time>
      </trkpt>
      <trkpt lat="44.82902" lon="5.35747">
        <ele>1341.18</ele>
        <time>2017-05-20T12:23:54Z</time>
      </trkpt>
      <trkpt lat="44.82897" lon="5.35756">
        <ele>1340.7</ele>
        <time>2017-05-20T12:23:55Z</time>
      </trkpt>
      <trkpt lat="44.82888" lon="5.35778">
        <ele>1336.37</ele>
        <time>2017-05-20T12:23:57Z</time>
      </trkpt>
      <trkpt lat="44.8288" lon="5.358">
        <ele>1333.97</ele>
        <time>2017-05-20T12:23:59Z</time>
      </trkpt>
      <trkpt lat="44.82878" lon="5.35811">
        <ele>1332.52</ele>
        <time>2017-05-20T12:24:00Z</time>
      </trkpt>
      <trkpt lat="44.82877" lon="5.3582">
        <ele>1332.04</ele>
        <time>2017-05-20T12:24:01Z</time>
      </trkpt>
      <trkpt lat="44.82876" lon="5.35829">
        <ele>1332.04</ele>
        <time>2017-05-20T12:24:02Z</time>
      </trkpt>
      <trkpt lat="44.82874" lon="5.35837">
        <ele>1332.04</ele>
        <time>2017-05-20T12:24:03Z</time>
      </trkpt>
      <trkpt lat="44.82871" lon="5.35843">
        <ele>1333.49</ele>
        <time>2017-05-20T12:24:04Z</time>
      </trkpt>
      <trkpt lat="44.82868" lon="5.35846">
        <ele>1333.49</ele>
        <time>2017-05-20T12:24:05Z</time>
      </trkpt>
      <trkpt lat="44.82865" lon="5.35846">
        <ele>1335.41</ele>
        <time>2017-05-20T12:24:06Z</time>
      </trkpt>
      <trkpt lat="44.82865" lon="5.35844">
        <ele>1334.93</ele>
        <time>2017-05-20T12:24:07Z</time>
      </trkpt>
      <trkpt lat="44.82864" lon="5.35842">
        <ele>1335.41</ele>
        <time>2017-05-20T12:24:08Z</time>
      </trkpt>
      <trkpt lat="44.82864" lon="5.35841">
        <ele>1334.93</ele>
        <time>2017-05-20T12:24:09Z</time>
      </trkpt>
      <trkpt lat="44.82864" lon="5.35838">
        <ele>1334.45</ele>
        <time>2017-05-20T12:24:24Z</time>
      </trkpt>
      <trkpt lat="44.82868" lon="5.35838">
        <ele>1333.01</ele>
        <time>2017-05-20T12:24:31Z</time>
      </trkpt>
      <trkpt lat="44.8287" lon="5.35838">
        <ele>1332.52</ele>
        <time>2017-05-20T12:24:32Z</time>
      </trkpt>
      <trkpt lat="44.8287" lon="5.35837">
        <ele>1333.97</ele>
        <time>2017-05-20T12:24:35Z</time>
      </trkpt>
      <trkpt lat="44.82873" lon="5.3584">
        <ele>1331.56</ele>
        <time>2017-05-20T12:24:39Z</time>
      </trkpt>
      <trkpt lat="44.82872" lon="5.35841">
        <ele>1333.49</ele>
        <time>2017-05-20T12:24:40Z</time>
      </trkpt>
      <trkpt lat="44.82872" lon="5.35842">
        <ele>1331.56</ele>
        <time>2017-05-20T12:24:52Z</time>
      </trkpt>
      <trkpt lat="44.82872" lon="5.35842">
        <ele>1331.56</ele>
        <time>2017-05-20T12:24:53Z</time>
      </trkpt>
      <trkpt lat="44.82861" lon="5.35839">
        <ele>1333.97</ele>
        <time>2017-05-20T12:27:27Z</time>
      </trkpt>
      <trkpt lat="44.82862" lon="5.35839">
        <ele>1333.97</ele>
        <time>2017-05-20T12:27:28Z</time>
      </trkpt>
      <trkpt lat="44.82866" lon="5.35845">
        <ele>1335.89</ele>
        <time>2017-05-20T12:28:02Z</time>
      </trkpt>
      <trkpt lat="44.82866" lon="5.35846">
        <ele>1333.01</ele>
        <time>2017-05-20T12:28:03Z</time>
      </trkpt>
      <trkpt lat="44.82866" lon="5.35846">
        <ele>1333.49</ele>
        <time>2017-05-20T12:28:28Z</time>
      </trkpt>
      <trkpt lat="44.82867" lon="5.35849">
        <ele>1333.01</ele>
        <time>2017-05-20T12:28:30Z</time>
      </trkpt>
      <trkpt lat="44.82861" lon="5.35865">
        <ele>1333.49</ele>
        <time>2017-05-20T12:28:39Z</time>
      </trkpt>
      <trkpt lat="44.82848" lon="5.35897">
        <ele>1336.85</ele>
        <time>2017-05-20T12:28:57Z</time>
      </trkpt>
      <trkpt lat="44.82847" lon="5.35901">
        <ele>1336.85</ele>
        <time>2017-05-20T12:28:59Z</time>
      </trkpt>
      <trkpt lat="44.82841" lon="5.3591">
        <ele>1338.29</ele>
        <time>2017-05-20T12:29:06Z</time>
      </trkpt>
      <trkpt lat="44.82837" lon="5.3592">
        <ele>1337.81</ele>
        <time>2017-05-20T12:29:13Z</time>
      </trkpt>
      <trkpt lat="44.82833" lon="5.35928">
        <ele>1338.77</ele>
        <time>2017-05-20T12:29:19Z</time>
      </trkpt>
      <trkpt lat="44.82832" lon="5.35931">
        <ele>1338.77</ele>
        <time>2017-05-20T12:29:21Z</time>
      </trkpt>
      <trkpt lat="44.82829" lon="5.3594">
        <ele>1340.22</ele>
        <time>2017-05-20T12:29:27Z</time>
      </trkpt>
      <trkpt lat="44.82827" lon="5.35946">
        <ele>1341.66</ele>
        <time>2017-05-20T12:29:31Z</time>
      </trkpt>
      <trkpt lat="44.82821" lon="5.35957">
        <ele>1344.06</ele>
        <time>2017-05-20T12:29:40Z</time>
      </trkpt>
      <trkpt lat="44.82811" lon="5.3598">
        <ele>1346.94</ele>
        <time>2017-05-20T12:29:55Z</time>
      </trkpt>
      <trkpt lat="44.82803" lon="5.36001">
        <ele>1347.91</ele>
        <time>2017-05-20T12:30:09Z</time>
      </trkpt>
      <trkpt lat="44.82803" lon="5.36002">
        <ele>1347.91</ele>
        <time>2017-05-20T12:30:10Z</time>
      </trkpt>
      <trkpt lat="44.8281" lon="5.36036">
        <ele>1346.94</ele>
        <time>2017-05-20T12:30:25Z</time>
      </trkpt>
      <trkpt lat="44.82815" lon="5.36059">
        <ele>1345.98</ele>
        <time>2017-05-20T12:30:31Z</time>
      </trkpt>
      <trkpt lat="44.8283" lon="5.3608">
        <ele>1342.62</ele>
        <time>2017-05-20T12:30:36Z</time>
      </trkpt>
      <trkpt lat="44.82846" lon="5.36089">
        <ele>1342.14</ele>
        <time>2017-05-20T12:30:41Z</time>
      </trkpt>
      <trkpt lat="44.82858" lon="5.36092">
        <ele>1345.02</ele>
        <time>2017-05-20T12:30:47Z</time>
      </trkpt>
      <trkpt lat="44.82868" lon="5.3609">
        <ele>1345.5</ele>
        <time>2017-05-20T12:30:54Z</time>
      </trkpt>
      <trkpt lat="44.82879" lon="5.36085">
        <ele>1347.43</ele>
        <time>2017-05-20T12:31:02Z</time>
      </trkpt>
      <trkpt lat="44.82882" lon="5.36085">
        <ele>1347.91</ele>
        <time>2017-05-20T12:31:05Z</time>
      </trkpt>
      <trkpt lat="44.82903" lon="5.36077">
        <ele>1348.87</ele>
        <time>2017-05-20T12:31:18Z</time>
      </trkpt>
      <trkpt lat="44.82917" lon="5.36082">
        <ele>1350.31</ele>
        <time>2017-05-20T12:31:31Z</time>
      </trkpt>
      <trkpt lat="44.82921" lon="5.36088">
        <ele>1351.27</ele>
        <time>2017-05-20T12:31:37Z</time>
      </trkpt>
      <trkpt lat="44.82934" lon="5.36103">
        <ele>1351.75</ele>
        <time>2017-05-20T12:31:49Z</time>
      </trkpt>
      <trkpt lat="44.82956" lon="5.36118">
        <ele>1351.27</ele>
        <time>2017-05-20T12:32:01Z</time>
      </trkpt>
      <trkpt lat="44.82968" lon="5.3613">
        <ele>1350.31</ele>
        <time>2017-05-20T12:32:07Z</time>
      </trkpt>
      <trkpt lat="44.82977" lon="5.36148">
        <ele>1350.31</ele>
        <time>2017-05-20T12:32:15Z</time>
      </trkpt>
      <trkpt lat="44.82978" lon="5.36152">
        <ele>1349.83</ele>
        <time>2017-05-20T12:32:17Z</time>
      </trkpt>
      <trkpt lat="44.82985" lon="5.36161">
        <ele>1349.83</ele>
        <time>2017-05-20T12:32:20Z</time>
      </trkpt>
      <trkpt lat="44.82996" lon="5.36184">
        <ele>1351.27</ele>
        <time>2017-05-20T12:32:28Z</time>
      </trkpt>
      <trkpt lat="44.83002" lon="5.36199">
        <ele>1351.75</ele>
        <time>2017-05-20T12:32:33Z</time>
      </trkpt>
      <trkpt lat="44.83014" lon="5.36221">
        <ele>1351.75</ele>
        <time>2017-05-20T12:32:45Z</time>
      </trkpt>
      <trkpt lat="44.83017" lon="5.36232">
        <ele>1350.31</ele>
        <time>2017-05-20T12:33:04Z</time>
      </trkpt>
      <trkpt lat="44.83022" lon="5.36244">
        <ele>1350.79</ele>
        <time>2017-05-20T12:33:09Z</time>
      </trkpt>
      <trkpt lat="44.83023" lon="5.36253">
        <ele>1350.79</ele>
        <time>2017-05-20T12:33:14Z</time>
      </trkpt>
      <trkpt lat="44.83035" lon="5.36266">
        <ele>1350.79</ele>
        <time>2017-05-20T12:33:20Z</time>
      </trkpt>
      <trkpt lat="44.83036" lon="5.36276">
        <ele>1351.75</ele>
        <time>2017-05-20T12:33:26Z</time>
      </trkpt>
      <trkpt lat="44.83047" lon="5.36294">
        <ele>1352.23</ele>
        <time>2017-05-20T12:33:33Z</time>
      </trkpt>
      <trkpt lat="44.83065" lon="5.36315">
        <ele>1351.75</ele>
        <time>2017-05-20T12:33:41Z</time>
      </trkpt>
      <trkpt lat="44.83074" lon="5.36334">
        <ele>1349.83</ele>
        <time>2017-05-20T12:33:49Z</time>
      </trkpt>
      <trkpt lat="44.83078" lon="5.36345">
        <ele>1349.35</ele>
        <time>2017-05-20T12:33:51Z</time>
      </trkpt>
      <trkpt lat="44.83081" lon="5.36389">
        <ele>1350.31</ele>
        <time>2017-05-20T12:34:01Z</time>
      </trkpt>
      <trkpt lat="44.83078" lon="5.36412">
        <ele>1350.31</ele>
        <time>2017-05-20T12:34:09Z</time>
      </trkpt>
      <trkpt lat="44.83077" lon="5.3642">
        <ele>1350.31</ele>
        <time>2017-05-20T12:34:11Z</time>
      </trkpt>
      <trkpt lat="44.83072" lon="5.36445">
        <ele>1350.31</ele>
        <time>2017-05-20T12:34:19Z</time>
      </trkpt>
      <trkpt lat="44.8307" lon="5.36457">
        <ele>1349.35</ele>
        <time>2017-05-20T12:34:21Z</time>
      </trkpt>
      <trkpt lat="44.83063" lon="5.36487">
        <ele>1346.94</ele>
        <time>2017-05-20T12:34:25Z</time>
      </trkpt>
      <trkpt lat="44.83061" lon="5.36495">
        <ele>1346.46</ele>
        <time>2017-05-20T12:34:26Z</time>
      </trkpt>
      <trkpt lat="44.83059" lon="5.36504">
        <ele>1345.98</ele>
        <time>2017-05-20T12:34:27Z</time>
      </trkpt>
      <trkpt lat="44.83056" lon="5.36512">
        <ele>1345.02</ele>
        <time>2017-05-20T12:34:28Z</time>
      </trkpt>
      <trkpt lat="44.83054" lon="5.3652">
        <ele>1344.54</ele>
        <time>2017-05-20T12:34:29Z</time>
      </trkpt>
      <trkpt lat="44.83052" lon="5.36527">
        <ele>1344.06</ele>
        <time>2017-05-20T12:34:30Z</time>
      </trkpt>
      <trkpt lat="44.8305" lon="5.36533">
        <ele>1342.62</ele>
        <time>2017-05-20T12:34:31Z</time>
      </trkpt>
      <trkpt lat="44.83048" lon="5.3654">
        <ele>1342.14</ele>
        <time>2017-05-20T12:34:32Z</time>
      </trkpt>
      <trkpt lat="44.83047" lon="5.36547">
        <ele>1341.18</ele>
        <time>2017-05-20T12:34:33Z</time>
      </trkpt>
      <trkpt lat="44.83047" lon="5.36554">
        <ele>1339.73</ele>
        <time>2017-05-20T12:34:34Z</time>
      </trkpt>
      <trkpt lat="44.83046" lon="5.36561">
        <ele>1338.77</ele>
        <time>2017-05-20T12:34:35Z</time>
      </trkpt>
      <trkpt lat="44.83046" lon="5.36579">
        <ele>1337.33</ele>
        <time>2017-05-20T12:34:37Z</time>
      </trkpt>
      <trkpt lat="44.83045" lon="5.36589">
        <ele>1336.37</ele>
        <time>2017-05-20T12:34:38Z</time>
      </trkpt>
      <trkpt lat="44.83044" lon="5.36599">
        <ele>1334.93</ele>
        <time>2017-05-20T12:34:39Z</time>
      </trkpt>
      <trkpt lat="44.83044" lon="5.36609">
        <ele>1333.97</ele>
        <time>2017-05-20T12:34:40Z</time>
      </trkpt>
      <trkpt lat="44.83042" lon="5.36618">
        <ele>1332.52</ele>
        <time>2017-05-20T12:34:41Z</time>
      </trkpt>
      <trkpt lat="44.83037" lon="5.36635">
        <ele>1330.6</ele>
        <time>2017-05-20T12:34:43Z</time>
      </trkpt>
      <trkpt lat="44.83032" lon="5.36662">
        <ele>1326.76</ele>
        <time>2017-05-20T12:34:46Z</time>
      </trkpt>
      <trkpt lat="44.83031" lon="5.36671">
        <ele>1325.8</ele>
        <time>2017-05-20T12:34:47Z</time>
      </trkpt>
      <trkpt lat="44.83029" lon="5.36679">
        <ele>1324.83</ele>
        <time>2017-05-20T12:34:48Z</time>
      </trkpt>
      <trkpt lat="44.83027" lon="5.36685">
        <ele>1323.87</ele>
        <time>2017-05-20T12:34:49Z</time>
      </trkpt>
      <trkpt lat="44.83025" lon="5.36691">
        <ele>1322.91</ele>
        <time>2017-05-20T12:34:50Z</time>
      </trkpt>
      <trkpt lat="44.83022" lon="5.36697">
        <ele>1322.43</ele>
        <time>2017-05-20T12:34:51Z</time>
      </trkpt>
      <trkpt lat="44.83019" lon="5.36701">
        <ele>1321.47</ele>
        <time>2017-05-20T12:34:52Z</time>
      </trkpt>
      <trkpt lat="44.83016" lon="5.36705">
        <ele>1320.99</ele>
        <time>2017-05-20T12:34:53Z</time>
      </trkpt>
      <trkpt lat="44.83013" lon="5.3671">
        <ele>1320.03</ele>
        <time>2017-05-20T12:34:54Z</time>
      </trkpt>
      <trkpt lat="44.8301" lon="5.36718">
        <ele>1319.07</ele>
        <time>2017-05-20T12:34:55Z</time>
      </trkpt>
      <trkpt lat="44.83007" lon="5.36728">
        <ele>1316.66</ele>
        <time>2017-05-20T12:34:56Z</time>
      </trkpt>
      <trkpt lat="44.83006" lon="5.36738">
        <ele>1316.66</ele>
        <time>2017-05-20T12:34:57Z</time>
      </trkpt>
      <trkpt lat="44.83006" lon="5.36746">
        <ele>1316.66</ele>
        <time>2017-05-20T12:34:58Z</time>
      </trkpt>
      <trkpt lat="44.83007" lon="5.36752">
        <ele>1317.14</ele>
        <time>2017-05-20T12:34:59Z</time>
      </trkpt>
      <trkpt lat="44.83009" lon="5.36756">
        <ele>1317.62</ele>
        <time>2017-05-20T12:35:00Z</time>
      </trkpt>
      <trkpt lat="44.83012" lon="5.36759">
        <ele>1318.1</ele>
        <time>2017-05-20T12:35:01Z</time>
      </trkpt>
      <trkpt lat="44.83015" lon="5.36761">
        <ele>1318.59</ele>
        <time>2017-05-20T12:35:02Z</time>
      </trkpt>
      <trkpt lat="44.83017" lon="5.36763">
        <ele>1319.07</ele>
        <time>2017-05-20T12:35:03Z</time>
      </trkpt>
      <trkpt lat="44.8302" lon="5.36765">
        <ele>1319.55</ele>
        <time>2017-05-20T12:35:04Z</time>
      </trkpt>
      <trkpt lat="44.83035" lon="5.36786">
        <ele>1320.99</ele>
        <time>2017-05-20T12:35:17Z</time>
      </trkpt>
      <trkpt lat="44.83041" lon="5.36793">
        <ele>1321.95</ele>
        <time>2017-05-20T12:35:23Z</time>
      </trkpt>
      <trkpt lat="44.83045" lon="5.36798">
        <ele>1322.91</ele>
        <time>2017-05-20T12:35:27Z</time>
      </trkpt>
      <trkpt lat="44.8305" lon="5.3681">
        <ele>1324.35</ele>
        <time>2017-05-20T12:35:34Z</time>
      </trkpt>
      <trkpt lat="44.83057" lon="5.36831">
        <ele>1326.28</ele>
        <time>2017-05-20T12:35:45Z</time>
      </trkpt>
      <trkpt lat="44.83065" lon="5.36843">
        <ele>1327.24</ele>
        <time>2017-05-20T12:35:53Z</time>
      </trkpt>
      <trkpt lat="44.83066" lon="5.36845">
        <ele>1327.72</ele>
        <time>2017-05-20T12:35:55Z</time>
      </trkpt>
      <trkpt lat="44.83067" lon="5.36847">
        <ele>1327.72</ele>
        <time>2017-05-20T12:35:56Z</time>
      </trkpt>
      <trkpt lat="44.83068" lon="5.36849">
        <ele>1328.2</ele>
        <time>2017-05-20T12:35:57Z</time>
      </trkpt>
      <trkpt lat="44.83069" lon="5.3685">
        <ele>1328.2</ele>
        <time>2017-05-20T12:35:58Z</time>
      </trkpt>
      <trkpt lat="44.83069" lon="5.36851">
        <ele>1328.2</ele>
        <time>2017-05-20T12:35:59Z</time>
      </trkpt>
      <trkpt lat="44.8307" lon="5.36852">
        <ele>1328.2</ele>
        <time>2017-05-20T12:36:00Z</time>
      </trkpt>
      <trkpt lat="44.83071" lon="5.36855">
        <ele>1328.68</ele>
        <time>2017-05-20T12:36:02Z</time>
      </trkpt>
      <trkpt lat="44.83072" lon="5.36857">
        <ele>1328.68</ele>
        <time>2017-05-20T12:36:03Z</time>
      </trkpt>
      <trkpt lat="44.83073" lon="5.36858">
        <ele>1328.68</ele>
        <time>2017-05-20T12:36:04Z</time>
      </trkpt>
      <trkpt lat="44.83073" lon="5.36859">
        <ele>1328.68</ele>
        <time>2017-05-20T12:36:05Z</time>
      </trkpt>
      <trkpt lat="44.83074" lon="5.36861">
        <ele>1329.16</ele>
        <time>2017-05-20T12:36:06Z</time>
      </trkpt>
      <trkpt lat="44.8308" lon="5.36873">
        <ele>1330.6</ele>
        <time>2017-05-20T12:36:15Z</time>
      </trkpt>
      <trkpt lat="44.83081" lon="5.36874">
        <ele>1330.6</ele>
        <time>2017-05-20T12:36:16Z</time>
      </trkpt>
      <trkpt lat="44.83082" lon="5.36875">
        <ele>1331.08</ele>
        <time>2017-05-20T12:36:17Z</time>
      </trkpt>
      <trkpt lat="44.8309" lon="5.36884">
        <ele>1331.56</ele>
        <time>2017-05-20T12:36:27Z</time>
      </trkpt>
      <trkpt lat="44.83095" lon="5.36889">
        <ele>1333.01</ele>
        <time>2017-05-20T12:36:33Z</time>
      </trkpt>
      <trkpt lat="44.83097" lon="5.36893">
        <ele>1333.49</ele>
        <time>2017-05-20T12:36:36Z</time>
      </trkpt>
      <trkpt lat="44.83108" lon="5.36912">
        <ele>1335.41</ele>
        <time>2017-05-20T12:36:48Z</time>
      </trkpt>
      <trkpt lat="44.83118" lon="5.36926">
        <ele>1337.33</ele>
        <time>2017-05-20T12:37:01Z</time>
      </trkpt>
      <trkpt lat="44.83125" lon="5.36941">
        <ele>1338.77</ele>
        <time>2017-05-20T12:37:10Z</time>
      </trkpt>
      <trkpt lat="44.83126" lon="5.36943">
        <ele>1339.25</ele>
        <time>2017-05-20T12:37:11Z</time>
      </trkpt>
      <trkpt lat="44.83138" lon="5.36959">
        <ele>1341.66</ele>
        <time>2017-05-20T12:37:26Z</time>
      </trkpt>
      <trkpt lat="44.83148" lon="5.36973">
        <ele>1342.62</ele>
        <time>2017-05-20T12:37:38Z</time>
      </trkpt>
      <trkpt lat="44.83149" lon="5.36974">
        <ele>1342.62</ele>
        <time>2017-05-20T12:37:39Z</time>
      </trkpt>
      <trkpt lat="44.83157" lon="5.36991">
        <ele>1345.02</ele>
        <time>2017-05-20T12:37:49Z</time>
      </trkpt>
      <trkpt lat="44.83159" lon="5.36992">
        <ele>1345.5</ele>
        <time>2017-05-20T12:37:50Z</time>
      </trkpt>
      <trkpt lat="44.83159" lon="5.36994">
        <ele>1345.5</ele>
        <time>2017-05-20T12:37:51Z</time>
      </trkpt>
      <trkpt lat="44.8316" lon="5.36996">
        <ele>1345.5</ele>
        <time>2017-05-20T12:37:52Z</time>
      </trkpt>
      <trkpt lat="44.83161" lon="5.36997">
        <ele>1345.98</ele>
        <time>2017-05-20T12:37:53Z</time>
      </trkpt>
      <trkpt lat="44.8317" lon="5.37009">
        <ele>1347.91</ele>
        <time>2017-05-20T12:38:05Z</time>
      </trkpt>
      <trkpt lat="44.83182" lon="5.37021">
        <ele>1349.83</ele>
        <time>2017-05-20T12:38:17Z</time>
      </trkpt>
      <trkpt lat="44.8319" lon="5.37032">
        <ele>1351.27</ele>
        <time>2017-05-20T12:38:26Z</time>
      </trkpt>
      <trkpt lat="44.83196" lon="5.37042">
        <ele>1352.23</ele>
        <time>2017-05-20T12:38:34Z</time>
      </trkpt>
      <trkpt lat="44.83197" lon="5.37044">
        <ele>1352.71</ele>
        <time>2017-05-20T12:38:35Z</time>
      </trkpt>
      <trkpt lat="44.83206" lon="5.37056">
        <ele>1354.15</ele>
        <time>2017-05-20T12:38:46Z</time>
      </trkpt>
      <trkpt lat="44.83216" lon="5.3707">
        <ele>1356.08</ele>
        <time>2017-05-20T12:38:57Z</time>
      </trkpt>
      <trkpt lat="44.83219" lon="5.37073">
        <ele>1356.56</ele>
        <time>2017-05-20T12:39:00Z</time>
      </trkpt>
      <trkpt lat="44.83228" lon="5.37093">
        <ele>1358.48</ele>
        <time>2017-05-20T12:39:11Z</time>
      </trkpt>
      <trkpt lat="44.8323" lon="5.37099">
        <ele>1358.96</ele>
        <time>2017-05-20T12:39:15Z</time>
      </trkpt>
      <trkpt lat="44.83239" lon="5.37112">
        <ele>1360.88</ele>
        <time>2017-05-20T12:39:27Z</time>
      </trkpt>
      <trkpt lat="44.8324" lon="5.37114">
        <ele>1361.36</ele>
        <time>2017-05-20T12:39:29Z</time>
      </trkpt>
      <trkpt lat="44.83244" lon="5.37121">
        <ele>1361.36</ele>
        <time>2017-05-20T12:39:35Z</time>
      </trkpt>
      <trkpt lat="44.83249" lon="5.37127">
        <ele>1362.33</ele>
        <time>2017-05-20T12:39:41Z</time>
      </trkpt>
      <trkpt lat="44.83253" lon="5.37132">
        <ele>1364.25</ele>
        <time>2017-05-20T12:39:46Z</time>
      </trkpt>
      <trkpt lat="44.83256" lon="5.37134">
        <ele>1364.73</ele>
        <time>2017-05-20T12:39:49Z</time>
      </trkpt>
      <trkpt lat="44.83261" lon="5.37146">
        <ele>1365.69</ele>
        <time>2017-05-20T12:39:59Z</time>
      </trkpt>
      <trkpt lat="44.8327" lon="5.37164">
        <ele>1367.13</ele>
        <time>2017-05-20T12:40:13Z</time>
      </trkpt>
      <trkpt lat="44.8328" lon="5.37188">
        <ele>1369.05</ele>
        <time>2017-05-20T12:40:28Z</time>
      </trkpt>
      <trkpt lat="44.83283" lon="5.37193">
        <ele>1370.5</ele>
        <time>2017-05-20T12:40:32Z</time>
      </trkpt>
      <trkpt lat="44.83283" lon="5.37194">
        <ele>1370.5</ele>
        <time>2017-05-20T12:40:33Z</time>
      </trkpt>
      <trkpt lat="44.83291" lon="5.37212">
        <ele>1371.94</ele>
        <time>2017-05-20T12:40:44Z</time>
      </trkpt>
      <trkpt lat="44.83292" lon="5.37214">
        <ele>1372.42</ele>
        <time>2017-05-20T12:40:45Z</time>
      </trkpt>
      <trkpt lat="44.83292" lon="5.37215">
        <ele>1372.9</ele>
        <time>2017-05-20T12:40:46Z</time>
      </trkpt>
      <trkpt lat="44.83297" lon="5.37225">
        <ele>1374.34</ele>
        <time>2017-05-20T12:40:53Z</time>
      </trkpt>
      <trkpt lat="44.83306" lon="5.37244">
        <ele>1376.26</ele>
        <time>2017-05-20T12:41:06Z</time>
      </trkpt>
      <trkpt lat="44.83314" lon="5.37254">
        <ele>1377.71</ele>
        <time>2017-05-20T12:41:15Z</time>
      </trkpt>
      <trkpt lat="44.8333" lon="5.37267">
        <ele>1380.11</ele>
        <time>2017-05-20T12:41:28Z</time>
      </trkpt>
      <trkpt lat="44.83339" lon="5.37274">
        <ele>1380.59</ele>
        <time>2017-05-20T12:41:34Z</time>
      </trkpt>
      <trkpt lat="44.8334" lon="5.37275">
        <ele>1380.59</ele>
        <time>2017-05-20T12:41:35Z</time>
      </trkpt>
      <trkpt lat="44.83341" lon="5.37276">
        <ele>1380.59</ele>
        <time>2017-05-20T12:41:36Z</time>
      </trkpt>
      <trkpt lat="44.83342" lon="5.37277">
        <ele>1381.07</ele>
        <time>2017-05-20T12:41:37Z</time>
      </trkpt>
      <trkpt lat="44.83343" lon="5.37278">
        <ele>1381.07</ele>
        <time>2017-05-20T12:41:38Z</time>
      </trkpt>
      <trkpt lat="44.83346" lon="5.37279">
        <ele>1381.55</ele>
        <time>2017-05-20T12:41:41Z</time>
      </trkpt>
      <trkpt lat="44.83347" lon="5.3728">
        <ele>1381.55</ele>
        <time>2017-05-20T12:41:42Z</time>
      </trkpt>
      <trkpt lat="44.83348" lon="5.37281">
        <ele>1381.55</ele>
        <time>2017-05-20T12:41:43Z</time>
      </trkpt>
      <trkpt lat="44.83349" lon="5.37282">
        <ele>1382.03</ele>
        <time>2017-05-20T12:41:44Z</time>
      </trkpt>
      <trkpt lat="44.8335" lon="5.37283">
        <ele>1382.03</ele>
        <time>2017-05-20T12:41:45Z</time>
      </trkpt>
      <trkpt lat="44.83352" lon="5.37284">
        <ele>1382.03</ele>
        <time>2017-05-20T12:41:46Z</time>
      </trkpt>
      <trkpt lat="44.83353" lon="5.37284">
        <ele>1382.03</ele>
        <time>2017-05-20T12:41:47Z</time>
      </trkpt>
      <trkpt lat="44.83354" lon="5.37285">
        <ele>1382.51</ele>
        <time>2017-05-20T12:41:48Z</time>
      </trkpt>
      <trkpt lat="44.83355" lon="5.37285">
        <ele>1382.51</ele>
        <time>2017-05-20T12:41:49Z</time>
      </trkpt>
      <trkpt lat="44.83362" lon="5.37291">
        <ele>1383.96</ele>
        <time>2017-05-20T12:41:56Z</time>
      </trkpt>
      <trkpt lat="44.83364" lon="5.37292">
        <ele>1384.44</ele>
        <time>2017-05-20T12:41:58Z</time>
      </trkpt>
      <trkpt lat="44.83365" lon="5.37293">
        <ele>1383.96</ele>
        <time>2017-05-20T12:41:59Z</time>
      </trkpt>
      <trkpt lat="44.83366" lon="5.37293">
        <ele>1383.96</ele>
        <time>2017-05-20T12:42:00Z</time>
      </trkpt>
      <trkpt lat="44.83367" lon="5.37293">
        <ele>1384.44</ele>
        <time>2017-05-20T12:42:01Z</time>
      </trkpt>
      <trkpt lat="44.83369" lon="5.37293">
        <ele>1383.96</ele>
        <time>2017-05-20T12:42:02Z</time>
      </trkpt>
      <trkpt lat="44.8337" lon="5.37293">
        <ele>1384.44</ele>
        <time>2017-05-20T12:42:03Z</time>
      </trkpt>
      <trkpt lat="44.83371" lon="5.37293">
        <ele>1387.8</ele>
        <time>2017-05-20T12:42:04Z</time>
      </trkpt>
      <trkpt lat="44.83373" lon="5.37293">
        <ele>1384.92</ele>
        <time>2017-05-20T12:42:05Z</time>
      </trkpt>
      <trkpt lat="44.83379" lon="5.37299">
        <ele>1384.44</ele>
        <time>2017-05-20T12:42:11Z</time>
      </trkpt>
      <trkpt lat="44.83381" lon="5.37301">
        <ele>1384.44</ele>
        <time>2017-05-20T12:42:13Z</time>
      </trkpt>
      <trkpt lat="44.83382" lon="5.37302">
        <ele>1384.92</ele>
        <time>2017-05-20T12:42:14Z</time>
      </trkpt>
      <trkpt lat="44.83384" lon="5.37303">
        <ele>1385.4</ele>
        <time>2017-05-20T12:42:15Z</time>
      </trkpt>
      <trkpt lat="44.83385" lon="5.37303">
        <ele>1385.4</ele>
        <time>2017-05-20T12:42:16Z</time>
      </trkpt>
      <trkpt lat="44.83387" lon="5.37304">
        <ele>1385.4</ele>
        <time>2017-05-20T12:42:17Z</time>
      </trkpt>
      <trkpt lat="44.83388" lon="5.37304">
        <ele>1385.4</ele>
        <time>2017-05-20T12:42:18Z</time>
      </trkpt>
      <trkpt lat="44.8339" lon="5.37305">
        <ele>1385.4</ele>
        <time>2017-05-20T12:42:19Z</time>
      </trkpt>
      <trkpt lat="44.83391" lon="5.37305">
        <ele>1385.4</ele>
        <time>2017-05-20T12:42:20Z</time>
      </trkpt>
      <trkpt lat="44.83405" lon="5.3731">
        <ele>1386.36</ele>
        <time>2017-05-20T12:42:31Z</time>
      </trkpt>
      <trkpt lat="44.83425" lon="5.37316">
        <ele>1386.84</ele>
        <time>2017-05-20T12:42:45Z</time>
      </trkpt>
      <trkpt lat="44.83429" lon="5.37318">
        <ele>1386.84</ele>
        <time>2017-05-20T12:42:48Z</time>
      </trkpt>
      <trkpt lat="44.8343" lon="5.37319">
        <ele>1386.84</ele>
        <time>2017-05-20T12:42:49Z</time>
      </trkpt>
      <trkpt lat="44.83431" lon="5.37319">
        <ele>1386.84</ele>
        <time>2017-05-20T12:42:50Z</time>
      </trkpt>
      <trkpt lat="44.83433" lon="5.37319">
        <ele>1386.84</ele>
        <time>2017-05-20T12:42:51Z</time>
      </trkpt>
      <trkpt lat="44.83434" lon="5.3732">
        <ele>1386.84</ele>
        <time>2017-05-20T12:42:52Z</time>
      </trkpt>
      <trkpt lat="44.83436" lon="5.3732">
        <ele>1386.84</ele>
        <time>2017-05-20T12:42:53Z</time>
      </trkpt>
      <trkpt lat="44.83437" lon="5.3732">
        <ele>1386.84</ele>
        <time>2017-05-20T12:42:54Z</time>
      </trkpt>
      <trkpt lat="44.83439" lon="5.37321">
        <ele>1387.32</ele>
        <time>2017-05-20T12:42:55Z</time>
      </trkpt>
      <trkpt lat="44.8344" lon="5.37321">
        <ele>1387.32</ele>
        <time>2017-05-20T12:42:56Z</time>
      </trkpt>
      <trkpt lat="44.83445" lon="5.37323">
        <ele>1387.32</ele>
        <time>2017-05-20T12:42:59Z</time>
      </trkpt>
      <trkpt lat="44.83446" lon="5.37324">
        <ele>1387.32</ele>
        <time>2017-05-20T12:43:00Z</time>
      </trkpt>
      <trkpt lat="44.83448" lon="5.37325">
        <ele>1387.32</ele>
        <time>2017-05-20T12:43:01Z</time>
      </trkpt>
      <trkpt lat="44.83449" lon="5.37325">
        <ele>1387.32</ele>
        <time>2017-05-20T12:43:02Z</time>
      </trkpt>
      <trkpt lat="44.83451" lon="5.37326">
        <ele>1388.28</ele>
        <time>2017-05-20T12:43:03Z</time>
      </trkpt>
      <trkpt lat="44.8348" lon="5.37337">
        <ele>1388.76</ele>
        <time>2017-05-20T12:43:18Z</time>
      </trkpt>
      <trkpt lat="44.83484" lon="5.37339">
        <ele>1388.76</ele>
        <time>2017-05-20T12:43:20Z</time>
      </trkpt>
      <trkpt lat="44.83486" lon="5.3734">
        <ele>1388.76</ele>
        <time>2017-05-20T12:43:21Z</time>
      </trkpt>
      <trkpt lat="44.83488" lon="5.37342">
        <ele>1388.76</ele>
        <time>2017-05-20T12:43:22Z</time>
      </trkpt>
      <trkpt lat="44.8349" lon="5.37343">
        <ele>1388.76</ele>
        <time>2017-05-20T12:43:23Z</time>
      </trkpt>
      <trkpt lat="44.83492" lon="5.37344">
        <ele>1388.76</ele>
        <time>2017-05-20T12:43:24Z</time>
      </trkpt>
      <trkpt lat="44.83494" lon="5.37346">
        <ele>1389.24</ele>
        <time>2017-05-20T12:43:25Z</time>
      </trkpt>
      <trkpt lat="44.83496" lon="5.37347">
        <ele>1389.24</ele>
        <time>2017-05-20T12:43:26Z</time>
      </trkpt>
      <trkpt lat="44.83498" lon="5.37349">
        <ele>1389.72</ele>
        <time>2017-05-20T12:43:27Z</time>
      </trkpt>
      <trkpt lat="44.83499" lon="5.37351">
        <ele>1389.72</ele>
        <time>2017-05-20T12:43:28Z</time>
      </trkpt>
      <trkpt lat="44.83501" lon="5.37352">
        <ele>1389.72</ele>
        <time>2017-05-20T12:43:29Z</time>
      </trkpt>
      <trkpt lat="44.83502" lon="5.37353">
        <ele>1389.72</ele>
        <time>2017-05-20T12:43:30Z</time>
      </trkpt>
      <trkpt lat="44.83505" lon="5.37354">
        <ele>1389.72</ele>
        <time>2017-05-20T12:43:31Z</time>
      </trkpt>
      <trkpt lat="44.83532" lon="5.3736">
        <ele>1389.24</ele>
        <time>2017-05-20T12:43:42Z</time>
      </trkpt>
      <trkpt lat="44.83547" lon="5.37362">
        <ele>1387.32</ele>
        <time>2017-05-20T12:43:47Z</time>
      </trkpt>
      <trkpt lat="44.83568" lon="5.37366">
        <ele>1388.28</ele>
        <time>2017-05-20T12:43:53Z</time>
      </trkpt>
      <trkpt lat="44.83603" lon="5.37375">
        <ele>1388.28</ele>
        <time>2017-05-20T12:44:04Z</time>
      </trkpt>
      <trkpt lat="44.83639" lon="5.37395">
        <ele>1387.8</ele>
        <time>2017-05-20T12:44:16Z</time>
      </trkpt>
      <trkpt lat="44.83663" lon="5.37408">
        <ele>1391.17</ele>
        <time>2017-05-20T12:44:25Z</time>
      </trkpt>
      <trkpt lat="44.83704" lon="5.37429">
        <ele>1391.17</ele>
        <time>2017-05-20T12:44:39Z</time>
      </trkpt>
      <trkpt lat="44.8374" lon="5.37447">
        <ele>1390.2</ele>
        <time>2017-05-20T12:44:50Z</time>
      </trkpt>
      <trkpt lat="44.83785" lon="5.37469">
        <ele>1389.24</ele>
        <time>2017-05-20T12:45:01Z</time>
      </trkpt>
      <trkpt lat="44.83819" lon="5.37489">
        <ele>1390.2</ele>
        <time>2017-05-20T12:45:09Z</time>
      </trkpt>
      <trkpt lat="44.83823" lon="5.3749">
        <ele>1390.2</ele>
        <time>2017-05-20T12:45:10Z</time>
      </trkpt>
      <trkpt lat="44.8386" lon="5.37507">
        <ele>1390.68</ele>
        <time>2017-05-20T12:45:20Z</time>
      </trkpt>
      <trkpt lat="44.83864" lon="5.37508">
        <ele>1390.2</ele>
        <time>2017-05-20T12:45:21Z</time>
      </trkpt>
      <trkpt lat="44.83875" lon="5.37512">
        <ele>1390.68</ele>
        <time>2017-05-20T12:45:24Z</time>
      </trkpt>
      <trkpt lat="44.83879" lon="5.37512">
        <ele>1391.17</ele>
        <time>2017-05-20T12:45:25Z</time>
      </trkpt>
      <trkpt lat="44.83883" lon="5.37512">
        <ele>1391.17</ele>
        <time>2017-05-20T12:45:26Z</time>
      </trkpt>
      <trkpt lat="44.83887" lon="5.37514">
        <ele>1391.17</ele>
        <time>2017-05-20T12:45:27Z</time>
      </trkpt>
      <trkpt lat="44.83891" lon="5.37516">
        <ele>1391.17</ele>
        <time>2017-05-20T12:45:28Z</time>
      </trkpt>
      <trkpt lat="44.83894" lon="5.37517">
        <ele>1391.17</ele>
        <time>2017-05-20T12:45:29Z</time>
      </trkpt>
      <trkpt lat="44.83936" lon="5.37543">
        <ele>1391.17</ele>
        <time>2017-05-20T12:45:41Z</time>
      </trkpt>
      <trkpt lat="44.8394" lon="5.37545">
        <ele>1390.68</ele>
        <time>2017-05-20T12:45:42Z</time>
      </trkpt>
      <trkpt lat="44.83948" lon="5.3755">
        <ele>1390.68</ele>
        <time>2017-05-20T12:45:44Z</time>
      </trkpt>
      <trkpt lat="44.83953" lon="5.37551">
        <ele>1390.68</ele>
        <time>2017-05-20T12:45:45Z</time>
      </trkpt>
      <trkpt lat="44.83962" lon="5.37553">
        <ele>1390.2</ele>
        <time>2017-05-20T12:45:47Z</time>
      </trkpt>
      <trkpt lat="44.83971" lon="5.37555">
        <ele>1390.2</ele>
        <time>2017-05-20T12:45:49Z</time>
      </trkpt>
      <trkpt lat="44.83984" lon="5.37561">
        <ele>1389.72</ele>
        <time>2017-05-20T12:45:52Z</time>
      </trkpt>
      <trkpt lat="44.83988" lon="5.37564">
        <ele>1390.2</ele>
        <time>2017-05-20T12:45:53Z</time>
      </trkpt>
      <trkpt lat="44.83993" lon="5.37567">
        <ele>1390.2</ele>
        <time>2017-05-20T12:45:54Z</time>
      </trkpt>
      <trkpt lat="44.8401" lon="5.37576">
        <ele>1390.2</ele>
        <time>2017-05-20T12:45:58Z</time>
      </trkpt>
      <trkpt lat="44.84017" lon="5.37583">
        <ele>1390.68</ele>
        <time>2017-05-20T12:46:00Z</time>
      </trkpt>
      <trkpt lat="44.8402" lon="5.37585">
        <ele>1390.2</ele>
        <time>2017-05-20T12:46:01Z</time>
      </trkpt>
      <trkpt lat="44.84024" lon="5.37587">
        <ele>1390.68</ele>
        <time>2017-05-20T12:46:02Z</time>
      </trkpt>
      <trkpt lat="44.84027" lon="5.37589">
        <ele>1390.68</ele>
        <time>2017-05-20T12:46:03Z</time>
      </trkpt>
      <trkpt lat="44.84031" lon="5.37592">
        <ele>1390.68</ele>
        <time>2017-05-20T12:46:04Z</time>
      </trkpt>
      <trkpt lat="44.8404" lon="5.37595">
        <ele>1390.68</ele>
        <time>2017-05-20T12:46:06Z</time>
      </trkpt>
      <trkpt lat="44.84044" lon="5.37596">
        <ele>1390.68</ele>
        <time>2017-05-20T12:46:07Z</time>
      </trkpt>
      <trkpt lat="44.84048" lon="5.37597">
        <ele>1390.68</ele>
        <time>2017-05-20T12:46:08Z</time>
      </trkpt>
      <trkpt lat="44.84051" lon="5.37599">
        <ele>1390.68</ele>
        <time>2017-05-20T12:46:09Z</time>
      </trkpt>
      <trkpt lat="44.84054" lon="5.37601">
        <ele>1391.17</ele>
        <time>2017-05-20T12:46:10Z</time>
      </trkpt>
      <trkpt lat="44.84058" lon="5.37603">
        <ele>1391.65</ele>
        <time>2017-05-20T12:46:11Z</time>
      </trkpt>
      <trkpt lat="44.8409" lon="5.37616">
        <ele>1391.17</ele>
        <time>2017-05-20T12:46:19Z</time>
      </trkpt>
      <trkpt lat="44.84107" lon="5.37621">
        <ele>1391.17</ele>
        <time>2017-05-20T12:46:23Z</time>
      </trkpt>
      <trkpt lat="44.84111" lon="5.37622">
        <ele>1391.17</ele>
        <time>2017-05-20T12:46:24Z</time>
      </trkpt>
      <trkpt lat="44.84116" lon="5.37623">
        <ele>1390.68</ele>
        <time>2017-05-20T12:46:25Z</time>
      </trkpt>
      <trkpt lat="44.8415" lon="5.37631">
        <ele>1390.68</ele>
        <time>2017-05-20T12:46:32Z</time>
      </trkpt>
      <trkpt lat="44.84214" lon="5.37652">
        <ele>1390.2</ele>
        <time>2017-05-20T12:46:45Z</time>
      </trkpt>
      <trkpt lat="44.84248" lon="5.37679">
        <ele>1394.05</ele>
        <time>2017-05-20T12:46:55Z</time>
      </trkpt>
      <trkpt lat="44.84251" lon="5.37683">
        <ele>1390.2</ele>
        <time>2017-05-20T12:46:56Z</time>
      </trkpt>
      <trkpt lat="44.84253" lon="5.37687">
        <ele>1394.53</ele>
        <time>2017-05-20T12:46:57Z</time>
      </trkpt>
      <trkpt lat="44.84292" lon="5.37722">
        <ele>1394.53</ele>
        <time>2017-05-20T12:47:10Z</time>
      </trkpt>
      <trkpt lat="44.84315" lon="5.37742">
        <ele>1395.49</ele>
        <time>2017-05-20T12:47:19Z</time>
      </trkpt>
      <trkpt lat="44.84347" lon="5.3777">
        <ele>1396.93</ele>
        <time>2017-05-20T12:47:31Z</time>
      </trkpt>
      <trkpt lat="44.84379" lon="5.37799">
        <ele>1398.86</ele>
        <time>2017-05-20T12:47:44Z</time>
      </trkpt>
      <trkpt lat="44.84404" lon="5.37833">
        <ele>1399.82</ele>
        <time>2017-05-20T12:47:57Z</time>
      </trkpt>
      <trkpt lat="44.84414" lon="5.37845">
        <ele>1400.78</ele>
        <time>2017-05-20T12:48:05Z</time>
      </trkpt>
      <trkpt lat="44.84415" lon="5.37846">
        <ele>1400.78</ele>
        <time>2017-05-20T12:48:06Z</time>
      </trkpt>
      <trkpt lat="44.84416" lon="5.37848">
        <ele>1401.26</ele>
        <time>2017-05-20T12:48:07Z</time>
      </trkpt>
      <trkpt lat="44.84418" lon="5.37849">
        <ele>1401.26</ele>
        <time>2017-05-20T12:48:08Z</time>
      </trkpt>
      <trkpt lat="44.84419" lon="5.3785">
        <ele>1401.26</ele>
        <time>2017-05-20T12:48:09Z</time>
      </trkpt>
      <trkpt lat="44.84419" lon="5.37851">
        <ele>1401.26</ele>
        <time>2017-05-20T12:48:10Z</time>
      </trkpt>
      <trkpt lat="44.84421" lon="5.37852">
        <ele>1401.26</ele>
        <time>2017-05-20T12:48:11Z</time>
      </trkpt>
      <trkpt lat="44.84421" lon="5.37853">
        <ele>1401.74</ele>
        <time>2017-05-20T12:48:12Z</time>
      </trkpt>
      <trkpt lat="44.84423" lon="5.37854">
        <ele>1401.74</ele>
        <time>2017-05-20T12:48:13Z</time>
      </trkpt>
      <trkpt lat="44.84423" lon="5.37856">
        <ele>1402.22</ele>
        <time>2017-05-20T12:48:14Z</time>
      </trkpt>
      <trkpt lat="44.84424" lon="5.37857">
        <ele>1402.7</ele>
        <time>2017-05-20T12:48:15Z</time>
      </trkpt>
      <trkpt lat="44.84425" lon="5.37858">
        <ele>1402.7</ele>
        <time>2017-05-20T12:48:16Z</time>
      </trkpt>
      <trkpt lat="44.84426" lon="5.37859">
        <ele>1402.7</ele>
        <time>2017-05-20T12:48:17Z</time>
      </trkpt>
      <trkpt lat="44.84428" lon="5.37863">
        <ele>1403.66</ele>
        <time>2017-05-20T12:48:20Z</time>
      </trkpt>
      <trkpt lat="44.84429" lon="5.37863">
        <ele>1404.14</ele>
        <time>2017-05-20T12:48:21Z</time>
      </trkpt>
      <trkpt lat="44.8443" lon="5.37865">
        <ele>1404.14</ele>
        <time>2017-05-20T12:48:22Z</time>
      </trkpt>
      <trkpt lat="44.8444" lon="5.37876">
        <ele>1405.58</ele>
        <time>2017-05-20T12:48:32Z</time>
      </trkpt>
      <trkpt lat="44.84441" lon="5.37877">
        <ele>1406.07</ele>
        <time>2017-05-20T12:48:33Z</time>
      </trkpt>
      <trkpt lat="44.84442" lon="5.37878">
        <ele>1406.55</ele>
        <time>2017-05-20T12:48:34Z</time>
      </trkpt>
      <trkpt lat="44.84443" lon="5.3788">
        <ele>1407.03</ele>
        <time>2017-05-20T12:48:35Z</time>
      </trkpt>
      <trkpt lat="44.84443" lon="5.37881">
        <ele>1407.03</ele>
        <time>2017-05-20T12:48:36Z</time>
      </trkpt>
      <trkpt lat="44.84445" lon="5.37882">
        <ele>1407.03</ele>
        <time>2017-05-20T12:48:37Z</time>
      </trkpt>
      <trkpt lat="44.84446" lon="5.37884">
        <ele>1407.51</ele>
        <time>2017-05-20T12:48:38Z</time>
      </trkpt>
      <trkpt lat="44.84447" lon="5.37885">
        <ele>1407.99</ele>
        <time>2017-05-20T12:48:39Z</time>
      </trkpt>
      <trkpt lat="44.84448" lon="5.37888">
        <ele>1407.99</ele>
        <time>2017-05-20T12:48:40Z</time>
      </trkpt>
      <trkpt lat="44.84449" lon="5.3789">
        <ele>1407.99</ele>
        <time>2017-05-20T12:48:41Z</time>
      </trkpt>
      <trkpt lat="44.8445" lon="5.37891">
        <ele>1408.47</ele>
        <time>2017-05-20T12:48:42Z</time>
      </trkpt>
      <trkpt lat="44.84452" lon="5.37893">
        <ele>1408.47</ele>
        <time>2017-05-20T12:48:44Z</time>
      </trkpt>
      <trkpt lat="44.84453" lon="5.37895">
        <ele>1408.95</ele>
        <time>2017-05-20T12:48:45Z</time>
      </trkpt>
      <trkpt lat="44.84454" lon="5.37897">
        <ele>1408.95</ele>
        <time>2017-05-20T12:48:46Z</time>
      </trkpt>
      <trkpt lat="44.84455" lon="5.37898">
        <ele>1408.95</ele>
        <time>2017-05-20T12:48:47Z</time>
      </trkpt>
      <trkpt lat="44.84456" lon="5.37899">
        <ele>1409.43</ele>
        <time>2017-05-20T12:48:48Z</time>
      </trkpt>
      <trkpt lat="44.84457" lon="5.37901">
        <ele>1409.43</ele>
        <time>2017-05-20T12:48:49Z</time>
      </trkpt>
      <trkpt lat="44.84458" lon="5.37902">
        <ele>1408.95</ele>
        <time>2017-05-20T12:48:50Z</time>
      </trkpt>
      <trkpt lat="44.84459" lon="5.37903">
        <ele>1409.43</ele>
        <time>2017-05-20T12:48:51Z</time>
      </trkpt>
      <trkpt lat="44.8446" lon="5.37904">
        <ele>1409.43</ele>
        <time>2017-05-20T12:48:52Z</time>
      </trkpt>
      <trkpt lat="44.84461" lon="5.37905">
        <ele>1409.43</ele>
        <time>2017-05-20T12:48:53Z</time>
      </trkpt>
      <trkpt lat="44.84462" lon="5.37906">
        <ele>1409.43</ele>
        <time>2017-05-20T12:48:54Z</time>
      </trkpt>
      <trkpt lat="44.84472" lon="5.37918">
        <ele>1410.39</ele>
        <time>2017-05-20T12:49:04Z</time>
      </trkpt>
      <trkpt lat="44.84481" lon="5.37934">
        <ele>1411.35</ele>
        <time>2017-05-20T12:49:15Z</time>
      </trkpt>
      <trkpt lat="44.8449" lon="5.37952">
        <ele>1412.79</ele>
        <time>2017-05-20T12:49:25Z</time>
      </trkpt>
      <trkpt lat="44.84491" lon="5.37953">
        <ele>1412.79</ele>
        <time>2017-05-20T12:49:26Z</time>
      </trkpt>
      <trkpt lat="44.84494" lon="5.37958">
        <ele>1413.28</ele>
        <time>2017-05-20T12:49:29Z</time>
      </trkpt>
      <trkpt lat="44.84495" lon="5.3796">
        <ele>1413.28</ele>
        <time>2017-05-20T12:49:30Z</time>
      </trkpt>
      <trkpt lat="44.84496" lon="5.37961">
        <ele>1413.28</ele>
        <time>2017-05-20T12:49:31Z</time>
      </trkpt>
      <trkpt lat="44.84497" lon="5.37963">
        <ele>1413.28</ele>
        <time>2017-05-20T12:49:32Z</time>
      </trkpt>
      <trkpt lat="44.84498" lon="5.37965">
        <ele>1412.79</ele>
        <time>2017-05-20T12:49:33Z</time>
      </trkpt>
      <trkpt lat="44.84502" lon="5.37975">
        <ele>1412.79</ele>
        <time>2017-05-20T12:49:39Z</time>
      </trkpt>
      <trkpt lat="44.84505" lon="5.37977">
        <ele>1413.28</ele>
        <time>2017-05-20T12:49:53Z</time>
      </trkpt>
      <trkpt lat="44.84505" lon="5.37977">
        <ele>1412.79</ele>
        <time>2017-05-20T12:50:17Z</time>
      </trkpt>
      <trkpt lat="44.84507" lon="5.37979">
        <ele>1412.31</ele>
        <time>2017-05-20T12:50:38Z</time>
      </trkpt>
      <trkpt lat="44.84509" lon="5.37982">
        <ele>1410.87</ele>
        <time>2017-05-20T12:50:39Z</time>
      </trkpt>
      <trkpt lat="44.84513" lon="5.37983">
        <ele>1409.91</ele>
        <time>2017-05-20T12:50:40Z</time>
      </trkpt>
      <trkpt lat="44.84531" lon="5.3799">
        <ele>1407.03</ele>
        <time>2017-05-20T12:50:43Z</time>
      </trkpt>
      <trkpt lat="44.84537" lon="5.37995">
        <ele>1406.55</ele>
        <time>2017-05-20T12:50:44Z</time>
      </trkpt>
      <trkpt lat="44.84542" lon="5.37999">
        <ele>1406.55</ele>
        <time>2017-05-20T12:50:45Z</time>
      </trkpt>
      <trkpt lat="44.84547" lon="5.38003">
        <ele>1406.07</ele>
        <time>2017-05-20T12:50:46Z</time>
      </trkpt>
      <trkpt lat="44.84553" lon="5.38006">
        <ele>1405.58</ele>
        <time>2017-05-20T12:50:47Z</time>
      </trkpt>
      <trkpt lat="44.84559" lon="5.38008">
        <ele>1405.58</ele>
        <time>2017-05-20T12:50:48Z</time>
      </trkpt>
      <trkpt lat="44.84564" lon="5.3801">
        <ele>1406.55</ele>
        <time>2017-05-20T12:50:49Z</time>
      </trkpt>
      <trkpt lat="44.84581" lon="5.38016">
        <ele>1405.58</ele>
        <time>2017-05-20T12:50:57Z</time>
      </trkpt>
      <trkpt lat="44.84583" lon="5.38018">
        <ele>1405.1</ele>
        <time>2017-05-20T12:50:58Z</time>
      </trkpt>
      <trkpt lat="44.84584" lon="5.3802">
        <ele>1405.1</ele>
        <time>2017-05-20T12:50:59Z</time>
      </trkpt>
      <trkpt lat="44.84586" lon="5.38022">
        <ele>1404.62</ele>
        <time>2017-05-20T12:51:00Z</time>
      </trkpt>
      <trkpt lat="44.84588" lon="5.38025">
        <ele>1404.62</ele>
        <time>2017-05-20T12:51:01Z</time>
      </trkpt>
      <trkpt lat="44.84592" lon="5.38027">
        <ele>1404.14</ele>
        <time>2017-05-20T12:51:02Z</time>
      </trkpt>
      <trkpt lat="44.84595" lon="5.38029">
        <ele>1404.14</ele>
        <time>2017-05-20T12:51:03Z</time>
      </trkpt>
      <trkpt lat="44.84598" lon="5.3803">
        <ele>1403.66</ele>
        <time>2017-05-20T12:51:04Z</time>
      </trkpt>
      <trkpt lat="44.8462" lon="5.38038">
        <ele>1402.22</ele>
        <time>2017-05-20T12:51:12Z</time>
      </trkpt>
      <trkpt lat="44.84632" lon="5.3804">
        <ele>1401.26</ele>
        <time>2017-05-20T12:51:16Z</time>
      </trkpt>
      <trkpt lat="44.84637" lon="5.38043">
        <ele>1400.78</ele>
        <time>2017-05-20T12:51:17Z</time>
      </trkpt>
      <trkpt lat="44.8464" lon="5.38044">
        <ele>1400.78</ele>
        <time>2017-05-20T12:51:18Z</time>
      </trkpt>
      <trkpt lat="44.84644" lon="5.38044">
        <ele>1401.26</ele>
        <time>2017-05-20T12:51:19Z</time>
      </trkpt>
      <trkpt lat="44.84648" lon="5.38045">
        <ele>1401.26</ele>
        <time>2017-05-20T12:51:20Z</time>
      </trkpt>
      <trkpt lat="44.84652" lon="5.38045">
        <ele>1401.26</ele>
        <time>2017-05-20T12:51:21Z</time>
      </trkpt>
      <trkpt lat="44.84686" lon="5.38057">
        <ele>1401.26</ele>
        <time>2017-05-20T12:51:33Z</time>
      </trkpt>
      <trkpt lat="44.84701" lon="5.38061">
        <ele>1403.18</ele>
        <time>2017-05-20T12:51:40Z</time>
      </trkpt>
      <trkpt lat="44.84702" lon="5.38062">
        <ele>1403.18</ele>
        <time>2017-05-20T12:51:41Z</time>
      </trkpt>
      <trkpt lat="44.84724" lon="5.3806">
        <ele>1403.18</ele>
        <time>2017-05-20T12:51:51Z</time>
      </trkpt>
      <trkpt lat="44.84747" lon="5.38059">
        <ele>1404.14</ele>
        <time>2017-05-20T12:52:01Z</time>
      </trkpt>
      <trkpt lat="44.84761" lon="5.38068">
        <ele>1405.1</ele>
        <time>2017-05-20T12:52:09Z</time>
      </trkpt>
      <trkpt lat="44.84772" lon="5.38081">
        <ele>1406.55</ele>
        <time>2017-05-20T12:52:17Z</time>
      </trkpt>
      <trkpt lat="44.84801" lon="5.38106">
        <ele>1405.1</ele>
        <time>2017-05-20T12:52:30Z</time>
      </trkpt>
      <trkpt lat="44.84805" lon="5.38109">
        <ele>1405.58</ele>
        <time>2017-05-20T12:52:32Z</time>
      </trkpt>
      <trkpt lat="44.84813" lon="5.38114">
        <ele>1405.58</ele>
        <time>2017-05-20T12:52:35Z</time>
      </trkpt>
      <trkpt lat="44.84834" lon="5.38122">
        <ele>1401.74</ele>
        <time>2017-05-20T12:52:41Z</time>
      </trkpt>
      <trkpt lat="44.84849" lon="5.38119">
        <ele>1397.89</ele>
        <time>2017-05-20T12:52:44Z</time>
      </trkpt>
      <trkpt lat="44.84859" lon="5.3812">
        <ele>1396.93</ele>
        <time>2017-05-20T12:52:46Z</time>
      </trkpt>
      <trkpt lat="44.84878" lon="5.38121">
        <ele>1395.01</ele>
        <time>2017-05-20T12:52:51Z</time>
      </trkpt>
      <trkpt lat="44.84888" lon="5.3812">
        <ele>1390.68</ele>
        <time>2017-05-20T12:52:53Z</time>
      </trkpt>
      <trkpt lat="44.84901" lon="5.38119">
        <ele>1387.8</ele>
        <time>2017-05-20T12:52:55Z</time>
      </trkpt>
      <trkpt lat="44.84914" lon="5.38117">
        <ele>1385.88</ele>
        <time>2017-05-20T12:52:57Z</time>
      </trkpt>
      <trkpt lat="44.84926" lon="5.38118">
        <ele>1384.44</ele>
        <time>2017-05-20T12:52:59Z</time>
      </trkpt>
      <trkpt lat="44.84948" lon="5.38124">
        <ele>1380.11</ele>
        <time>2017-05-20T12:53:03Z</time>
      </trkpt>
      <trkpt lat="44.84963" lon="5.38131">
        <ele>1376.75</ele>
        <time>2017-05-20T12:53:06Z</time>
      </trkpt>
      <trkpt lat="44.8498" lon="5.38136">
        <ele>1373.86</ele>
        <time>2017-05-20T12:53:09Z</time>
      </trkpt>
      <trkpt lat="44.84999" lon="5.38142">
        <ele>1369.05</ele>
        <time>2017-05-20T12:53:12Z</time>
      </trkpt>
      <trkpt lat="44.85028" lon="5.38144">
        <ele>1363.77</ele>
        <time>2017-05-20T12:53:16Z</time>
      </trkpt>
      <trkpt lat="44.8504" lon="5.38144">
        <ele>1362.33</ele>
        <time>2017-05-20T12:53:18Z</time>
      </trkpt>
      <trkpt lat="44.85051" lon="5.38141">
        <ele>1358.48</ele>
        <time>2017-05-20T12:53:20Z</time>
      </trkpt>
      <trkpt lat="44.85076" lon="5.3813">
        <ele>1353.67</ele>
        <time>2017-05-20T12:53:25Z</time>
      </trkpt>
      <trkpt lat="44.85102" lon="5.38124">
        <ele>1348.39</ele>
        <time>2017-05-20T12:53:30Z</time>
      </trkpt>
      <trkpt lat="44.85107" lon="5.38125">
        <ele>1346.94</ele>
        <time>2017-05-20T12:53:31Z</time>
      </trkpt>
      <trkpt lat="44.85117" lon="5.38129">
        <ele>1343.58</ele>
        <time>2017-05-20T12:53:33Z</time>
      </trkpt>
      <trkpt lat="44.85141" lon="5.38129">
        <ele>1339.73</ele>
        <time>2017-05-20T12:53:37Z</time>
      </trkpt>
      <trkpt lat="44.85163" lon="5.38133">
        <ele>1335.89</ele>
        <time>2017-05-20T12:53:41Z</time>
      </trkpt>
      <trkpt lat="44.85168" lon="5.38136">
        <ele>1334.93</ele>
        <time>2017-05-20T12:53:42Z</time>
      </trkpt>
      <trkpt lat="44.85173" lon="5.38139">
        <ele>1334.93</ele>
        <time>2017-05-20T12:53:43Z</time>
      </trkpt>
      <trkpt lat="44.85176" lon="5.38142">
        <ele>1334.45</ele>
        <time>2017-05-20T12:53:44Z</time>
      </trkpt>
      <trkpt lat="44.85181" lon="5.38144">
        <ele>1333.97</ele>
        <time>2017-05-20T12:53:45Z</time>
      </trkpt>
      <trkpt lat="44.85202" lon="5.38143">
        <ele>1331.08</ele>
        <time>2017-05-20T12:53:51Z</time>
      </trkpt>
      <trkpt lat="44.85207" lon="5.3814">
        <ele>1329.64</ele>
        <time>2017-05-20T12:53:52Z</time>
      </trkpt>
      <trkpt lat="44.85211" lon="5.38138">
        <ele>1328.68</ele>
        <time>2017-05-20T12:53:53Z</time>
      </trkpt>
      <trkpt lat="44.85217" lon="5.38136">
        <ele>1327.24</ele>
        <time>2017-05-20T12:53:54Z</time>
      </trkpt>
      <trkpt lat="44.85223" lon="5.38134">
        <ele>1325.31</ele>
        <time>2017-05-20T12:53:55Z</time>
      </trkpt>
      <trkpt lat="44.85228" lon="5.38131">
        <ele>1323.87</ele>
        <time>2017-05-20T12:53:56Z</time>
      </trkpt>
      <trkpt lat="44.85237" lon="5.38128">
        <ele>1322.91</ele>
        <time>2017-05-20T12:54:02Z</time>
      </trkpt>
      <trkpt lat="44.85239" lon="5.38132">
        <ele>1322.91</ele>
        <time>2017-05-20T12:54:05Z</time>
      </trkpt>
      <trkpt lat="44.8524" lon="5.38133">
        <ele>1322.91</ele>
        <time>2017-05-20T12:54:06Z</time>
      </trkpt>
      <trkpt lat="44.85241" lon="5.38135">
        <ele>1322.91</ele>
        <time>2017-05-20T12:54:07Z</time>
      </trkpt>
      <trkpt lat="44.85242" lon="5.38137">
        <ele>1322.91</ele>
        <time>2017-05-20T12:54:08Z</time>
      </trkpt>
      <trkpt lat="44.85243" lon="5.38138">
        <ele>1322.43</ele>
        <time>2017-05-20T12:54:09Z</time>
      </trkpt>
      <trkpt lat="44.85243" lon="5.3814">
        <ele>1322.43</ele>
        <time>2017-05-20T12:54:10Z</time>
      </trkpt>
      <trkpt lat="44.85251" lon="5.38143">
        <ele>1320.51</ele>
        <time>2017-05-20T12:54:15Z</time>
      </trkpt>
      <trkpt lat="44.85265" lon="5.38143">
        <ele>1317.62</ele>
        <time>2017-05-20T12:54:21Z</time>
      </trkpt>
      <trkpt lat="44.85271" lon="5.38143">
        <ele>1315.7</ele>
        <time>2017-05-20T12:54:23Z</time>
      </trkpt>
      <trkpt lat="44.85284" lon="5.38134">
        <ele>1311.86</ele>
        <time>2017-05-20T12:54:28Z</time>
      </trkpt>
      <trkpt lat="44.85293" lon="5.38127">
        <ele>1308.49</ele>
        <time>2017-05-20T12:54:31Z</time>
      </trkpt>
      <trkpt lat="44.85299" lon="5.38123">
        <ele>1306.57</ele>
        <time>2017-05-20T12:54:33Z</time>
      </trkpt>
      <trkpt lat="44.85318" lon="5.38112">
        <ele>1299.84</ele>
        <time>2017-05-20T12:54:37Z</time>
      </trkpt>
      <trkpt lat="44.85338" lon="5.3811">
        <ele>1296.48</ele>
        <time>2017-05-20T12:54:41Z</time>
      </trkpt>
      <trkpt lat="44.85352" lon="5.38111">
        <ele>1292.15</ele>
        <time>2017-05-20T12:54:44Z</time>
      </trkpt>
      <trkpt lat="44.85365" lon="5.38111">
        <ele>1289.27</ele>
        <time>2017-05-20T12:54:47Z</time>
      </trkpt>
      <trkpt lat="44.8538" lon="5.38106">
        <ele>1286.38</ele>
        <time>2017-05-20T12:54:51Z</time>
      </trkpt>
      <trkpt lat="44.85394" lon="5.38098">
        <ele>1283.5</ele>
        <time>2017-05-20T12:54:54Z</time>
      </trkpt>
      <trkpt lat="44.85404" lon="5.38092">
        <ele>1281.09</ele>
        <time>2017-05-20T12:54:56Z</time>
      </trkpt>
      <trkpt lat="44.85414" lon="5.38088">
        <ele>1276.29</ele>
        <time>2017-05-20T12:54:58Z</time>
      </trkpt>
      <trkpt lat="44.85429" lon="5.38079">
        <ele>1271.96</ele>
        <time>2017-05-20T12:55:02Z</time>
      </trkpt>
      <trkpt lat="44.85439" lon="5.38064">
        <ele>1268.6</ele>
        <time>2017-05-20T12:55:06Z</time>
      </trkpt>
      <trkpt lat="44.85451" lon="5.38043">
        <ele>1264.27</ele>
        <time>2017-05-20T12:55:09Z</time>
      </trkpt>
      <trkpt lat="44.8546" lon="5.3803">
        <ele>1260.91</ele>
        <time>2017-05-20T12:55:11Z</time>
      </trkpt>
      <trkpt lat="44.85467" lon="5.38016">
        <ele>1257.06</ele>
        <time>2017-05-20T12:55:14Z</time>
      </trkpt>
      <trkpt lat="44.85481" lon="5.38006">
        <ele>1253.22</ele>
        <time>2017-05-20T12:55:18Z</time>
      </trkpt>
      <trkpt lat="44.85485" lon="5.38004">
        <ele>1252.74</ele>
        <time>2017-05-20T12:55:19Z</time>
      </trkpt>
      <trkpt lat="44.85504" lon="5.38005">
        <ele>1246.49</ele>
        <time>2017-05-20T12:55:23Z</time>
      </trkpt>
      <trkpt lat="44.85525" lon="5.38014">
        <ele>1241.68</ele>
        <time>2017-05-20T12:55:27Z</time>
      </trkpt>
      <trkpt lat="44.85533" lon="5.38023">
        <ele>1239.76</ele>
        <time>2017-05-20T12:55:29Z</time>
      </trkpt>
      <trkpt lat="44.85541" lon="5.38029">
        <ele>1237.83</ele>
        <time>2017-05-20T12:55:31Z</time>
      </trkpt>
      <trkpt lat="44.85555" lon="5.38034">
        <ele>1233.51</ele>
        <time>2017-05-20T12:55:34Z</time>
      </trkpt>
      <trkpt lat="44.85565" lon="5.38036">
        <ele>1230.62</ele>
        <time>2017-05-20T12:55:36Z</time>
      </trkpt>
      <trkpt lat="44.85584" lon="5.38051">
        <ele>1225.34</ele>
        <time>2017-05-20T12:55:40Z</time>
      </trkpt>
      <trkpt lat="44.8559" lon="5.38062">
        <ele>1222.45</ele>
        <time>2017-05-20T12:55:42Z</time>
      </trkpt>
      <trkpt lat="44.85599" lon="5.38072">
        <ele>1218.13</ele>
        <time>2017-05-20T12:55:47Z</time>
      </trkpt>
      <trkpt lat="44.85601" lon="5.38088">
        <ele>1212.84</ele>
        <time>2017-05-20T12:55:51Z</time>
      </trkpt>
      <trkpt lat="44.85606" lon="5.38096">
        <ele>1210.92</ele>
        <time>2017-05-20T12:55:53Z</time>
      </trkpt>
      <trkpt lat="44.85615" lon="5.38109">
        <ele>1206.11</ele>
        <time>2017-05-20T12:55:57Z</time>
      </trkpt>
      <trkpt lat="44.8562" lon="5.38112">
        <ele>1203.23</ele>
        <time>2017-05-20T12:55:59Z</time>
      </trkpt>
      <trkpt lat="44.85624" lon="5.38114">
        <ele>1201.3</ele>
        <time>2017-05-20T12:56:00Z</time>
      </trkpt>
      <trkpt lat="44.85642" lon="5.38115">
        <ele>1195.54</ele>
        <time>2017-05-20T12:56:04Z</time>
      </trkpt>
      <trkpt lat="44.85647" lon="5.38116">
        <ele>1194.58</ele>
        <time>2017-05-20T12:56:05Z</time>
      </trkpt>
      <trkpt lat="44.85663" lon="5.3813">
        <ele>1189.29</ele>
        <time>2017-05-20T12:56:11Z</time>
      </trkpt>
      <trkpt lat="44.8567" lon="5.38138">
        <ele>1184.96</ele>
        <time>2017-05-20T12:56:14Z</time>
      </trkpt>
      <trkpt lat="44.85678" lon="5.38143">
        <ele>1182.08</ele>
        <time>2017-05-20T12:56:16Z</time>
      </trkpt>
      <trkpt lat="44.85683" lon="5.38145">
        <ele>1181.6</ele>
        <time>2017-05-20T12:56:17Z</time>
      </trkpt>
      <trkpt lat="44.85691" lon="5.38152">
        <ele>1180.64</ele>
        <time>2017-05-20T12:56:19Z</time>
      </trkpt>
      <trkpt lat="44.85722" lon="5.38162">
        <ele>1178.23</ele>
        <time>2017-05-20T12:56:24Z</time>
      </trkpt>
      <trkpt lat="44.85742" lon="5.38167">
        <ele>1174.87</ele>
        <time>2017-05-20T12:56:28Z</time>
      </trkpt>
      <trkpt lat="44.8577" lon="5.38174">
        <ele>1174.87</ele>
        <time>2017-05-20T12:56:38Z</time>
      </trkpt>
      <trkpt lat="44.85786" lon="5.38182">
        <ele>1174.39</ele>
        <time>2017-05-20T12:56:55Z</time>
      </trkpt>
      <trkpt lat="44.85792" lon="5.38186">
        <ele>1173.43</ele>
        <time>2017-05-20T12:57:05Z</time>
      </trkpt>
      <trkpt lat="44.858" lon="5.38186">
        <ele>1171.5</ele>
        <time>2017-05-20T12:57:16Z</time>
      </trkpt>
      <trkpt lat="44.85802" lon="5.38189">
        <ele>1171.5</ele>
        <time>2017-05-20T12:57:19Z</time>
      </trkpt>
      <trkpt lat="44.85808" lon="5.38198">
        <ele>1171.5</ele>
        <time>2017-05-20T12:57:28Z</time>
      </trkpt>
      <trkpt lat="44.85813" lon="5.38207">
        <ele>1171.02</ele>
        <time>2017-05-20T12:57:36Z</time>
      </trkpt>
      <trkpt lat="44.85816" lon="5.38209">
        <ele>1171.02</ele>
        <time>2017-05-20T12:57:38Z</time>
      </trkpt>
      <trkpt lat="44.85828" lon="5.38208">
        <ele>1169.1</ele>
        <time>2017-05-20T12:57:47Z</time>
      </trkpt>
      <trkpt lat="44.85827" lon="5.38206">
        <ele>1169.1</ele>
        <time>2017-05-20T12:57:51Z</time>
      </trkpt>
      <trkpt lat="44.85826" lon="5.38203">
        <ele>1169.1</ele>
        <time>2017-05-20T12:58:04Z</time>
      </trkpt>
      <trkpt lat="44.85827" lon="5.38198">
        <ele>1169.1</ele>
        <time>2017-05-20T12:58:24Z</time>
      </trkpt>
      <trkpt lat="44.85827" lon="5.38194">
        <ele>1168.62</ele>
        <time>2017-05-20T12:58:34Z</time>
      </trkpt>
      <trkpt lat="44.85827" lon="5.38183">
        <ele>1167.66</ele>
        <time>2017-05-20T12:58:41Z</time>
      </trkpt>
      <trkpt lat="44.85832" lon="5.38177">
        <ele>1166.7</ele>
        <time>2017-05-20T12:58:46Z</time>
      </trkpt>
      <trkpt lat="44.85835" lon="5.38166">
        <ele>1166.22</ele>
        <time>2017-05-20T12:58:56Z</time>
      </trkpt>
      <trkpt lat="44.85837" lon="5.38164">
        <ele>1165.74</ele>
        <time>2017-05-20T12:58:58Z</time>
      </trkpt>
      <trkpt lat="44.85841" lon="5.38164">
        <ele>1165.26</ele>
        <time>2017-05-20T12:59:02Z</time>
      </trkpt>
      <trkpt lat="44.85853" lon="5.38175">
        <ele>1163.81</ele>
        <time>2017-05-20T12:59:06Z</time>
      </trkpt>
      <trkpt lat="44.85871" lon="5.38191">
        <ele>1159.97</ele>
        <time>2017-05-20T12:59:10Z</time>
      </trkpt>
      <trkpt lat="44.85875" lon="5.38195">
        <ele>1159.97</ele>
        <time>2017-05-20T12:59:11Z</time>
      </trkpt>
      <trkpt lat="44.8588" lon="5.38198">
        <ele>1159.49</ele>
        <time>2017-05-20T12:59:12Z</time>
      </trkpt>
      <trkpt lat="44.85884" lon="5.38202">
        <ele>1159.49</ele>
        <time>2017-05-20T12:59:13Z</time>
      </trkpt>
      <trkpt lat="44.85888" lon="5.38206">
        <ele>1159.49</ele>
        <time>2017-05-20T12:59:14Z</time>
      </trkpt>
      <trkpt lat="44.85891" lon="5.3821">
        <ele>1159.49</ele>
        <time>2017-05-20T12:59:15Z</time>
      </trkpt>
      <trkpt lat="44.85894" lon="5.38214">
        <ele>1159.49</ele>
        <time>2017-05-20T12:59:16Z</time>
      </trkpt>
      <trkpt lat="44.85896" lon="5.38219">
        <ele>1159.97</ele>
        <time>2017-05-20T12:59:17Z</time>
      </trkpt>
      <trkpt lat="44.85906" lon="5.38235">
        <ele>1160.45</ele>
        <time>2017-05-20T12:59:21Z</time>
      </trkpt>
      <trkpt lat="44.8591" lon="5.38237">
        <ele>1160.45</ele>
        <time>2017-05-20T12:59:22Z</time>
      </trkpt>
      <trkpt lat="44.85914" lon="5.38237">
        <ele>1159.97</ele>
        <time>2017-05-20T12:59:23Z</time>
      </trkpt>
      <trkpt lat="44.85918" lon="5.38237">
        <ele>1159.49</ele>
        <time>2017-05-20T12:59:24Z</time>
      </trkpt>
      <trkpt lat="44.85924" lon="5.38234">
        <ele>1158.05</ele>
        <time>2017-05-20T12:59:25Z</time>
      </trkpt>
      <trkpt lat="44.85929" lon="5.38232">
        <ele>1157.56</ele>
        <time>2017-05-20T12:59:26Z</time>
      </trkpt>
      <trkpt lat="44.85936" lon="5.38228">
        <ele>1157.08</ele>
        <time>2017-05-20T12:59:27Z</time>
      </trkpt>
      <trkpt lat="44.85941" lon="5.38222">
        <ele>1155.64</ele>
        <time>2017-05-20T12:59:28Z</time>
      </trkpt>
      <trkpt lat="44.85947" lon="5.38214">
        <ele>1154.2</ele>
        <time>2017-05-20T12:59:29Z</time>
      </trkpt>
      <trkpt lat="44.85953" lon="5.38206">
        <ele>1153.24</ele>
        <time>2017-05-20T12:59:30Z</time>
      </trkpt>
      <trkpt lat="44.85959" lon="5.38198">
        <ele>1152.28</ele>
        <time>2017-05-20T12:59:31Z</time>
      </trkpt>
      <trkpt lat="44.85966" lon="5.38191">
        <ele>1151.32</ele>
        <time>2017-05-20T12:59:32Z</time>
      </trkpt>
      <trkpt lat="44.85974" lon="5.38185">
        <ele>1150.35</ele>
        <time>2017-05-20T12:59:33Z</time>
      </trkpt>
      <trkpt lat="44.85997" lon="5.38166">
        <ele>1147.47</ele>
        <time>2017-05-20T12:59:36Z</time>
      </trkpt>
      <trkpt lat="44.86013" lon="5.38154">
        <ele>1147.47</ele>
        <time>2017-05-20T12:59:38Z</time>
      </trkpt>
      <trkpt lat="44.8602" lon="5.38147">
        <ele>1147.47</ele>
        <time>2017-05-20T12:59:39Z</time>
      </trkpt>
      <trkpt lat="44.86027" lon="5.3814">
        <ele>1146.51</ele>
        <time>2017-05-20T12:59:40Z</time>
      </trkpt>
      <trkpt lat="44.86033" lon="5.38133">
        <ele>1146.03</ele>
        <time>2017-05-20T12:59:41Z</time>
      </trkpt>
      <trkpt lat="44.86073" lon="5.38094">
        <ele>1142.66</ele>
        <time>2017-05-20T12:59:47Z</time>
      </trkpt>
      <trkpt lat="44.86129" lon="5.38052">
        <ele>1138.82</ele>
        <time>2017-05-20T12:59:55Z</time>
      </trkpt>
      <trkpt lat="44.86136" lon="5.38048">
        <ele>1138.34</ele>
        <time>2017-05-20T12:59:56Z</time>
      </trkpt>
      <trkpt lat="44.86151" lon="5.38041">
        <ele>1136.9</ele>
        <time>2017-05-20T12:59:58Z</time>
      </trkpt>
      <trkpt lat="44.86159" lon="5.38039">
        <ele>1136.42</ele>
        <time>2017-05-20T12:59:59Z</time>
      </trkpt>
      <trkpt lat="44.86198" lon="5.38037">
        <ele>1134.97</ele>
        <time>2017-05-20T13:00:04Z</time>
      </trkpt>
      <trkpt lat="44.86206" lon="5.38038">
        <ele>1134.49</ele>
        <time>2017-05-20T13:00:05Z</time>
      </trkpt>
      <trkpt lat="44.86241" lon="5.38041">
        <ele>1134.49</ele>
        <time>2017-05-20T13:00:10Z</time>
      </trkpt>
      <trkpt lat="44.86248" lon="5.3804">
        <ele>1134.49</ele>
        <time>2017-05-20T13:00:11Z</time>
      </trkpt>
      <trkpt lat="44.86294" lon="5.38026">
        <ele>1135.45</ele>
        <time>2017-05-20T13:00:19Z</time>
      </trkpt>
      <trkpt lat="44.86347" lon="5.38004">
        <ele>1137.38</ele>
        <time>2017-05-20T13:00:30Z</time>
      </trkpt>
      <trkpt lat="44.86373" lon="5.38001">
        <ele>1138.34</ele>
        <time>2017-05-20T13:00:36Z</time>
      </trkpt>
      <trkpt lat="44.86377" lon="5.38001">
        <ele>1137.86</ele>
        <time>2017-05-20T13:00:37Z</time>
      </trkpt>
      <trkpt lat="44.86418" lon="5.37999">
        <ele>1137.86</ele>
        <time>2017-05-20T13:00:47Z</time>
      </trkpt>
      <trkpt lat="44.86422" lon="5.38">
        <ele>1137.38</ele>
        <time>2017-05-20T13:00:48Z</time>
      </trkpt>
      <trkpt lat="44.86426" lon="5.38001">
        <ele>1137.86</ele>
        <time>2017-05-20T13:00:49Z</time>
      </trkpt>
      <trkpt lat="44.86429" lon="5.38001">
        <ele>1138.34</ele>
        <time>2017-05-20T13:00:50Z</time>
      </trkpt>
      <trkpt lat="44.86433" lon="5.38001">
        <ele>1137.86</ele>
        <time>2017-05-20T13:00:51Z</time>
      </trkpt>
      <trkpt lat="44.86436" lon="5.38">
        <ele>1137.86</ele>
        <time>2017-05-20T13:00:52Z</time>
      </trkpt>
      <trkpt lat="44.86439" lon="5.37999">
        <ele>1138.34</ele>
        <time>2017-05-20T13:00:53Z</time>
      </trkpt>
      <trkpt lat="44.86442" lon="5.37998">
        <ele>1138.34</ele>
        <time>2017-05-20T13:00:54Z</time>
      </trkpt>
      <trkpt lat="44.86445" lon="5.37998">
        <ele>1138.34</ele>
        <time>2017-05-20T13:00:55Z</time>
      </trkpt>
      <trkpt lat="44.86478" lon="5.37994">
        <ele>1137.86</ele>
        <time>2017-05-20T13:01:05Z</time>
      </trkpt>
      <trkpt lat="44.86512" lon="5.3799">
        <ele>1138.82</ele>
        <time>2017-05-20T13:01:17Z</time>
      </trkpt>
      <trkpt lat="44.8656" lon="5.37983">
        <ele>1137.86</ele>
        <time>2017-05-20T13:01:30Z</time>
      </trkpt>
      <trkpt lat="44.86564" lon="5.37983">
        <ele>1137.86</ele>
        <time>2017-05-20T13:01:31Z</time>
      </trkpt>
      <trkpt lat="44.86568" lon="5.37982">
        <ele>1137.86</ele>
        <time>2017-05-20T13:01:32Z</time>
      </trkpt>
      <trkpt lat="44.86587" lon="5.37979">
        <ele>1135.94</ele>
        <time>2017-05-20T13:01:36Z</time>
      </trkpt>
      <trkpt lat="44.86616" lon="5.37975">
        <ele>1133.53</ele>
        <time>2017-05-20T13:01:41Z</time>
      </trkpt>
      <trkpt lat="44.86628" lon="5.37973">
        <ele>1132.57</ele>
        <time>2017-05-20T13:01:43Z</time>
      </trkpt>
      <trkpt lat="44.86634" lon="5.37972">
        <ele>1132.09</ele>
        <time>2017-05-20T13:01:44Z</time>
      </trkpt>
      <trkpt lat="44.8664" lon="5.37972">
        <ele>1131.13</ele>
        <time>2017-05-20T13:01:45Z</time>
      </trkpt>
      <trkpt lat="44.86666" lon="5.37966">
        <ele>1127.76</ele>
        <time>2017-05-20T13:01:49Z</time>
      </trkpt>
      <trkpt lat="44.86678" lon="5.37964">
        <ele>1125.84</ele>
        <time>2017-05-20T13:01:51Z</time>
      </trkpt>
      <trkpt lat="44.86736" lon="5.37963">
        <ele>1123.44</ele>
        <time>2017-05-20T13:02:00Z</time>
      </trkpt>
      <trkpt lat="44.86742" lon="5.37962">
        <ele>1122.96</ele>
        <time>2017-05-20T13:02:01Z</time>
      </trkpt>
      <trkpt lat="44.86761" lon="5.37961">
        <ele>1122.96</ele>
        <time>2017-05-20T13:02:04Z</time>
      </trkpt>
      <trkpt lat="44.86774" lon="5.37961">
        <ele>1122.48</ele>
        <time>2017-05-20T13:02:06Z</time>
      </trkpt>
      <trkpt lat="44.8682" lon="5.37959">
        <ele>1121.52</ele>
        <time>2017-05-20T13:02:15Z</time>
      </trkpt>
      <trkpt lat="44.86824" lon="5.37958">
        <ele>1121.52</ele>
        <time>2017-05-20T13:02:16Z</time>
      </trkpt>
      <trkpt lat="44.86832" lon="5.37959">
        <ele>1122</ele>
        <time>2017-05-20T13:02:18Z</time>
      </trkpt>
      <trkpt lat="44.86873" lon="5.37963">
        <ele>1123.92</ele>
        <time>2017-05-20T13:02:30Z</time>
      </trkpt>
      <trkpt lat="44.86905" lon="5.37966">
        <ele>1123.92</ele>
        <time>2017-05-20T13:02:40Z</time>
      </trkpt>
      <trkpt lat="44.86942" lon="5.37979">
        <ele>1123.44</ele>
        <time>2017-05-20T13:02:51Z</time>
      </trkpt>
      <trkpt lat="44.86973" lon="5.37989">
        <ele>1122.48</ele>
        <time>2017-05-20T13:02:59Z</time>
      </trkpt>
      <trkpt lat="44.86978" lon="5.3799">
        <ele>1122.48</ele>
        <time>2017-05-20T13:03:00Z</time>
      </trkpt>
      <trkpt lat="44.86982" lon="5.37991">
        <ele>1122.48</ele>
        <time>2017-05-20T13:03:01Z</time>
      </trkpt>
      <trkpt lat="44.86986" lon="5.37992">
        <ele>1122.48</ele>
        <time>2017-05-20T13:03:02Z</time>
      </trkpt>
      <trkpt lat="44.86991" lon="5.37993">
        <ele>1122</ele>
        <time>2017-05-20T13:03:03Z</time>
      </trkpt>
      <trkpt lat="44.87005" lon="5.37995">
        <ele>1121.03</ele>
        <time>2017-05-20T13:03:06Z</time>
      </trkpt>
      <trkpt lat="44.8701" lon="5.37995">
        <ele>1121.03</ele>
        <time>2017-05-20T13:03:07Z</time>
      </trkpt>
      <trkpt lat="44.87019" lon="5.37996">
        <ele>1121.52</ele>
        <time>2017-05-20T13:03:09Z</time>
      </trkpt>
      <trkpt lat="44.87029" lon="5.37997">
        <ele>1121.52</ele>
        <time>2017-05-20T13:03:11Z</time>
      </trkpt>
      <trkpt lat="44.87062" lon="5.38007">
        <ele>1120.55</ele>
        <time>2017-05-20T13:03:18Z</time>
      </trkpt>
      <trkpt lat="44.87066" lon="5.38008">
        <ele>1120.07</ele>
        <time>2017-05-20T13:03:19Z</time>
      </trkpt>
      <trkpt lat="44.87071" lon="5.38007">
        <ele>1120.07</ele>
        <time>2017-05-20T13:03:20Z</time>
      </trkpt>
      <trkpt lat="44.87075" lon="5.38006">
        <ele>1119.59</ele>
        <time>2017-05-20T13:03:21Z</time>
      </trkpt>
      <trkpt lat="44.8708" lon="5.38005">
        <ele>1119.59</ele>
        <time>2017-05-20T13:03:22Z</time>
      </trkpt>
      <trkpt lat="44.87103" lon="5.37998">
        <ele>1118.15</ele>
        <time>2017-05-20T13:03:27Z</time>
      </trkpt>
      <trkpt lat="44.87111" lon="5.37994">
        <ele>1118.15</ele>
        <time>2017-05-20T13:03:29Z</time>
      </trkpt>
      <trkpt lat="44.87133" lon="5.37982">
        <ele>1117.19</ele>
        <time>2017-05-20T13:03:35Z</time>
      </trkpt>
      <trkpt lat="44.87158" lon="5.37978">
        <ele>1116.71</ele>
        <time>2017-05-20T13:03:41Z</time>
      </trkpt>
      <trkpt lat="44.87162" lon="5.37976">
        <ele>1116.71</ele>
        <time>2017-05-20T13:03:42Z</time>
      </trkpt>
      <trkpt lat="44.87171" lon="5.37971">
        <ele>1115.75</ele>
        <time>2017-05-20T13:03:44Z</time>
      </trkpt>
      <trkpt lat="44.87176" lon="5.37967">
        <ele>1114.79</ele>
        <time>2017-05-20T13:03:45Z</time>
      </trkpt>
      <trkpt lat="44.87186" lon="5.37959">
        <ele>1113.82</ele>
        <time>2017-05-20T13:03:47Z</time>
      </trkpt>
      <trkpt lat="44.87191" lon="5.37956">
        <ele>1112.86</ele>
        <time>2017-05-20T13:03:48Z</time>
      </trkpt>
      <trkpt lat="44.87197" lon="5.37955">
        <ele>1112.38</ele>
        <time>2017-05-20T13:03:49Z</time>
      </trkpt>
      <trkpt lat="44.8721" lon="5.37954">
        <ele>1111.42</ele>
        <time>2017-05-20T13:03:51Z</time>
      </trkpt>
      <trkpt lat="44.87217" lon="5.37953">
        <ele>1111.42</ele>
        <time>2017-05-20T13:03:52Z</time>
      </trkpt>
      <trkpt lat="44.8723" lon="5.37952">
        <ele>1110.46</ele>
        <time>2017-05-20T13:03:54Z</time>
      </trkpt>
      <trkpt lat="44.87236" lon="5.37949">
        <ele>1109.5</ele>
        <time>2017-05-20T13:03:55Z</time>
      </trkpt>
      <trkpt lat="44.87248" lon="5.37942">
        <ele>1109.5</ele>
        <time>2017-05-20T13:03:57Z</time>
      </trkpt>
      <trkpt lat="44.87259" lon="5.37935">
        <ele>1108.54</ele>
        <time>2017-05-20T13:03:59Z</time>
      </trkpt>
      <trkpt lat="44.87265" lon="5.37934">
        <ele>1108.06</ele>
        <time>2017-05-20T13:04:00Z</time>
      </trkpt>
      <trkpt lat="44.8727" lon="5.37935">
        <ele>1108.54</ele>
        <time>2017-05-20T13:04:01Z</time>
      </trkpt>
      <trkpt lat="44.87332" lon="5.37948">
        <ele>1107.1</ele>
        <time>2017-05-20T13:04:14Z</time>
      </trkpt>
      <trkpt lat="44.87337" lon="5.37947">
        <ele>1107.58</ele>
        <time>2017-05-20T13:04:15Z</time>
      </trkpt>
      <trkpt lat="44.87342" lon="5.37945">
        <ele>1107.58</ele>
        <time>2017-05-20T13:04:16Z</time>
      </trkpt>
      <trkpt lat="44.87421" lon="5.37912">
        <ele>1105.17</ele>
        <time>2017-05-20T13:04:32Z</time>
      </trkpt>
      <trkpt lat="44.87496" lon="5.37885">
        <ele>1104.69</ele>
        <time>2017-05-20T13:04:48Z</time>
      </trkpt>
      <trkpt lat="44.87509" lon="5.37879">
        <ele>1105.17</ele>
        <time>2017-05-20T13:04:51Z</time>
      </trkpt>
      <trkpt lat="44.87514" lon="5.37878">
        <ele>1105.65</ele>
        <time>2017-05-20T13:04:52Z</time>
      </trkpt>
      <trkpt lat="44.87538" lon="5.3787">
        <ele>1103.73</ele>
        <time>2017-05-20T13:04:57Z</time>
      </trkpt>
      <trkpt lat="44.87616" lon="5.3784">
        <ele>1100.37</ele>
        <time>2017-05-20T13:05:12Z</time>
      </trkpt>
      <trkpt lat="44.87672" lon="5.37819">
        <ele>1097.48</ele>
        <time>2017-05-20T13:05:22Z</time>
      </trkpt>
      <trkpt lat="44.87682" lon="5.37814">
        <ele>1098.44</ele>
        <time>2017-05-20T13:05:24Z</time>
      </trkpt>
      <trkpt lat="44.87709" lon="5.37804">
        <ele>1097.48</ele>
        <time>2017-05-20T13:05:29Z</time>
      </trkpt>
      <trkpt lat="44.87757" lon="5.37786">
        <ele>1096.04</ele>
        <time>2017-05-20T13:05:39Z</time>
      </trkpt>
      <trkpt lat="44.87844" lon="5.37754">
        <ele>1093.64</ele>
        <time>2017-05-20T13:05:57Z</time>
      </trkpt>
      <trkpt lat="44.87883" lon="5.3774">
        <ele>1092.2</ele>
        <time>2017-05-20T13:06:05Z</time>
      </trkpt>
      <trkpt lat="44.87888" lon="5.37739">
        <ele>1092.2</ele>
        <time>2017-05-20T13:06:06Z</time>
      </trkpt>
      <trkpt lat="44.87892" lon="5.37741">
        <ele>1092.68</ele>
        <time>2017-05-20T13:06:07Z</time>
      </trkpt>
      <trkpt lat="44.87896" lon="5.37744">
        <ele>1093.16</ele>
        <time>2017-05-20T13:06:08Z</time>
      </trkpt>
      <trkpt lat="44.87899" lon="5.37748">
        <ele>1093.64</ele>
        <time>2017-05-20T13:06:09Z</time>
      </trkpt>
      <trkpt lat="44.87901" lon="5.37753">
        <ele>1093.64</ele>
        <time>2017-05-20T13:06:10Z</time>
      </trkpt>
      <trkpt lat="44.87903" lon="5.37757">
        <ele>1094.6</ele>
        <time>2017-05-20T13:06:11Z</time>
      </trkpt>
      <trkpt lat="44.87905" lon="5.37761">
        <ele>1094.6</ele>
        <time>2017-05-20T13:06:12Z</time>
      </trkpt>
      <trkpt lat="44.87906" lon="5.37766">
        <ele>1094.6</ele>
        <time>2017-05-20T13:06:13Z</time>
      </trkpt>
      <trkpt lat="44.87922" lon="5.37802">
        <ele>1096.04</ele>
        <time>2017-05-20T13:06:24Z</time>
      </trkpt>
      <trkpt lat="44.87925" lon="5.37802">
        <ele>1096.04</ele>
        <time>2017-05-20T13:06:25Z</time>
      </trkpt>
      <trkpt lat="44.87926" lon="5.378">
        <ele>1095.56</ele>
        <time>2017-05-20T13:06:26Z</time>
      </trkpt>
      <trkpt lat="44.87927" lon="5.37798">
        <ele>1096.04</ele>
        <time>2017-05-20T13:06:27Z</time>
      </trkpt>
      <trkpt lat="44.87928" lon="5.37796">
        <ele>1096.52</ele>
        <time>2017-05-20T13:06:28Z</time>
      </trkpt>
      <trkpt lat="44.87929" lon="5.37795">
        <ele>1096.52</ele>
        <time>2017-05-20T13:06:29Z</time>
      </trkpt>
      <trkpt lat="44.87929" lon="5.37793">
        <ele>1096.52</ele>
        <time>2017-05-20T13:06:30Z</time>
      </trkpt>
      <trkpt lat="44.8793" lon="5.37791">
        <ele>1096.52</ele>
        <time>2017-05-20T13:06:31Z</time>
      </trkpt>
      <trkpt lat="44.8793" lon="5.37789">
        <ele>1096.52</ele>
        <time>2017-05-20T13:06:32Z</time>
      </trkpt>
      <trkpt lat="44.8793" lon="5.37787">
        <ele>1098.92</ele>
        <time>2017-05-20T13:06:45Z</time>
      </trkpt>
    </trkseg>
  </trk>
</gpx>